| time (UTC) | temp F | wind direction | speed MPH | gust MPH | rain 1hr in | rain 24hr in | rain mn in | humidity % | barometer mb |
| 20260902191822 | 96 | 67 | 2.0 | 6.0 | 0.00 | 0.00 | 0.00 | 57 | 1012.7 |
| 20260902191751 | 96 | 98 | 2.0 | 6.0 | 0.00 | 0.00 | 0.00 | 57 | 1012.7 |
| 20260902191722 | 95 | 178 | 2.0 | 6.0 | 0.00 | 0.00 | 0.00 | 60 | 1012.7 |
| 20260902191622 | 95 | 352 | 2.0 | 7.0 | 0.00 | 0.00 | 0.00 | 60 | 1012.7 |
| 20260902191522 | 95 | 24 | 2.0 | 7.0 | 0.00 | 0.00 | 0.00 | 60 | 1012.7 |
| 20260902191422 | 95 | 0 | 2.0 | 7.0 | 0.00 | 0.00 | 0.00 | 59 | 1012.8 |
| 20260902191316 | 95 | 267 | 2.0 | 7.0 | 0.00 | 0.00 | 0.00 | 60 | 1012.8 |
| 20260902191250 | 95 | 265 | 2.0 | 7.0 | 0.00 | 0.00 | 0.00 | 60 | 1012.8 |
| 20260902191217 | 95 | 268 | 2.0 | 7.0 | 0.00 | 0.00 | 0.00 | 59 | 1012.8 |
| 20260902191116 | 94 | 272 | 2.0 | 7.0 | 0.00 | 0.00 | 0.00 | 60 | 1012.8 |
| 20260902191009 | 94 | 0 | 2.0 | 7.0 | 0.00 | 0.00 | 0.00 | 60 | 1012.8 |
| 20260902190907 | 94 | 189 | 2.0 | 7.0 | 0.00 | 0.00 | 0.00 | 60 | 1012.8 |
| 20260902190808 | 94 | 227 | 2.0 | 7.0 | 0.00 | 0.00 | 0.00 | 60 | 1012.8 |
| 20260902190751 | 94 | 268 | 2.0 | 7.0 | 0.00 | 0.00 | 0.00 | 60 | 1012.8 |
| 20260902190708 | 94 | 258 | 1.0 | 7.0 | 0.00 | 0.00 | 0.00 | 60 | 1012.8 |
| 20260902190608 | 94 | 291 | 1.0 | 4.0 | 0.00 | 0.00 | 0.00 | 62 | 1012.8 |
| 20260902190508 | 94 | 272 | 1.0 | 4.0 | 0.00 | 0.00 | 0.00 | 62 | 1012.8 |
| 20260902190408 | 94 | 204 | 1.0 | 4.0 | 0.00 | 0.00 | 0.00 | 62 | 1012.8 |
| 20260902190305 | 93 | 155 | 1.0 | 4.0 | 0.00 | 0.00 | 0.00 | 64 | 1012.8 |
| 20260902190248 | 93 | 289 | 1.0 | 4.0 | 0.00 | 0.00 | 0.00 | 64 | 1012.8 |
| 20260902190204 | 93 | 282 | 1.0 | 4.0 | 0.00 | 0.00 | 0.00 | 64 | 1012.8 |
| 20260902190000 | 93 | 313 | 1.0 | 5.0 | 0.00 | 0.00 | 0.00 | 64 | 1012.8 |
| 20260902185902 | 92 | 187 | 1.0 | 5.0 | 0.00 | 0.00 | 0.00 | 65 | 1012.8 |
| 20260902185801 | 92 | 217 | 2.0 | 5.0 | 0.00 | 0.00 | 0.00 | 65 | 1012.8 |
| 20260902185748 | 92 | 205 | 2.0 | 5.0 | 0.00 | 0.00 | 0.00 | 65 | 1012.9 |
| 20260902185701 | 92 | 181 | 2.0 | 5.0 | 0.00 | 0.00 | 0.00 | 65 | 1012.9 |
| 20260902185601 | 92 | 92 | 2.0 | 5.0 | 0.00 | 0.00 | 0.00 | 65 | 1012.9 |
| 20260902185501 | 92 | 264 | 2.0 | 6.0 | 0.00 | 0.00 | 0.00 | 65 | 1012.9 |
| 20260902185401 | 92 | 266 | 2.0 | 6.0 | 0.00 | 0.00 | 0.00 | 65 | 1012.9 |
| 20260902185301 | 92 | 210 | 2.0 | 6.0 | 0.00 | 0.00 | 0.00 | 65 | 1012.9 |
| 20260902185245 | 92 | 258 | 2.0 | 6.0 | 0.00 | 0.00 | 0.00 | 65 | 1012.9 |
| 20260902185203 | 92 | 269 | 2.0 | 6.0 | 0.00 | 0.00 | 0.00 | 65 | 1012.9 |
| 20260902185101 | 92 | 267 | 2.0 | 6.0 | 0.00 | 0.00 | 0.00 | 65 | 1012.9 |
| 20260902185002 | 92 | 257 | 2.0 | 6.0 | 0.00 | 0.00 | 0.00 | 64 | 1012.9 |
| 20260902184853 | 92 | 242 | 2.0 | 6.0 | 0.00 | 0.00 | 0.00 | 64 | 1012.9 |
| 20260902184753 | 92 | 297 | 1.0 | 6.0 | 0.00 | 0.00 | 0.00 | 64 | 1013.0 |
| 20260902184745 | 92 | 306 | 1.0 | 6.0 | 0.00 | 0.00 | 0.00 | 64 | 1013.0 |
| 20260902184653 | 92 | 111 | 1.0 | 6.0 | 0.00 | 0.00 | 0.00 | 64 | 1013.0 |
| 20260902184547 | 92 | 302 | 1.0 | 5.0 | 0.00 | 0.00 | 0.00 | 64 | 1013.0 |
| 20260902184446 | 92 | 237 | 1.0 | 5.0 | 0.00 | 0.00 | 0.00 | 64 | 1013.0 |
| 20260902184346 | 92 | 197 | 1.0 | 5.0 | 0.00 | 0.00 | 0.00 | 64 | 1013.0 |
| 20260902184247 | 92 | 152 | 1.0 | 5.0 | 0.00 | 0.00 | 0.00 | 64 | 1013.0 |
| 20260902184146 | 92 | 252 | 1.0 | 6.0 | 0.00 | 0.00 | 0.00 | 64 | 1013.0 |
| 20260902184047 | 92 | 319 | 2.0 | 6.0 | 0.00 | 0.00 | 0.00 | 64 | 1013.0 |
| 20260902183943 | 92 | 155 | 2.0 | 6.0 | 0.00 | 0.00 | 0.00 | 65 | 1013.0 |
| 20260902183839 | 92 | 264 | 2.0 | 6.0 | 0.00 | 0.00 | 0.00 | 65 | 1013.0 |
| 20260902183738 | 92 | 326 | 2.0 | 6.0 | 0.00 | 0.00 | 0.00 | 65 | 1013.0 |
| 20260902183640 | 92 | 64 | 2.0 | 6.0 | 0.00 | 0.00 | 0.00 | 64 | 1013.0 |
| 20260902183540 | 92 | 276 | 2.0 | 6.0 | 0.00 | 0.00 | 0.00 | 64 | 1013.1 |
| 20260902183437 | 92 | 202 | 2.0 | 6.0 | 0.00 | 0.00 | 0.00 | 65 | 1013.1 |
| 20260902183334 | 92 | 159 | 2.0 | 6.0 | 0.00 | 0.00 | 0.00 | 65 | 1013.1 |
| 20260902183245 | 92 | 354 | 2.0 | 6.0 | 0.00 | 0.00 | 0.00 | 65 | 1013.1 |
| 20260902183231 | 92 | 23 | 2.0 | 6.0 | 0.00 | 0.00 | 0.00 | 65 | 1013.1 |
| 20260902183127 | 92 | 246 | 2.0 | 6.0 | 0.00 | 0.00 | 0.00 | 64 | 1013.1 |
| 20260902183021 | 92 | 256 | 2.0 | 6.0 | 0.00 | 0.00 | 0.00 | 64 | 1013.1 |
| 20260902183006 | 92 | 247 | 2.0 | 5.0 | 0.00 | 0.00 | 0.00 | 65 | 1013.1 |
| 20260902182917 | 92 | 351 | 2.0 | 5.0 | 0.00 | 0.00 | 0.00 | 65 | 1013.1 |
| 20260902182851 | 92 | 284 | 2.0 | 5.0 | 0.00 | 0.00 | 0.00 | 65 | 1013.1 |
| 20260902182724 | 92 | 243 | 3.0 | 8.0 | 0.00 | 0.00 | 0.00 | 66 | 1013.2 |
| 20260902182714 | 92 | 305 | 2.0 | 5.0 | 0.00 | 0.00 | 0.00 | 65 | 1013.1 |
| 20260902182614 | 92 | 269 | 2.0 | 7.0 | 0.00 | 0.00 | 0.00 | 66 | 1013.1 |
| 20260902182606 | 92 | 0 | 2.0 | 7.0 | 0.00 | 0.00 | 0.00 | 65 | 1013.2 |
| 20260902182408 | 92 | 204 | 2.0 | 7.0 | 0.00 | 0.00 | 0.00 | 66 | 1013.2 |
| 20260902182349 | 92 | 284 | 2.0 | 7.0 | 0.00 | 0.00 | 0.00 | 66 | 1013.2 |
| 20260902182205 | 92 | 190 | 3.0 | 8.0 | 0.00 | 0.00 | 0.00 | 66 | 1013.2 |
| 20260902182106 | 92 | 230 | 3.0 | 8.0 | 0.00 | 0.00 | 0.00 | 66 | 1013.2 |
| 20260902182005 | 92 | 196 | 3.0 | 8.0 | 0.00 | 0.00 | 0.00 | 67 | 1013.3 |
| 20260902181905 | 92 | 240 | 3.0 | 8.0 | 0.00 | 0.00 | 0.00 | 68 | 1013.4 |
| 20260902181805 | 92 | 312 | 3.0 | 8.0 | 0.00 | 0.00 | 0.00 | 68 | 1013.4 |
| 20260902181743 | 92 | 211 | 3.0 | 8.0 | 0.00 | 0.00 | 0.00 | 68 | 1013.4 |
| 20260902181704 | 92 | 265 | 3.0 | 8.0 | 0.00 | 0.00 | 0.00 | 68 | 1013.4 |
| 20260902181605 | 92 | 257 | 3.0 | 8.0 | 0.00 | 0.00 | 0.00 | 68 | 1013.3 |
| 20260902181508 | 92 | 186 | 3.0 | 8.0 | 0.00 | 0.00 | 0.00 | 68 | 1013.4 |
| 20260902181502 | 93 | 247 | 2.0 | 8.0 | 0.00 | 0.00 | 0.00 | 67 | 1013.5 |
| 20260902181405 | 92 | 278 | 3.0 | 8.0 | 0.00 | 0.00 | 0.00 | 67 | 1013.4 |
| 20260902181349 | 92 | 233 | 2.0 | 8.0 | 0.00 | 0.00 | 0.00 | 67 | 1013.4 |
| 20260902181206 | 93 | 303 | 2.0 | 8.0 | 0.00 | 0.00 | 0.00 | 67 | 1013.5 |
| 20260902181105 | 93 | 340 | 2.0 | 8.0 | 0.00 | 0.00 | 0.00 | 66 | 1013.5 |
| 20260902181005 | 93 | 254 | 2.0 | 8.0 | 0.00 | 0.00 | 0.00 | 66 | 1013.5 |
| 20260902180905 | 93 | 267 | 2.0 | 8.0 | 0.00 | 0.00 | 0.00 | 65 | 1013.5 |
| 20260902180802 | 93 | 238 | 2.0 | 9.0 | 0.00 | 0.00 | 0.00 | 65 | 1013.5 |
| 20260902180742 | 93 | 101 | 2.0 | 9.0 | 0.00 | 0.00 | 0.00 | 64 | 1013.5 |
| 20260902180703 | 93 | 241 | 2.0 | 9.0 | 0.00 | 0.00 | 0.00 | 64 | 1013.5 |
| 20260902180559 | 93 | 225 | 2.0 | 9.0 | 0.00 | 0.00 | 0.00 | 65 | 1013.5 |
| 20260902180459 | 93 | 244 | 2.0 | 9.0 | 0.00 | 0.00 | 0.00 | 65 | 1013.5 |
| 20260902180400 | 93 | 240 | 3.0 | 9.0 | 0.00 | 0.00 | 0.00 | 64 | 1013.5 |
| 20260902180300 | 93 | 257 | 3.0 | 9.0 | 0.00 | 0.00 | 0.00 | 64 | 1013.5 |
| 20260902180224 | 93 | 272 | 3.0 | 9.0 | 0.00 | 0.00 | 0.00 | 65 | 1013.5 |
| 20260902180200 | 93 | 201 | 3.0 | 9.0 | 0.00 | 0.00 | 0.00 | 65 | 1013.5 |
| 20260902180100 | 93 | 339 | 3.0 | 9.0 | 0.00 | 0.00 | 0.00 | 65 | 1013.6 |
| 20260902175957 | 93 | 226 | 3.0 | 9.0 | 0.00 | 0.00 | 0.00 | 63 | 1013.6 |
| 20260902175850 | 93 | 286 | 3.0 | 8.0 | 0.00 | 0.00 | 0.00 | 63 | 1013.5 |
| 20260902175751 | 93 | 250 | 3.0 | 8.0 | 0.00 | 0.00 | 0.00 | 64 | 1013.6 |
| 20260902175722 | 93 | 359 | 3.0 | 8.0 | 0.00 | 0.00 | 0.00 | 64 | 1013.6 |
| 20260902175651 | 93 | 228 | 3.0 | 7.0 | 0.00 | 0.00 | 0.00 | 65 | 1013.6 |
| 20260902175551 | 93 | 252 | 2.0 | 7.0 | 0.00 | 0.00 | 0.00 | 65 | 1013.6 |
| 20260902175450 | 93 | 242 | 2.0 | 7.0 | 0.00 | 0.00 | 0.00 | 65 | 1013.6 |
| 20260902175351 | 93 | 151 | 2.0 | 7.0 | 0.00 | 0.00 | 0.00 | 64 | 1013.7 |
| 20260902175250 | 93 | 237 | 2.0 | 7.0 | 0.00 | 0.00 | 0.00 | 65 | 1013.8 |
| 20260902175222 | 93 | 213 | 2.0 | 7.0 | 0.00 | 0.00 | 0.00 | 65 | 1013.8 |
| 20260902175144 | 93 | 257 | 2.0 | 7.0 | 0.00 | 0.00 | 0.00 | 65 | 1013.8 |
| 20260902175042 | 93 | 305 | 2.0 | 7.0 | 0.00 | 0.00 | 0.00 | 65 | 1013.8 |
| 20260902174942 | 93 | 24 | 2.0 | 7.0 | 0.00 | 0.00 | 0.00 | 65 | 1013.8 |
| 20260902174841 | 93 | 258 | 2.0 | 7.0 | 0.00 | 0.00 | 0.00 | 65 | 1013.8 |
| 20260902174733 | 93 | 235 | 2.0 | 7.0 | 0.00 | 0.00 | 0.00 | 66 | 1013.8 |
| 20260902174722 | 93 | 233 | 2.0 | 7.0 | 0.00 | 0.00 | 0.00 | 66 | 1013.8 |
| 20260902174633 | 93 | 213 | 2.0 | 7.0 | 0.00 | 0.00 | 0.00 | 65 | 1013.8 |
| 20260902174530 | 93 | 247 | 2.0 | 7.0 | 0.00 | 0.00 | 0.00 | 65 | 1013.8 |
| 20260902174429 | 93 | 188 | 2.0 | 6.0 | 0.00 | 0.00 | 0.00 | 65 | 1013.9 |
| 20260902174320 | 93 | 222 | 2.0 | 6.0 | 0.00 | 0.00 | 0.00 | 64 | 1013.9 |
| 20260902174221 | 93 | 36 | 2.0 | 7.0 | 0.00 | 0.00 | 0.00 | 64 | 1013.9 |
| 20260902174109 | 93 | 233 | 2.0 | 7.0 | 0.00 | 0.00 | 0.00 | 64 | 1014.0 |
| 20260902174006 | 93 | 274 | 2.0 | 7.0 | 0.00 | 0.00 | 0.00 | 64 | 1014.0 |
| 20260902173856 | 93 | 117 | 2.0 | 7.0 | 0.00 | 0.00 | 0.00 | 64 | 1014.0 |
| 20260902173754 | 92 | 247 | 2.0 | 7.0 | 0.00 | 0.00 | 0.00 | 66 | 1014.0 |
| 20260902173713 | 92 | 232 | 2.0 | 7.0 | 0.00 | 0.00 | 0.00 | 66 | 1014.0 |
| 20260902173651 | 92 | 226 | 2.0 | 7.0 | 0.00 | 0.00 | 0.00 | 66 | 1014.0 |
| 20260902173550 | 92 | 195 | 2.0 | 7.0 | 0.00 | 0.00 | 0.00 | 65 | 1014.0 |
| 20260902173448 | 92 | 137 | 2.0 | 7.0 | 0.00 | 0.00 | 0.00 | 67 | 1014.1 |
| 20260902173342 | 92 | 237 | 2.0 | 7.0 | 0.00 | 0.00 | 0.00 | 67 | 1014.1 |
| 20260902173239 | 92 | 209 | 2.0 | 6.0 | 0.00 | 0.00 | 0.00 | 67 | 1014.1 |
| 20260902173213 | 92 | 0 | 2.0 | 6.0 | 0.00 | 0.00 | 0.00 | 67 | 1014.1 |
| 20260902173136 | 92 | 247 | 2.0 | 6.0 | 0.00 | 0.00 | 0.00 | 66 | 1014.1 |
| 20260902173036 | 92 | 235 | 2.0 | 6.0 | 0.00 | 0.00 | 0.00 | 67 | 1014.1 |
| 20260902172933 | 92 | 235 | 2.0 | 6.0 | 0.00 | 0.00 | 0.00 | 68 | 1014.1 |
| 20260902172833 | 92 | 297 | 2.0 | 6.0 | 0.00 | 0.00 | 0.00 | 68 | 1014.1 |
| 20260902172730 | 92 | 235 | 2.0 | 8.0 | 0.00 | 0.00 | 0.00 | 66 | 1014.1 |
| 20260902172713 | 92 | 260 | 2.0 | 8.0 | 0.00 | 0.00 | 0.00 | 66 | 1014.1 |
| 20260902172626 | 92 | 264 | 2.0 | 8.0 | 0.00 | 0.00 | 0.00 | 66 | 1014.1 |
| 20260902172527 | 92 | 295 | 2.0 | 8.0 | 0.00 | 0.00 | 0.00 | 66 | 1014.1 |
| 20260902172431 | 93 | 16 | 2.0 | 8.0 | 0.00 | 0.00 | 0.00 | 65 | 1014.2 |
| 20260902172427 | 92 | 266 | 2.0 | 8.0 | 0.00 | 0.00 | 0.00 | 67 | 1014.2 |
| 20260902172327 | 92 | 266 | 2.0 | 8.0 | 0.00 | 0.00 | 0.00 | 67 | 1014.2 |
| 20260902172316 | 93 | 351 | 2.0 | 8.0 | 0.00 | 0.00 | 0.00 | 65 | 1014.2 |
| 20260902172124 | 93 | 159 | 2.0 | 8.0 | 0.00 | 0.00 | 0.00 | 65 | 1014.2 |
| 20260902172018 | 93 | 294 | 2.0 | 8.0 | 0.00 | 0.00 | 0.00 | 65 | 1014.2 |
| 20260902171914 | 93 | 224 | 2.0 | 8.0 | 0.00 | 0.00 | 0.00 | 65 | 1014.2 |
| 20260902171812 | 93 | 161 | 2.0 | 8.0 | 0.00 | 0.00 | 0.00 | 65 | 1014.2 |
| 20260902171711 | 93 | 260 | 2.0 | 7.0 | 0.00 | 0.00 | 0.00 | 66 | 1014.3 |
| 20260902171608 | 93 | 221 | 2.0 | 6.0 | 0.00 | 0.00 | 0.00 | 65 | 1014.4 |
| 20260902171509 | 93 | 0 | 2.0 | 6.0 | 0.00 | 0.00 | 0.00 | 65 | 1014.4 |
| 20260902171403 | 93 | 162 | 2.0 | 6.0 | 0.00 | 0.00 | 0.00 | 65 | 1014.4 |
| 20260902171303 | 93 | 257 | 2.0 | 6.0 | 0.00 | 0.00 | 0.00 | 65 | 1014.4 |
| 20260902171211 | 93 | 235 | 2.0 | 6.0 | 0.00 | 0.00 | 0.00 | 64 | 1014.3 |
| 20260902171203 | 93 | 236 | 2.0 | 6.0 | 0.00 | 0.00 | 0.00 | 64 | 1014.3 |
| 20260902171108 | 93 | 184 | 2.0 | 5.0 | 0.00 | 0.00 | 0.00 | 67 | 1014.3 |
| 20260902171000 | 93 | 40 | 2.0 | 5.0 | 0.00 | 0.00 | 0.00 | 67 | 1014.3 |
| 20260902170859 | 93 | 315 | 2.0 | 5.0 | 0.00 | 0.00 | 0.00 | 66 | 1014.3 |
| 20260902170757 | 93 | 24 | 2.0 | 5.0 | 0.00 | 0.00 | 0.00 | 66 | 1014.3 |
| 20260902170705 | 93 | 176 | 2.0 | 5.0 | 0.00 | 0.00 | 0.00 | 66 | 1014.4 |
| 20260902170657 | 93 | 139 | 2.0 | 5.0 | 0.00 | 0.00 | 0.00 | 66 | 1014.4 |
| 20260902170554 | 93 | 340 | 2.0 | 5.0 | 0.00 | 0.00 | 0.00 | 66 | 1014.4 |
| 20260902170454 | 93 | 61 | 2.0 | 5.0 | 0.00 | 0.00 | 0.00 | 66 | 1014.4 |
| 20260902170354 | 93 | 183 | 2.0 | 5.0 | 0.00 | 0.00 | 0.00 | 66 | 1014.4 |
| 20260902170255 | 93 | 214 | 2.0 | 5.0 | 0.00 | 0.00 | 0.00 | 67 | 1014.4 |
| 20260902170202 | 93 | 220 | 2.0 | 5.0 | 0.00 | 0.00 | 0.00 | 67 | 1014.4 |
| 20260902170148 | 93 | 169 | 2.0 | 5.0 | 0.00 | 0.00 | 0.00 | 67 | 1014.4 |
| 20260902170042 | 93 | 214 | 2.0 | 5.0 | 0.00 | 0.00 | 0.00 | 67 | 1014.5 |
| 20260902165942 | 93 | 0 | 2.0 | 5.0 | 0.00 | 0.00 | 0.00 | 67 | 1014.5 |
| 20260902165842 | 93 | 169 | 2.0 | 5.0 | 0.00 | 0.00 | 0.00 | 67 | 1014.5 |
| 20260902165742 | 93 | 324 | 2.0 | 5.0 | 0.00 | 0.00 | 0.00 | 68 | 1014.5 |
| 20260902165659 | 93 | 227 | 2.0 | 5.0 | 0.00 | 0.00 | 0.00 | 68 | 1014.5 |
| 20260902165642 | 93 | 241 | 2.0 | 5.0 | 0.00 | 0.00 | 0.00 | 68 | 1014.5 |
| 20260902165439 | 92 | 200 | 2.0 | 5.0 | 0.00 | 0.00 | 0.00 | 68 | 1014.5 |
| 20260902165337 | 92 | 315 | 2.0 | 5.0 | 0.00 | 0.00 | 0.00 | 68 | 1014.5 |
| 20260902165231 | 92 | 254 | 2.0 | 5.0 | 0.00 | 0.00 | 0.00 | 68 | 1014.5 |
| 20260902165153 | 92 | 230 | 2.0 | 5.0 | 0.00 | 0.00 | 0.00 | 68 | 1014.5 |
| 20260902165131 | 92 | 230 | 2.0 | 6.0 | 0.00 | 0.00 | 0.00 | 68 | 1014.5 |
| 20260902165031 | 92 | 168 | 2.0 | 6.0 | 0.00 | 0.00 | 0.00 | 68 | 1014.5 |
| 20260902164931 | 92 | 221 | 2.0 | 6.0 | 0.00 | 0.00 | 0.00 | 68 | 1014.6 |
| 20260902164912 | 92 | 190 | 2.0 | 8.0 | 0.00 | 0.00 | 0.00 | 69 | 1014.6 |
| 20260902164830 | 92 | 237 | 2.0 | 6.0 | 0.00 | 0.00 | 0.00 | 69 | 1014.6 |
| 20260902164759 | 92 | 233 | 2.0 | 8.0 | 0.00 | 0.00 | 0.00 | 69 | 1014.6 |
| 20260902164630 | 92 | 0 | 2.0 | 8.0 | 0.00 | 0.00 | 0.00 | 69 | 1014.6 |
| 20260902164527 | 92 | 248 | 2.0 | 8.0 | 0.00 | 0.00 | 0.00 | 70 | 1014.6 |
| 20260902164427 | 91 | 348 | 3.0 | 8.0 | 0.00 | 0.00 | 0.00 | 71 | 1014.7 |
| 20260902164327 | 91 | 256 | 3.0 | 8.0 | 0.00 | 0.00 | 0.00 | 71 | 1014.7 |
| 20260902164222 | 91 | 213 | 3.0 | 8.0 | 0.00 | 0.00 | 0.00 | 71 | 1014.7 |
| 20260902164151 | 91 | 263 | 3.0 | 8.0 | 0.00 | 0.00 | 0.00 | 71 | 1014.6 |
| 20260902164122 | 91 | 241 | 3.0 | 8.0 | 0.00 | 0.00 | 0.00 | 71 | 1014.6 |
| 20260902164022 | 91 | 241 | 3.0 | 8.0 | 0.00 | 0.00 | 0.00 | 72 | 1014.6 |
| 20260902163922 | 91 | 246 | 3.0 | 8.0 | 0.00 | 0.00 | 0.00 | 72 | 1014.6 |
| 20260902163822 | 91 | 210 | 3.0 | 8.0 | 0.00 | 0.00 | 0.00 | 72 | 1014.6 |
| 20260902163722 | 91 | 148 | 3.0 | 8.0 | 0.00 | 0.00 | 0.00 | 71 | 1014.6 |
| 20260902163650 | 90 | 253 | 2.0 | 8.0 | 0.00 | 0.00 | 0.00 | 73 | 1014.7 |
| 20260902163622 | 90 | 208 | 2.0 | 6.0 | 0.00 | 0.00 | 0.00 | 73 | 1014.7 |
| 20260902163519 | 90 | 253 | 2.0 | 6.0 | 0.00 | 0.00 | 0.00 | 73 | 1014.7 |
| 20260902163416 | 90 | 357 | 2.0 | 6.0 | 0.00 | 0.00 | 0.00 | 74 | 1014.6 |
| 20260902163313 | 90 | 316 | 2.0 | 6.0 | 0.00 | 0.00 | 0.00 | 74 | 1014.6 |
| 20260902163213 | 90 | 248 | 2.0 | 9.0 | 0.00 | 0.00 | 0.00 | 73 | 1014.7 |
| 20260902163144 | 90 | 304 | 2.0 | 9.0 | 0.00 | 0.00 | 0.00 | 73 | 1014.7 |
| 20260902163110 | 90 | 183 | 2.0 | 9.0 | 0.00 | 0.00 | 0.00 | 73 | 1014.7 |
| 20260902163007 | 89 | 172 | 2.0 | 9.0 | 0.00 | 0.00 | 0.00 | 75 | 1014.7 |
| 20260902162912 | 89 | 229 | 3.0 | 9.0 | 0.00 | 0.00 | 0.00 | 77 | 1014.7 |
| 20260902162907 | 89 | 223 | 2.0 | 9.0 | 0.00 | 0.00 | 0.00 | 75 | 1014.7 |
| 20260902162806 | 89 | 246 | 2.0 | 9.0 | 0.00 | 0.00 | 0.00 | 75 | 1014.7 |
| 20260902162750 | 89 | 209 | 3.0 | 9.0 | 0.00 | 0.00 | 0.00 | 75 | 1014.7 |
| 20260902162604 | 89 | 267 | 3.0 | 9.0 | 0.00 | 0.00 | 0.00 | 77 | 1014.7 |
| 20260902162504 | 89 | 236 | 3.0 | 9.0 | 0.00 | 0.00 | 0.00 | 77 | 1014.7 |
| 20260902162358 | 88 | 247 | 3.0 | 9.0 | 0.00 | 0.00 | 0.00 | 77 | 1014.6 |
| 20260902162252 | 88 | 199 | 3.0 | 8.0 | 0.00 | 0.00 | 0.00 | 78 | 1014.7 |
| 20260902162152 | 88 | 274 | 2.0 | 8.0 | 0.00 | 0.00 | 0.00 | 79 | 1014.7 |
| 20260902162141 | 88 | 256 | 2.0 | 8.0 | 0.00 | 0.00 | 0.00 | 79 | 1014.7 |
| 20260902162051 | 88 | 265 | 2.0 | 8.0 | 0.00 | 0.00 | 0.00 | 78 | 1014.7 |
| 20260902161948 | 88 | 227 | 2.0 | 8.0 | 0.00 | 0.00 | 0.00 | 78 | 1014.7 |
| 20260902161904 | 88 | 242 | 2.0 | 7.0 | 0.00 | 0.00 | 0.00 | 80 | 1014.7 |
| 20260902161843 | 88 | 258 | 2.0 | 8.0 | 0.00 | 0.00 | 0.00 | 78 | 1014.7 |
| 20260902161753 | 88 | 248 | 2.0 | 8.0 | 0.00 | 0.00 | 0.00 | 79 | 1014.7 |
| 20260902161748 | 88 | 242 | 2.0 | 7.0 | 0.00 | 0.00 | 0.00 | 80 | 1014.7 |
| 20260902161537 | 88 | 198 | 2.0 | 7.0 | 0.00 | 0.00 | 0.00 | 80 | 1014.7 |
| 20260902161434 | 88 | 278 | 2.0 | 7.0 | 0.00 | 0.00 | 0.00 | 80 | 1014.7 |
| 20260902161331 | 88 | 259 | 2.0 | 7.0 | 0.00 | 0.00 | 0.00 | 80 | 1014.7 |
| 20260902161231 | 87 | 201 | 2.0 | 7.0 | 0.00 | 0.00 | 0.00 | 81 | 1014.7 |
| 20260902161141 | 87 | 283 | 2.0 | 7.0 | 0.00 | 0.00 | 0.00 | 81 | 1014.8 |
| 20260902161131 | 87 | 312 | 2.0 | 7.0 | 0.00 | 0.00 | 0.00 | 81 | 1014.8 |
| 20260902161028 | 87 | 253 | 2.0 | 7.0 | 0.00 | 0.00 | 0.00 | 81 | 1014.8 |
| 20260902160928 | 87 | 5 | 2.0 | 7.0 | 0.00 | 0.00 | 0.00 | 81 | 1014.8 |
| 20260902160825 | 87 | 218 | 2.0 | 8.0 | 0.00 | 0.00 | 0.00 | 81 | 1014.8 |
| 20260902160725 | 87 | 234 | 2.0 | 8.0 | 0.00 | 0.00 | 0.00 | 81 | 1014.8 |
| 20260902160642 | 87 | 239 | 2.0 | 8.0 | 0.00 | 0.00 | 0.00 | 81 | 1014.8 |
| 20260902160625 | 87 | 259 | 2.0 | 8.0 | 0.00 | 0.00 | 0.00 | 81 | 1014.8 |
| 20260902160525 | 87 | 252 | 2.0 | 8.0 | 0.00 | 0.00 | 0.00 | 81 | 1014.8 |
| 20260902160426 | 87 | 254 | 2.0 | 8.0 | 0.00 | 0.00 | 0.00 | 82 | 1014.8 |
| 20260902160326 | 87 | 221 | 2.0 | 8.0 | 0.00 | 0.00 | 0.00 | 82 | 1014.8 |
| 20260902160225 | 87 | 33 | 2.0 | 8.0 | 0.00 | 0.00 | 0.00 | 82 | 1014.8 |
| 20260902160142 | 87 | 270 | 2.0 | 8.0 | 0.00 | 0.00 | 0.00 | 82 | 1014.8 |
| 20260902160125 | 87 | 259 | 2.0 | 8.0 | 0.00 | 0.00 | 0.00 | 82 | 1014.8 |
| 20260902160022 | 87 | 285 | 2.0 | 8.0 | 0.00 | 0.00 | 0.00 | 82 | 1014.8 |
| 20260902155919 | 87 | 254 | 2.0 | 8.0 | 0.00 | 0.00 | 0.00 | 81 | 1014.8 |
| 20260902155819 | 87 | 243 | 2.0 | 6.0 | 0.00 | 0.00 | 0.00 | 82 | 1014.8 |
| 20260902155719 | 87 | 254 | 2.0 | 7.0 | 0.00 | 0.00 | 0.00 | 81 | 1014.7 |
| 20260902155638 | 87 | 284 | 2.0 | 7.0 | 0.00 | 0.00 | 0.00 | 81 | 1014.7 |
| 20260902155619 | 87 | 274 | 2.0 | 7.0 | 0.00 | 0.00 | 0.00 | 81 | 1014.7 |
| 20260902155519 | 87 | 217 | 2.0 | 7.0 | 0.00 | 0.00 | 0.00 | 81 | 1014.7 |
| 20260902155420 | 87 | 252 | 2.0 | 7.0 | 0.00 | 0.00 | 0.00 | 82 | 1014.7 |
| 20260902155319 | 87 | 255 | 2.0 | 7.0 | 0.00 | 0.00 | 0.00 | 82 | 1014.7 |
| 20260902155219 | 87 | 223 | 3.0 | 7.0 | 0.00 | 0.00 | 0.00 | 82 | 1014.7 |
| 20260902155139 | 87 | 257 | 3.0 | 7.0 | 0.00 | 0.00 | 0.00 | 82 | 1014.7 |
| 20260902155120 | 87 | 266 | 3.0 | 7.0 | 0.00 | 0.00 | 0.00 | 82 | 1014.7 |
| 20260902155015 | 87 | 142 | 3.0 | 7.0 | 0.00 | 0.00 | 0.00 | 82 | 1014.7 |
| 20260902154914 | 87 | 201 | 2.0 | 7.0 | 0.00 | 0.00 | 0.00 | 81 | 1014.7 |
| 20260902154904 | 86 | 241 | 3.0 | 7.0 | 0.00 | 0.00 | 0.00 | 83 | 1014.7 |
| 20260902154811 | 87 | 232 | 3.0 | 7.0 | 0.00 | 0.00 | 0.00 | 82 | 1014.7 |
| 20260902154745 | 87 | 262 | 2.0 | 6.0 | 0.00 | 0.00 | 0.00 | 82 | 1014.7 |
| 20260902154611 | 86 | 232 | 3.0 | 7.0 | 0.00 | 0.00 | 0.00 | 83 | 1014.7 |
| 20260902154511 | 86 | 246 | 3.0 | 7.0 | 0.00 | 0.00 | 0.00 | 83 | 1014.7 |
| 20260902154411 | 86 | 261 | 3.0 | 7.0 | 0.00 | 0.00 | 0.00 | 83 | 1014.7 |
| 20260902154311 | 86 | 260 | 3.0 | 7.0 | 0.00 | 0.00 | 0.00 | 83 | 1014.7 |
| 20260902154210 | 86 | 258 | 3.0 | 7.0 | 0.00 | 0.00 | 0.00 | 83 | 1014.7 |
| 20260902154139 | 86 | 264 | 3.0 | 7.0 | 0.00 | 0.00 | 0.00 | 83 | 1014.7 |
| 20260902154107 | 86 | 268 | 3.0 | 7.0 | 0.00 | 0.00 | 0.00 | 83 | 1014.7 |
| 20260902154008 | 86 | 286 | 3.0 | 7.0 | 0.00 | 0.00 | 0.00 | 83 | 1014.6 |
| 20260902153904 | 86 | 246 | 3.0 | 7.0 | 0.00 | 0.00 | 0.00 | 83 | 1014.6 |
| 20260902153804 | 86 | 242 | 3.0 | 9.0 | 0.00 | 0.00 | 0.00 | 84 | 1014.6 |
| 20260902153702 | 86 | 290 | 3.0 | 9.0 | 0.00 | 0.00 | 0.00 | 83 | 1014.6 |
| 20260902153639 | 86 | 236 | 3.0 | 9.0 | 0.00 | 0.00 | 0.00 | 83 | 1014.6 |
| 20260902153601 | 86 | 237 | 3.0 | 9.0 | 0.00 | 0.00 | 0.00 | 83 | 1014.6 |
| 20260902153501 | 86 | 234 | 3.0 | 9.0 | 0.00 | 0.00 | 0.00 | 83 | 1014.6 |
| 20260902153355 | 86 | 237 | 3.0 | 9.0 | 0.00 | 0.00 | 0.00 | 84 | 1014.6 |
| 20260902153255 | 86 | 46 | 3.0 | 9.0 | 0.00 | 0.00 | 0.00 | 84 | 1014.7 |
| 20260902153155 | 86 | 254 | 3.0 | 9.0 | 0.00 | 0.00 | 0.00 | 84 | 1014.6 |
| 20260902153137 | 86 | 232 | 3.0 | 9.0 | 0.00 | 0.00 | 0.00 | 85 | 1014.7 |
| 20260902153055 | 86 | 239 | 3.0 | 9.0 | 0.00 | 0.00 | 0.00 | 85 | 1014.7 |
| 20260902152953 | 86 | 224 | 3.0 | 9.0 | 0.00 | 0.00 | 0.00 | 85 | 1014.6 |
| 20260902152853 | 86 | 233 | 3.0 | 8.0 | 0.00 | 0.00 | 0.00 | 85 | 1014.6 |
| 20260902152754 | 86 | 277 | 3.0 | 8.0 | 0.00 | 0.00 | 0.00 | 84 | 1014.6 |
| 20260902152654 | 85 | 230 | 3.0 | 8.0 | 0.00 | 0.00 | 0.00 | 85 | 1014.6 |
| 20260902152636 | 85 | 241 | 3.0 | 8.0 | 0.00 | 0.00 | 0.00 | 85 | 1014.6 |
| 20260902152553 | 85 | 242 | 3.0 | 7.0 | 0.00 | 0.00 | 0.00 | 85 | 1014.6 |
| 20260902152454 | 85 | 220 | 3.0 | 7.0 | 0.00 | 0.00 | 0.00 | 85 | 1014.6 |
| 20260902152353 | 85 | 250 | 3.0 | 7.0 | 0.00 | 0.00 | 0.00 | 84 | 1014.6 |
| 20260902152251 | 85 | 264 | 3.0 | 7.0 | 0.00 | 0.00 | 0.00 | 85 | 1014.6 |
| 20260902152150 | 85 | 251 | 3.0 | 7.0 | 0.00 | 0.00 | 0.00 | 85 | 1014.6 |
| 20260902152136 | 85 | 222 | 3.0 | 7.0 | 0.00 | 0.00 | 0.00 | 85 | 1014.6 |
| 20260902152050 | 85 | 297 | 2.0 | 6.0 | 0.00 | 0.00 | 0.00 | 85 | 1014.6 |
| 20260902151947 | 85 | 242 | 2.0 | 6.0 | 0.00 | 0.00 | 0.00 | 85 | 1014.6 |
| 20260902151902 | 85 | 224 | 2.0 | 6.0 | 0.00 | 0.00 | 0.00 | 86 | 1014.6 |
| 20260902151846 | 85 | 242 | 2.0 | 6.0 | 0.00 | 0.00 | 0.00 | 85 | 1014.6 |
| 20260902151748 | 85 | 231 | 2.0 | 6.0 | 0.00 | 0.00 | 0.00 | 86 | 1014.6 |
| 20260902151742 | 85 | 218 | 2.0 | 6.0 | 0.00 | 0.00 | 0.00 | 86 | 1014.6 |
| 20260902151541 | 85 | 225 | 2.0 | 5.0 | 0.00 | 0.00 | 0.00 | 86 | 1014.6 |
| 20260902151438 | 85 | 281 | 2.0 | 6.0 | 0.00 | 0.00 | 0.00 | 86 | 1014.6 |
| 20260902151339 | 85 | 239 | 2.0 | 6.0 | 0.00 | 0.00 | 0.00 | 86 | 1014.6 |
| 20260902151235 | 85 | 244 | 2.0 | 6.0 | 0.00 | 0.00 | 0.00 | 86 | 1014.6 |
| 20260902151140 | 85 | 259 | 2.0 | 6.0 | 0.00 | 0.00 | 0.00 | 86 | 1014.6 |
| 20260902151135 | 85 | 279 | 2.0 | 6.0 | 0.00 | 0.00 | 0.00 | 86 | 1014.6 |
| 20260902151032 | 85 | 280 | 2.0 | 6.0 | 0.00 | 0.00 | 0.00 | 86 | 1014.6 |
| 20260902150931 | 85 | 270 | 2.0 | 6.0 | 0.00 | 0.00 | 0.00 | 86 | 1014.6 |
| 20260902150900 | 85 | 217 | 2.0 | 6.0 | 0.00 | 0.00 | 0.00 | 86 | 1014.5 |
| 20260902150829 | 85 | 257 | 2.0 | 6.0 | 0.00 | 0.00 | 0.00 | 86 | 1014.5 |
| 20260902150742 | 85 | 231 | 2.0 | 6.0 | 0.00 | 0.00 | 0.00 | 86 | 1014.5 |
| 20260902150629 | 85 | 226 | 2.0 | 6.0 | 0.00 | 0.00 | 0.00 | 86 | 1014.5 |
| 20260902150529 | 85 | 225 | 2.0 | 6.0 | 0.00 | 0.00 | 0.00 | 86 | 1014.5 |
| 20260902150429 | 85 | 262 | 2.0 | 6.0 | 0.00 | 0.00 | 0.00 | 85 | 1014.5 |
| 20260902150329 | 85 | 243 | 2.0 | 6.0 | 0.00 | 0.00 | 0.00 | 86 | 1014.5 |
| 20260902150229 | 84 | 232 | 1.0 | 5.0 | 0.00 | 0.00 | 0.00 | 86 | 1014.5 |
| 20260902150137 | 84 | 246 | 1.0 | 4.0 | 0.00 | 0.00 | 0.00 | 86 | 1014.5 |
| 20260902150129 | 84 | 237 | 1.0 | 4.0 | 0.00 | 0.00 | 0.00 | 86 | 1014.5 |
| 20260902150029 | 84 | 248 | 1.0 | 4.0 | 0.00 | 0.00 | 0.00 | 86 | 1014.5 |
| 20260902145929 | 84 | 270 | 1.0 | 4.0 | 0.00 | 0.00 | 0.00 | 87 | 1014.5 |
| 20260902145839 | 84 | 271 | 1.0 | 4.0 | 0.00 | 0.00 | 0.00 | 87 | 1014.5 |
| 20260902145724 | 84 | 254 | 1.0 | 4.0 | 0.00 | 0.00 | 0.00 | 87 | 1014.5 |
| 20260902145634 | 84 | 254 | 1.0 | 4.0 | 0.00 | 0.00 | 0.00 | 87 | 1014.5 |
| 20260902145623 | 84 | 302 | 1.0 | 4.0 | 0.00 | 0.00 | 0.00 | 87 | 1014.5 |
| 20260902145523 | 84 | 0 | 1.0 | 4.0 | 0.00 | 0.00 | 0.00 | 87 | 1014.5 |
| 20260902145423 | 84 | 253 | 1.0 | 4.0 | 0.00 | 0.00 | 0.00 | 87 | 1014.5 |
| 20260902145323 | 84 | 338 | 1.0 | 4.0 | 0.00 | 0.00 | 0.00 | 87 | 1014.5 |
| 20260902145223 | 84 | 326 | 1.0 | 4.0 | 0.00 | 0.00 | 0.00 | 87 | 1014.5 |
| 20260902145134 | 83 | 279 | 1.0 | 4.0 | 0.00 | 0.00 | 0.00 | 87 | 1014.5 |
| 20260902145123 | 83 | 286 | 1.0 | 4.0 | 0.00 | 0.00 | 0.00 | 87 | 1014.5 |
| 20260902145023 | 83 | 215 | 1.0 | 4.0 | 0.00 | 0.00 | 0.00 | 87 | 1014.5 |
| 20260902144923 | 83 | 231 | 1.0 | 4.0 | 0.00 | 0.00 | 0.00 | 87 | 1014.5 |
| 20260902144823 | 83 | 257 | 1.0 | 4.0 | 0.00 | 0.00 | 0.00 | 87 | 1014.5 |
| 20260902144723 | 83 | 227 | 1.0 | 4.0 | 0.00 | 0.00 | 0.00 | 87 | 1014.5 |
| 20260902144629 | 83 | 340 | 1.0 | 4.0 | 0.00 | 0.00 | 0.00 | 87 | 1014.5 |
| 20260902144623 | 83 | 296 | 1.0 | 4.0 | 0.00 | 0.00 | 0.00 | 87 | 1014.5 |
| 20260902144521 | 83 | 255 | 1.0 | 4.0 | 0.00 | 0.00 | 0.00 | 87 | 1014.5 |
| 20260902144421 | 83 | 268 | 1.0 | 4.0 | 0.00 | 0.00 | 0.00 | 87 | 1014.5 |
| 20260902144320 | 83 | 186 | 1.0 | 3.0 | 0.00 | 0.00 | 0.00 | 87 | 1014.5 |
| 20260902144221 | 83 | 239 | 1.0 | 3.0 | 0.00 | 0.00 | 0.00 | 87 | 1014.5 |
| 20260902144128 | 83 | 347 | 1.0 | 3.0 | 0.00 | 0.00 | 0.00 | 87 | 1014.5 |
| 20260902144120 | 83 | 254 | 1.0 | 3.0 | 0.00 | 0.00 | 0.00 | 87 | 1014.5 |
| 20260902144020 | 83 | 275 | 1.0 | 3.0 | 0.00 | 0.00 | 0.00 | 87 | 1014.5 |
| 20260902143920 | 83 | 289 | 1.0 | 3.0 | 0.00 | 0.00 | 0.00 | 87 | 1014.4 |
| 20260902143817 | 83 | 301 | 1.0 | 3.0 | 0.00 | 0.00 | 0.00 | 87 | 1014.4 |
| 20260902143717 | 83 | 260 | 1.0 | 3.0 | 0.00 | 0.00 | 0.00 | 87 | 1014.4 |
| 20260902143628 | 83 | 216 | 1.0 | 3.0 | 0.00 | 0.00 | 0.00 | 87 | 1014.5 |
| 20260902143615 | 83 | 259 | 1.0 | 3.0 | 0.00 | 0.00 | 0.00 | 87 | 1014.5 |
| 20260902143514 | 83 | 216 | 1.0 | 3.0 | 0.00 | 0.00 | 0.00 | 87 | 1014.5 |
| 20260902143414 | 83 | 240 | 1.0 | 3.0 | 0.00 | 0.00 | 0.00 | 87 | 1014.5 |
| 20260902143312 | 83 | 245 | 1.0 | 3.0 | 0.00 | 0.00 | 0.00 | 87 | 1014.5 |
| 20260902143212 | 83 | 242 | 1.0 | 2.0 | 0.00 | 0.00 | 0.00 | 88 | 1014.5 |
| 20260902143128 | 83 | 234 | 0.0 | 2.0 | 0.00 | 0.00 | 0.00 | 88 | 1014.5 |
| 20260902143112 | 83 | 18 | 0.0 | 2.0 | 0.00 | 0.00 | 0.00 | 88 | 1014.5 |
| 20260902143012 | 82 | 231 | 0.0 | 2.0 | 0.00 | 0.00 | 0.00 | 88 | 1014.5 |
| 20260902142912 | 82 | 195 | 0.0 | 2.0 | 0.00 | 0.00 | 0.00 | 88 | 1014.5 |
| 20260902142812 | 82 | 268 | 1.0 | 3.0 | 0.00 | 0.00 | 0.00 | 88 | 1014.5 |
| 20260902142711 | 82 | 217 | 1.0 | 3.0 | 0.00 | 0.00 | 0.00 | 88 | 1014.5 |
| 20260902142626 | 82 | 261 | 1.0 | 3.0 | 0.00 | 0.00 | 0.00 | 88 | 1014.5 |
| 20260902142611 | 82 | 0 | 1.0 | 3.0 | 0.00 | 0.00 | 0.00 | 88 | 1014.5 |
| 20260902142511 | 82 | 321 | 1.0 | 3.0 | 0.00 | 0.00 | 0.00 | 87 | 1014.5 |
| 20260902142405 | 82 | 267 | 1.0 | 3.0 | 0.00 | 0.00 | 0.00 | 87 | 1014.5 |
| 20260902142306 | 82 | 274 | 1.0 | 3.0 | 0.00 | 0.00 | 0.00 | 87 | 1014.5 |
| 20260902142206 | 82 | 0 | 1.0 | 3.0 | 0.00 | 0.00 | 0.00 | 87 | 1014.5 |
| 20260902142126 | 82 | 247 | 1.0 | 3.0 | 0.00 | 0.00 | 0.00 | 87 | 1014.5 |
| 20260902142104 | 82 | 224 | 1.0 | 3.0 | 0.00 | 0.00 | 0.00 | 87 | 1014.5 |
| 20260902141959 | 82 | 0 | 1.0 | 3.0 | 0.00 | 0.00 | 0.00 | 88 | 1014.5 |
| 20260902141857 | 82 | 259 | 1.0 | 3.0 | 0.00 | 0.00 | 0.00 | 88 | 1014.5 |
| 20260902141755 | 82 | 0 | 1.0 | 2.0 | 0.00 | 0.00 | 0.00 | 87 | 1014.5 |
| 20260902141654 | 82 | 44 | 1.0 | 2.0 | 0.00 | 0.00 | 0.00 | 87 | 1014.5 |
| 20260902141622 | 82 | 330 | 1.0 | 2.0 | 0.00 | 0.00 | 0.00 | 87 | 1014.5 |
| 20260902141554 | 82 | 278 | 1.0 | 2.0 | 0.00 | 0.00 | 0.00 | 87 | 1014.5 |
| 20260902141454 | 82 | 275 | 0.0 | 2.0 | 0.00 | 0.00 | 0.00 | 87 | 1014.5 |
| 20260902141354 | 82 | 278 | 0.0 | 2.0 | 0.00 | 0.00 | 0.00 | 87 | 1014.5 |
| 20260902141342 | 82 | 0 | 0.0 | 2.0 | 0.00 | 0.00 | 0.00 | 88 | 1014.5 |
| 20260902141255 | 82 | 22 | 0.0 | 2.0 | 0.00 | 0.00 | 0.00 | 87 | 1014.4 |
| 20260902141233 | 82 | 185 | 0.0 | 2.0 | 0.00 | 0.00 | 0.00 | 88 | 1014.5 |
| 20260902141052 | 82 | 298 | 0.0 | 2.0 | 0.00 | 0.00 | 0.00 | 88 | 1014.4 |
| 20260902140952 | 82 | 272 | 0.0 | 2.0 | 0.00 | 0.00 | 0.00 | 88 | 1014.4 |
| 20260902140842 | 82 | 359 | 0.0 | 2.0 | 0.00 | 0.00 | 0.00 | 88 | 1014.4 |
| 20260902140739 | 82 | 225 | 0.0 | 2.0 | 0.00 | 0.00 | 0.00 | 88 | 1014.4 |
| 20260902140638 | 82 | 110 | 0.0 | 2.0 | 0.00 | 0.00 | 0.00 | 88 | 1014.4 |
| 20260902140620 | 82 | 14 | 0.0 | 2.0 | 0.00 | 0.00 | 0.00 | 88 | 1014.4 |
| 20260902140538 | 81 | 0 | 0.0 | 2.0 | 0.00 | 0.00 | 0.00 | 88 | 1014.5 |
| 20260902140438 | 81 | 266 | 0.0 | 2.0 | 0.00 | 0.00 | 0.00 | 88 | 1014.5 |
| 20260902140340 | 81 | 239 | 0.0 | 2.0 | 0.00 | 0.00 | 0.00 | 88 | 1014.5 |
| 20260902140334 | 81 | 274 | 0.0 | 1.0 | 0.00 | 0.00 | 0.00 | 88 | 1014.5 |
| 20260902140230 | 81 | 291 | 0.0 | 2.0 | 0.00 | 0.00 | 0.00 | 88 | 1014.5 |
| 20260902140222 | 81 | 0 | 0.0 | 1.0 | 0.00 | 0.00 | 0.00 | 88 | 1014.5 |
| 20260902140030 | 81 | 32 | 0.0 | 1.0 | 0.00 | 0.00 | 0.00 | 88 | 1014.5 |
| 20260902135930 | 81 | 0 | 0.0 | 1.0 | 0.00 | 0.00 | 0.00 | 88 | 1014.5 |
| 20260902135830 | 81 | 2 | 0.0 | 1.0 | 0.00 | 0.00 | 0.00 | 88 | 1014.5 |
| 20260902135727 | 81 | 0 | 0.0 | 1.0 | 0.00 | 0.00 | 0.00 | 89 | 1014.5 |
| 20260902135624 | 81 | 81 | 0.0 | 1.0 | 0.00 | 0.00 | 0.00 | 89 | 1014.5 |
| 20260902135611 | 81 | 35 | 0.0 | 1.0 | 0.00 | 0.00 | 0.00 | 89 | 1014.5 |
| 20260902135521 | 81 | 172 | 0.0 | 2.0 | 0.00 | 0.00 | 0.00 | 89 | 1014.5 |
| 20260902135418 | 81 | 0 | 0.0 | 2.0 | 0.00 | 0.00 | 0.00 | 90 | 1014.5 |
| 20260902135318 | 81 | 343 | 0.0 | 2.0 | 0.00 | 0.00 | 0.00 | 90 | 1014.6 |
| 20260902135218 | 80 | 0 | 0.0 | 2.0 | 0.00 | 0.00 | 0.00 | 89 | 1014.5 |
| 20260902135112 | 80 | 336 | 0.0 | 2.0 | 0.00 | 0.00 | 0.00 | 89 | 1014.5 |
| 20260902135015 | 80 | 330 | 0.0 | 2.0 | 0.00 | 0.00 | 0.00 | 89 | 1014.5 |
| 20260902134915 | 80 | 314 | 0.0 | 2.0 | 0.00 | 0.00 | 0.00 | 89 | 1014.5 |
| 20260902134809 | 80 | 283 | 0.0 | 2.0 | 0.00 | 0.00 | 0.00 | 89 | 1014.5 |
| 20260902134706 | 80 | 176 | 0.0 | 2.0 | 0.00 | 0.00 | 0.00 | 90 | 1014.3 |
| 20260902134611 | 80 | 321 | 0.0 | 2.0 | 0.00 | 0.00 | 0.00 | 90 | 1014.3 |
| 20260902134601 | 80 | 310 | 0.0 | 2.0 | 0.00 | 0.00 | 0.00 | 90 | 1014.3 |
| 20260902134448 | 80 | 350 | 0.0 | 2.0 | 0.00 | 0.00 | 0.00 | 90 | 1014.3 |
| 20260902134321 | 80 | 0 | 0.0 | 2.0 | 0.00 | 0.00 | 0.00 | 90 | 1014.3 |
| 20260902134221 | 80 | 309 | 0.0 | 2.0 | 0.00 | 0.00 | 0.00 | 90 | 1014.2 |
| 20260902134112 | 80 | 278 | 0.0 | 2.0 | 0.00 | 0.00 | 0.00 | 90 | 1014.2 |
| 20260902133954 | 80 | 255 | 0.0 | 2.0 | 0.00 | 0.00 | 0.00 | 90 | 1014.2 |
| 20260902133848 | 80 | 246 | 0.0 | 2.0 | 0.00 | 0.00 | 0.00 | 90 | 1014.2 |
| 20260902133740 | 80 | 5 | 0.0 | 2.0 | 0.00 | 0.00 | 0.00 | 90 | 1014.2 |
| 20260902133633 | 80 | 302 | 0.0 | 2.0 | 0.00 | 0.00 | 0.00 | 91 | 1014.2 |
| 20260902133559 | 80 | 0 | 0.0 | 2.0 | 0.00 | 0.00 | 0.00 | 91 | 1014.2 |
| 20260902133542 | 79 | 352 | 0.0 | 1.0 | 0.00 | 0.00 | 0.00 | 92 | 1014.2 |
| 20260902133530 | 80 | 152 | 0.0 | 2.0 | 0.00 | 0.00 | 0.00 | 91 | 1014.2 |
| 20260902133431 | 79 | 0 | 0.0 | 2.0 | 0.00 | 0.00 | 0.00 | 92 | 1014.2 |
| 20260902133423 | 79 | 275 | 0.0 | 2.0 | 0.00 | 0.00 | 0.00 | 92 | 1014.2 |
| 20260902133227 | 79 | 112 | 0.0 | 1.0 | 0.00 | 0.00 | 0.00 | 92 | 1014.2 |
| 20260902133202 | 79 | 304 | 0.0 | 1.0 | 0.00 | 0.00 | 0.00 | 92 | 1014.2 |
| 20260902133018 | 79 | 0 | 0.0 | 1.0 | 0.00 | 0.00 | 0.00 | 92 | 1014.2 |
| 20260902132915 | 79 | 281 | 0.0 | 1.0 | 0.00 | 0.00 | 0.00 | 92 | 1014.2 |
| 20260902132815 | 79 | 246 | 0.0 | 1.0 | 0.00 | 0.00 | 0.00 | 92 | 1014.2 |
| 20260902132715 | 79 | 0 | 0.0 | 1.0 | 0.00 | 0.00 | 0.00 | 92 | 1014.2 |
| 20260902132616 | 79 | 0 | 0.0 | 1.0 | 0.00 | 0.00 | 0.00 | 92 | 1014.2 |
| 20260902132554 | 79 | 303 | 0.0 | 1.0 | 0.00 | 0.00 | 0.00 | 92 | 1014.2 |
| 20260902132515 | 79 | 274 | 0.0 | 1.0 | 0.00 | 0.00 | 0.00 | 92 | 1014.2 |
| 20260902132415 | 79 | 6 | 0.0 | 2.0 | 0.00 | 0.00 | 0.00 | 92 | 1014.2 |
| 20260902132315 | 79 | 0 | 0.0 | 2.0 | 0.00 | 0.00 | 0.00 | 92 | 1014.2 |
| 20260902132210 | 79 | 0 | 0.0 | 2.0 | 0.00 | 0.00 | 0.00 | 92 | 1014.1 |
| 20260902132110 | 79 | 290 | 0.0 | 2.0 | 0.00 | 0.00 | 0.00 | 92 | 1014.1 |
| 20260902132055 | 79 | 0 | 0.0 | 2.0 | 0.00 | 0.00 | 0.00 | 92 | 1014.1 |
| 20260902132009 | 79 | 7 | 0.0 | 2.0 | 0.00 | 0.00 | 0.00 | 92 | 1014.1 |
| 20260902131902 | 79 | 296 | 0.0 | 2.0 | 0.00 | 0.00 | 0.00 | 92 | 1014.1 |
| 20260902131758 | 79 | 187 | 0.0 | 2.0 | 0.00 | 0.00 | 0.00 | 92 | 1014.1 |
| 20260902131658 | 78 | 260 | 0.0 | 2.0 | 0.00 | 0.00 | 0.00 | 92 | 1014.1 |
| 20260902131555 | 78 | 254 | 0.0 | 2.0 | 0.00 | 0.00 | 0.00 | 92 | 1014.1 |
| 20260902131427 | 78 | 0 | 0.0 | 1.0 | 0.00 | 0.00 | 0.00 | 93 | 1014.2 |
| 20260902131322 | 78 | 0 | 0.0 | 1.0 | 0.00 | 0.00 | 0.00 | 93 | 1014.2 |
| 20260902131221 | 78 | 0 | 0.0 | 1.0 | 0.00 | 0.00 | 0.00 | 93 | 1014.2 |
| 20260902131118 | 78 | 0 | 0.0 | 1.0 | 0.00 | 0.00 | 0.00 | 93 | 1014.2 |
| 20260902131053 | 78 | 351 | 0.0 | 1.0 | 0.00 | 0.00 | 0.00 | 93 | 1014.2 |
| 20260902131018 | 78 | 0 | 0.0 | 1.0 | 0.00 | 0.00 | 0.00 | 93 | 1014.2 |
| 20260902130918 | 78 | 0 | 0.0 | 1.0 | 0.00 | 0.00 | 0.00 | 93 | 1014.2 |
| 20260902130818 | 78 | 48 | 0.0 | 1.0 | 0.00 | 0.00 | 0.00 | 93 | 1014.2 |
| 20260902130719 | 78 | 0 | 0.0 | 1.0 | 0.00 | 0.00 | 0.00 | 93 | 1014.2 |
| 20260902130619 | 78 | 0 | 0.0 | 1.0 | 0.00 | 0.00 | 0.00 | 93 | 1014.2 |
| 20260902130553 | 78 | 0 | 0.0 | 1.0 | 0.00 | 0.00 | 0.00 | 93 | 1014.2 |
| 20260902130516 | 78 | 302 | 0.0 | 1.0 | 0.00 | 0.00 | 0.00 | 93 | 1014.2 |
| 20260902130416 | 78 | 0 | 0.0 | 1.0 | 0.00 | 0.00 | 0.00 | 93 | 1014.2 |
| 20260902130317 | 78 | 72 | 0.0 | 1.0 | 0.00 | 0.00 | 0.00 | 94 | 1014.2 |
| 20260902130310 | 78 | 0 | 0.0 | 1.0 | 0.00 | 0.00 | 0.00 | 93 | 1014.2 |
| 20260902130210 | 78 | 0 | 0.0 | 1.0 | 0.00 | 0.00 | 0.00 | 94 | 1014.2 |
| 20260902130156 | 78 | 0 | 0.0 | 1.0 | 0.00 | 0.00 | 0.00 | 94 | 1014.2 |
| 20260902130006 | 78 | 31 | 0.0 | 1.0 | 0.00 | 0.00 | 0.00 | 94 | 1014.2 |
| 20260902125901 | 78 | 0 | 0.0 | 1.0 | 0.00 | 0.00 | 0.00 | 94 | 1014.1 |
| 20260902125816 | 78 | 0 | 0.0 | 1.0 | 0.00 | 0.00 | 0.00 | 94 | 1014.1 |
| 20260902125800 | 78 | 0 | 0.0 | 1.0 | 0.00 | 0.00 | 0.00 | 94 | 1014.1 |
| 20260902125701 | 78 | 0 | 0.0 | 1.0 | 0.00 | 0.00 | 0.00 | 94 | 1014.1 |
| 20260902125656 | 78 | 0 | 0.0 | 1.0 | 0.00 | 0.00 | 0.00 | 94 | 1014.1 |
| 20260902125456 | 78 | 165 | 0.0 | 1.0 | 0.00 | 0.00 | 0.00 | 94 | 1014.1 |
| 20260902125356 | 78 | 52 | 0.0 | 1.0 | 0.00 | 0.00 | 0.00 | 94 | 1014.1 |
| 20260902125256 | 78 | 46 | 0.0 | 1.0 | 0.00 | 0.00 | 0.00 | 94 | 1014.1 |
| 20260902125156 | 78 | 0 | 0.0 | 1.0 | 0.00 | 0.00 | 0.00 | 94 | 1014.1 |
| 20260902125048 | 78 | 60 | 0.0 | 1.0 | 0.00 | 0.00 | 0.00 | 94 | 1014.0 |
| 20260902124951 | 78 | 0 | 0.0 | 1.0 | 0.00 | 0.00 | 0.00 | 94 | 1014.0 |
| 20260902124854 | 78 | 0 | 0.0 | 1.0 | 0.00 | 0.00 | 0.00 | 94 | 1014.0 |
| 20260902124753 | 78 | 0 | 0.0 | 1.0 | 0.00 | 0.00 | 0.00 | 94 | 1014.0 |
| 20260902124651 | 78 | 339 | 0.0 | 1.0 | 0.00 | 0.00 | 0.00 | 94 | 1014.0 |
| 20260902124549 | 78 | 0 | 0.0 | 1.0 | 0.00 | 0.00 | 0.00 | 94 | 1014.0 |
| 20260902124446 | 78 | 0 | 0.0 | 1.0 | 0.00 | 0.00 | 0.00 | 94 | 1014.0 |
| 20260902124343 | 78 | 0 | 0.0 | 1.0 | 0.00 | 0.00 | 0.00 | 94 | 1014.0 |
| 20260902124243 | 78 | 324 | 0.0 | 1.0 | 0.00 | 0.00 | 0.00 | 94 | 1014.0 |
| 20260902124144 | 78 | 8 | 0.0 | 1.0 | 0.00 | 0.00 | 0.00 | 94 | 1014.0 |
| 20260902124044 | 78 | 55 | 0.0 | 1.0 | 0.00 | 0.00 | 0.00 | 94 | 1013.8 |
| 20260902123944 | 78 | 139 | 0.0 | 1.0 | 0.00 | 0.00 | 0.00 | 94 | 1013.8 |
| 20260902123843 | 78 | 195 | 0.0 | 2.0 | 0.00 | 0.00 | 0.00 | 94 | 1013.8 |
| 20260902123743 | 78 | 339 | 0.0 | 2.0 | 0.00 | 0.00 | 0.00 | 94 | 1013.8 |
| 20260902123643 | 78 | 0 | 0.0 | 2.0 | 0.00 | 0.00 | 0.00 | 94 | 1013.8 |
| 20260902123549 | 78 | 345 | 0.0 | 2.0 | 0.00 | 0.00 | 0.00 | 94 | 1013.8 |
| 20260902123540 | 78 | 303 | 0.0 | 2.0 | 0.00 | 0.00 | 0.00 | 94 | 1013.8 |
| 20260902123440 | 78 | 327 | 0.0 | 2.0 | 0.00 | 0.00 | 0.00 | 94 | 1013.8 |
| 20260902123337 | 78 | 0 | 0.0 | 2.0 | 0.00 | 0.00 | 0.00 | 94 | 1013.8 |
| 20260902123234 | 78 | 0 | 0.0 | 2.0 | 0.00 | 0.00 | 0.00 | 94 | 1013.8 |
| 20260902123135 | 78 | 107 | 0.0 | 2.0 | 0.00 | 0.00 | 0.00 | 94 | 1013.8 |
| 20260902123048 | 78 | 73 | 0.0 | 2.0 | 0.00 | 0.00 | 0.00 | 94 | 1013.7 |
| 20260902123034 | 78 | 65 | 0.0 | 2.0 | 0.00 | 0.00 | 0.00 | 94 | 1013.7 |
| 20260902122935 | 78 | 99 | 0.0 | 2.0 | 0.00 | 0.00 | 0.00 | 94 | 1013.7 |
| 20260902122828 | 78 | 71 | 0.0 | 2.0 | 0.00 | 0.00 | 0.00 | 94 | 1013.7 |
| 20260902122809 | 78 | 0 | 0.0 | 1.0 | 0.00 | 0.00 | 0.00 | 95 | 1013.6 |
| 20260902122728 | 78 | 0 | 0.0 | 1.0 | 0.00 | 0.00 | 0.00 | 94 | 1013.7 |
| 20260902122653 | 78 | 0 | 0.0 | 1.0 | 0.00 | 0.00 | 0.00 | 94 | 1013.7 |
| 20260902122525 | 78 | 0 | 0.0 | 1.0 | 0.00 | 0.00 | 0.00 | 95 | 1013.6 |
| 20260902122425 | 78 | 0 | 0.0 | 1.0 | 0.00 | 0.00 | 0.00 | 95 | 1013.6 |
| 20260902122325 | 78 | 0 | 0.0 | 1.0 | 0.00 | 0.00 | 0.00 | 95 | 1013.6 |
| 20260902122225 | 78 | 0 | 0.0 | 2.0 | 0.00 | 0.00 | 0.00 | 95 | 1013.6 |
| 20260902122126 | 78 | 44 | 0.0 | 2.0 | 0.00 | 0.00 | 0.00 | 95 | 1013.5 |
| 20260902122045 | 78 | 0 | 0.0 | 2.0 | 0.00 | 0.00 | 0.00 | 95 | 1013.5 |
| 20260902122025 | 78 | 116 | 0.0 | 2.0 | 0.00 | 0.00 | 0.00 | 95 | 1013.5 |
| 20260902121925 | 78 | 0 | 0.0 | 2.0 | 0.00 | 0.00 | 0.00 | 95 | 1013.5 |
| 20260902121825 | 78 | 0 | 0.0 | 2.0 | 0.00 | 0.00 | 0.00 | 95 | 1013.5 |
| 20260902121725 | 78 | 322 | 0.0 | 2.0 | 0.00 | 0.00 | 0.00 | 95 | 1013.5 |
| 20260902121626 | 78 | 0 | 0.0 | 2.0 | 0.00 | 0.00 | 0.00 | 95 | 1013.4 |
| 20260902121543 | 78 | 27 | 0.0 | 2.0 | 0.00 | 0.00 | 0.00 | 95 | 1013.3 |
| 20260902121525 | 78 | 0 | 0.0 | 2.0 | 0.00 | 0.00 | 0.00 | 95 | 1013.3 |
| 20260902121425 | 78 | 26 | 0.0 | 2.0 | 0.00 | 0.00 | 0.00 | 95 | 1013.3 |
| 20260902121323 | 78 | 220 | 0.0 | 2.0 | 0.00 | 0.00 | 0.00 | 95 | 1013.3 |
| 20260902121220 | 78 | 0 | 0.0 | 1.0 | 0.00 | 0.00 | 0.00 | 96 | 1013.3 |
| 20260902121117 | 78 | 0 | 0.0 | 1.0 | 0.00 | 0.00 | 0.00 | 96 | 1013.3 |
| 20260902121017 | 78 | 0 | 0.0 | 1.0 | 0.00 | 0.00 | 0.00 | 96 | 1013.3 |
| 20260902120914 | 78 | 0 | 0.0 | 2.0 | 0.00 | 0.00 | 0.00 | 96 | 1013.3 |
| 20260902120813 | 78 | 0 | 0.0 | 2.0 | 0.00 | 0.00 | 0.00 | 96 | 1013.3 |
| 20260902120713 | 78 | 176 | 0.0 | 2.0 | 0.00 | 0.00 | 0.00 | 96 | 1013.3 |
| 20260902120610 | 78 | 0 | 0.0 | 2.0 | 0.00 | 0.00 | 0.00 | 96 | 1013.3 |
| 20260902120540 | 78 | 295 | 0.0 | 2.0 | 0.00 | 0.00 | 0.00 | 96 | 1013.3 |
| 20260902120507 | 78 | 0 | 0.0 | 2.0 | 0.00 | 0.00 | 0.00 | 96 | 1013.3 |
| 20260902120407 | 78 | 0 | 0.0 | 2.0 | 0.00 | 0.00 | 0.00 | 96 | 1013.3 |
| 20260902120305 | 78 | 210 | 0.0 | 2.0 | 0.00 | 0.00 | 0.00 | 96 | 1013.2 |
| 20260902120201 | 78 | 0 | 0.0 | 2.0 | 0.00 | 0.00 | 0.00 | 96 | 1013.2 |
| 20260902120057 | 78 | 0 | 0.0 | 2.0 | 0.00 | 0.00 | 0.00 | 96 | 1013.3 |
| 20260902120040 | 78 | 323 | 0.0 | 2.0 | 0.00 | 0.00 | 0.00 | 96 | 1013.3 |
| 20260902115957 | 78 | 358 | 0.0 | 2.0 | 0.00 | 0.00 | 0.00 | 96 | 1013.3 |
| 20260902115856 | 79 | 0 | 0.0 | 2.0 | 0.00 | 0.00 | 0.00 | 96 | 1013.3 |
| 20260902115756 | 79 | 282 | 0.0 | 2.0 | 0.00 | 0.00 | 0.00 | 97 | 1013.3 |
| 20260902115657 | 79 | 0 | 0.0 | 2.0 | 0.00 | 0.00 | 0.00 | 97 | 1013.3 |
| 20260902115557 | 79 | 0 | 0.0 | 2.0 | 0.00 | 0.00 | 0.00 | 97 | 1013.3 |
| 20260902115540 | 79 | 47 | 0.0 | 2.0 | 0.00 | 0.00 | 0.00 | 97 | 1013.3 |
| 20260902115456 | 79 | 0 | 0.0 | 2.0 | 0.00 | 0.00 | 0.00 | 97 | 1013.3 |
| 20260902115356 | 79 | 0 | 0.0 | 2.0 | 0.00 | 0.00 | 0.00 | 97 | 1013.3 |
| 20260902115253 | 79 | 164 | 0.0 | 2.0 | 0.00 | 0.00 | 0.00 | 97 | 1013.3 |
| 20260902115147 | 79 | 275 | 0.0 | 2.0 | 0.00 | 0.00 | 0.00 | 97 | 1013.3 |
| 20260902115034 | 79 | 0 | 0.0 | 2.0 | 0.00 | 0.00 | 0.00 | 97 | 1013.3 |
| 20260902114944 | 79 | 244 | 0.0 | 2.0 | 0.00 | 0.00 | 0.00 | 97 | 1013.3 |
| 20260902114844 | 79 | 0 | 0.0 | 2.0 | 0.00 | 0.00 | 0.00 | 98 | 1013.3 |
| 20260902114741 | 79 | 322 | 0.0 | 2.0 | 0.00 | 0.00 | 0.00 | 98 | 1013.3 |
| 20260902114635 | 79 | 259 | 0.0 | 2.0 | 0.00 | 0.00 | 0.00 | 98 | 1013.3 |
| 20260902114532 | 79 | 0 | 0.0 | 2.0 | 0.00 | 0.00 | 0.00 | 98 | 1013.3 |
| 20260902114433 | 79 | 246 | 1.0 | 2.0 | 0.00 | 0.00 | 0.00 | 98 | 1013.3 |
| 20260902114333 | 79 | 294 | 0.0 | 2.0 | 0.00 | 0.00 | 0.00 | 98 | 1013.3 |
| 20260902114232 | 79 | 0 | 0.0 | 2.0 | 0.00 | 0.00 | 0.00 | 98 | 1013.3 |
| 20260902114132 | 79 | 304 | 1.0 | 3.0 | 0.00 | 0.00 | 0.00 | 98 | 1013.3 |
| 20260902114032 | 79 | 277 | 0.0 | 3.0 | 0.00 | 0.00 | 0.00 | 98 | 1013.3 |
| 20260902113926 | 79 | 266 | 1.0 | 3.0 | 0.00 | 0.00 | 0.00 | 98 | 1013.3 |
| 20260902113826 | 79 | 287 | 0.0 | 3.0 | 0.00 | 0.00 | 0.00 | 98 | 1013.3 |
| 20260902113726 | 79 | 186 | 0.0 | 3.0 | 0.00 | 0.00 | 0.00 | 99 | 1013.3 |
| 20260902113626 | 79 | 350 | 0.0 | 3.0 | 0.00 | 0.00 | 0.00 | 99 | 1013.3 |
| 20260902113531 | 79 | 189 | 0.0 | 3.0 | 0.00 | 0.00 | 0.00 | 99 | 1013.3 |
| 20260902113526 | 79 | 224 | 0.0 | 3.0 | 0.00 | 0.00 | 0.00 | 99 | 1013.3 |
| 20260902113426 | 79 | 235 | 0.0 | 3.0 | 0.00 | 0.00 | 0.00 | 99 | 1013.3 |
| 20260902113326 | 79 | 120 | 0.0 | 3.0 | 0.00 | 0.00 | 0.00 | 99 | 1013.3 |
| 20260902113224 | 79 | 181 | 0.0 | 3.0 | 0.00 | 0.00 | 0.00 | 99 | 1013.3 |
| 20260902113124 | 79 | 255 | 0.0 | 3.0 | 0.00 | 0.00 | 0.00 | 99 | 1013.3 |
| 20260902113028 | 79 | 59 | 0.0 | 3.0 | 0.00 | 0.00 | 0.00 | 99 | 1013.3 |
| 20260902113024 | 79 | 34 | 0.0 | 3.0 | 0.00 | 0.00 | 0.00 | 99 | 1013.3 |
| 20260902112924 | 79 | 309 | 0.0 | 3.0 | 0.00 | 0.00 | 0.00 | 99 | 1013.4 |
| 20260902112823 | 79 | 0 | 0.0 | 3.0 | 0.00 | 0.00 | 0.00 | 99 | 1013.4 |
| 20260902112723 | 79 | 15 | 0.0 | 3.0 | 0.00 | 0.00 | 0.00 | 99 | 1013.4 |
| 20260902112621 | 79 | 36 | 0.0 | 3.0 | 0.00 | 0.00 | 0.00 | 99 | 1013.4 |
| 20260902112528 | 79 | 138 | 0.0 | 3.0 | 0.00 | 0.00 | 0.00 | 99 | 1013.4 |
| 20260902112515 | 79 | 0 | 0.0 | 3.0 | 0.00 | 0.00 | 0.00 | 99 | 1013.4 |
| 20260902112414 | 79 | 0 | 0.0 | 3.0 | 0.00 | 0.00 | 0.00 | 99 | 1013.4 |
| 20260902112314 | 79 | 0 | 0.0 | 3.0 | 0.00 | 0.00 | 0.00 | 99 | 1013.4 |
| 20260902112214 | 79 | 273 | 0.0 | 3.0 | 0.00 | 0.00 | 0.00 | 99 | 1013.4 |
| 20260902112115 | 79 | 225 | 0.0 | 1.0 | 0.00 | 0.00 | 0.00 | 99 | 1013.4 |
| 20260902112029 | 79 | 266 | 0.0 | 1.0 | 0.00 | 0.00 | 0.00 | 99 | 1013.4 |
| 20260902112014 | 79 | 0 | 0.0 | 1.0 | 0.00 | 0.00 | 0.00 | 99 | 1013.4 |
| 20260902111915 | 79 | 0 | 0.0 | 1.0 | 0.00 | 0.00 | 0.00 | 98 | 1013.4 |
| 20260902111814 | 79 | 0 | 0.0 | 1.0 | 0.00 | 0.00 | 0.00 | 98 | 1013.4 |
| 20260902111752 | 79 | 0 | 0.0 | 1.0 | 0.00 | 0.00 | 0.00 | 98 | 1013.3 |
| 20260902111714 | 79 | 31 | 0.0 | 1.0 | 0.00 | 0.00 | 0.00 | 98 | 1013.4 |
| 20260902111633 | 79 | 0 | 0.0 | 1.0 | 0.00 | 0.00 | 0.00 | 98 | 1013.4 |
| 20260902111512 | 79 | 0 | 0.0 | 1.0 | 0.00 | 0.00 | 0.00 | 98 | 1013.3 |
| 20260902111409 | 79 | 0 | 0.0 | 1.0 | 0.00 | 0.00 | 0.00 | 99 | 1013.3 |
| 20260902111309 | 79 | 0 | 0.0 | 2.0 | 0.00 | 0.00 | 0.00 | 98 | 1013.2 |
| 20260902111205 | 79 | 0 | 0.0 | 2.0 | 0.00 | 0.00 | 0.00 | 98 | 1013.2 |
| 20260902111105 | 79 | 0 | 0.0 | 2.0 | 0.00 | 0.00 | 0.00 | 98 | 1013.2 |
| 20260902111023 | 79 | 292 | 0.0 | 2.0 | 0.00 | 0.00 | 0.00 | 98 | 1013.2 |
| 20260902111005 | 79 | 0 | 0.0 | 2.0 | 0.00 | 0.00 | 0.00 | 98 | 1013.2 |
| 20260902110900 | 79 | 287 | 0.0 | 2.0 | 0.00 | 0.00 | 0.00 | 98 | 1013.2 |
| 20260902110800 | 79 | 208 | 0.0 | 2.0 | 0.00 | 0.00 | 0.00 | 98 | 1013.2 |
| 20260902110700 | 79 | 0 | 0.0 | 2.0 | 0.00 | 0.00 | 0.00 | 98 | 1013.2 |
| 20260902110558 | 79 | 223 | 0.0 | 2.0 | 0.00 | 0.00 | 0.00 | 98 | 1013.1 |
| 20260902110522 | 79 | 174 | 0.0 | 2.0 | 0.00 | 0.00 | 0.00 | 98 | 1013.1 |
| 20260902110456 | 79 | 0 | 0.0 | 2.0 | 0.00 | 0.00 | 0.00 | 98 | 1013.1 |
| 20260902110356 | 79 | 0 | 0.0 | 2.0 | 0.00 | 0.00 | 0.00 | 98 | 1013.1 |
| 20260902110253 | 79 | 0 | 0.0 | 2.0 | 0.00 | 0.00 | 0.00 | 98 | 1013.1 |
| 20260902110151 | 79 | 229 | 0.0 | 2.0 | 0.00 | 0.00 | 0.00 | 98 | 1013.1 |
| 20260902110051 | 79 | 352 | 0.0 | 2.0 | 0.00 | 0.00 | 0.00 | 98 | 1013.1 |
| 20260902110022 | 79 | 278 | 0.0 | 2.0 | 0.00 | 0.00 | 0.00 | 98 | 1013.1 |
| 20260902105951 | 79 | 256 | 0.0 | 2.0 | 0.00 | 0.00 | 0.00 | 98 | 1013.1 |
| 20260902105850 | 79 | 278 | 0.0 | 2.0 | 0.00 | 0.00 | 0.00 | 98 | 1013.1 |
| 20260902105748 | 79 | 246 | 0.0 | 2.0 | 0.00 | 0.00 | 0.00 | 98 | 1013.1 |
| 20260902105648 | 79 | 254 | 0.0 | 1.0 | 0.00 | 0.00 | 0.00 | 98 | 1013.1 |
| 20260902105544 | 79 | 354 | 0.0 | 1.0 | 0.00 | 0.00 | 0.00 | 98 | 1013.2 |
| 20260902105520 | 79 | 319 | 0.0 | 1.0 | 0.00 | 0.00 | 0.00 | 98 | 1013.2 |
| 20260902105445 | 79 | 328 | 0.0 | 1.0 | 0.00 | 0.00 | 0.00 | 98 | 1013.2 |
| 20260902105342 | 79 | 273 | 0.0 | 1.0 | 0.00 | 0.00 | 0.00 | 98 | 1013.2 |
| 20260902105238 | 79 | 0 | 0.0 | 1.0 | 0.00 | 0.00 | 0.00 | 98 | 1013.2 |
| 20260902105139 | 79 | 0 | 0.0 | 1.0 | 0.00 | 0.00 | 0.00 | 98 | 1013.2 |
| 20260902105036 | 79 | 50 | 0.0 | 1.0 | 0.00 | 0.00 | 0.00 | 98 | 1013.2 |
| 20260902105020 | 79 | 66 | 0.0 | 1.0 | 0.00 | 0.00 | 0.00 | 98 | 1013.2 |
| 20260902104936 | 79 | 0 | 0.0 | 1.0 | 0.00 | 0.00 | 0.00 | 98 | 1013.2 |
| 20260902104836 | 79 | 109 | 0.0 | 1.0 | 0.00 | 0.00 | 0.00 | 98 | 1013.2 |
| 20260902104741 | 79 | 0 | 0.0 | 1.0 | 0.00 | 0.00 | 0.00 | 98 | 1013.2 |
| 20260902104733 | 79 | 127 | 0.0 | 1.0 | 0.00 | 0.00 | 0.00 | 98 | 1013.2 |
| 20260902104633 | 79 | 0 | 0.0 | 1.0 | 0.00 | 0.00 | 0.00 | 98 | 1013.2 |
| 20260902104619 | 79 | 0 | 0.0 | 1.0 | 0.00 | 0.00 | 0.00 | 98 | 1013.2 |
| 20260902104429 | 79 | 0 | 0.0 | 1.0 | 0.00 | 0.00 | 0.00 | 98 | 1013.2 |
| 20260902104328 | 79 | 283 | 0.0 | 1.0 | 0.00 | 0.00 | 0.00 | 98 | 1013.2 |
| 20260902104238 | 79 | 282 | 0.0 | 1.0 | 0.00 | 0.00 | 0.00 | 97 | 1013.2 |
| 20260902104227 | 79 | 0 | 0.0 | 1.0 | 0.00 | 0.00 | 0.00 | 98 | 1013.2 |
| 20260902104124 | 79 | 0 | 0.0 | 1.0 | 0.00 | 0.00 | 0.00 | 97 | 1013.2 |
| 20260902104113 | 79 | 265 | 0.0 | 1.0 | 0.00 | 0.00 | 0.00 | 97 | 1013.2 |
| 20260902103920 | 79 | 0 | 0.0 | 1.0 | 0.00 | 0.00 | 0.00 | 97 | 1013.2 |
| 20260902103818 | 79 | 285 | 0.0 | 1.0 | 0.00 | 0.00 | 0.00 | 97 | 1013.2 |
| 20260902103717 | 79 | 0 | 0.0 | 1.0 | 0.00 | 0.00 | 0.00 | 97 | 1013.2 |
| 20260902103616 | 79 | 285 | 0.0 | 1.0 | 0.00 | 0.00 | 0.00 | 97 | 1013.2 |
| 20260902103508 | 79 | 223 | 0.0 | 1.0 | 0.00 | 0.00 | 0.00 | 97 | 1013.2 |
| 20260902103413 | 79 | 0 | 0.0 | 1.0 | 0.00 | 0.00 | 0.00 | 97 | 1013.2 |
| 20260902103312 | 79 | 33 | 0.0 | 1.0 | 0.00 | 0.00 | 0.00 | 97 | 1013.2 |
| 20260902103231 | 79 | 134 | 0.0 | 2.0 | 0.00 | 0.00 | 0.00 | 97 | 1013.1 |
| 20260902103212 | 79 | 0 | 0.0 | 1.0 | 0.00 | 0.00 | 0.00 | 97 | 1013.1 |
| 20260902103119 | 79 | 0 | 0.0 | 1.0 | 0.00 | 0.00 | 0.00 | 97 | 1013.1 |
| 20260902103113 | 79 | 134 | 0.0 | 2.0 | 0.00 | 0.00 | 0.00 | 97 | 1013.1 |
| 20260902102909 | 79 | 0 | 0.0 | 2.0 | 0.00 | 0.00 | 0.00 | 97 | 1013.1 |
| 20260902102803 | 79 | 23 | 0.0 | 2.0 | 0.00 | 0.00 | 0.00 | 97 | 1013.1 |
| 20260902102654 | 79 | 0 | 0.0 | 2.0 | 0.00 | 0.00 | 0.00 | 97 | 1013.1 |
| 20260902102555 | 79 | 205 | 0.0 | 2.0 | 0.00 | 0.00 | 0.00 | 97 | 1013.1 |
| 20260902102507 | 79 | 0 | 0.0 | 2.0 | 0.00 | 0.00 | 0.00 | 97 | 1013.1 |
| 20260902102451 | 79 | 180 | 0.0 | 2.0 | 0.00 | 0.00 | 0.00 | 97 | 1013.0 |
| 20260902102351 | 79 | 289 | 0.0 | 2.0 | 0.00 | 0.00 | 0.00 | 97 | 1013.0 |
| 20260902102249 | 79 | 90 | 0.0 | 2.0 | 0.00 | 0.00 | 0.00 | 97 | 1013.0 |
| 20260902102148 | 79 | 298 | 0.0 | 2.0 | 0.00 | 0.00 | 0.00 | 97 | 1013.0 |
| 20260902102049 | 79 | 298 | 0.0 | 2.0 | 0.00 | 0.00 | 0.00 | 97 | 1013.0 |
| 20260902102005 | 79 | 292 | 0.0 | 2.0 | 0.00 | 0.00 | 0.00 | 97 | 1013.0 |
| 20260902101948 | 79 | 312 | 0.0 | 2.0 | 0.00 | 0.00 | 0.00 | 97 | 1013.0 |
| 20260902101843 | 79 | 304 | 0.0 | 2.0 | 0.00 | 0.00 | 0.00 | 97 | 1013.0 |
| 20260902101743 | 79 | 259 | 0.0 | 2.0 | 0.00 | 0.00 | 0.00 | 97 | 1013.0 |
| 20260902101724 | 79 | 311 | 0.0 | 2.0 | 0.00 | 0.00 | 0.00 | 97 | 1013.0 |
| 20260902101642 | 79 | 264 | 0.0 | 2.0 | 0.00 | 0.00 | 0.00 | 97 | 1013.0 |
| 20260902101611 | 79 | 292 | 0.0 | 2.0 | 0.00 | 0.00 | 0.00 | 97 | 1013.0 |
| 20260902101439 | 79 | 309 | 0.0 | 2.0 | 0.00 | 0.00 | 0.00 | 97 | 1013.0 |
| 20260902101339 | 79 | 261 | 0.0 | 2.0 | 0.00 | 0.00 | 0.00 | 97 | 1013.0 |
| 20260902101239 | 79 | 261 | 0.0 | 2.0 | 0.00 | 0.00 | 0.00 | 97 | 1013.0 |
| 20260902101136 | 79 | 27 | 0.0 | 2.0 | 0.00 | 0.00 | 0.00 | 97 | 1013.0 |
| 20260902101033 | 79 | 0 | 0.0 | 2.0 | 0.00 | 0.00 | 0.00 | 97 | 1013.0 |
| 20260902101005 | 79 | 242 | 1.0 | 2.0 | 0.00 | 0.00 | 0.00 | 97 | 1013.0 |
| 20260902100933 | 79 | 266 | 0.0 | 2.0 | 0.00 | 0.00 | 0.00 | 97 | 1013.0 |
| 20260902100834 | 79 | 289 | 0.0 | 2.0 | 0.00 | 0.00 | 0.00 | 97 | 1013.0 |
| 20260902100731 | 79 | 241 | 1.0 | 2.0 | 0.00 | 0.00 | 0.00 | 97 | 1013.0 |
| 20260902100628 | 79 | 290 | 1.0 | 2.0 | 0.00 | 0.00 | 0.00 | 97 | 1013.0 |
| 20260902100524 | 79 | 296 | 0.0 | 2.0 | 0.00 | 0.00 | 0.00 | 97 | 1013.0 |
| 20260902100505 | 79 | 281 | 0.0 | 2.0 | 0.00 | 0.00 | 0.00 | 97 | 1013.0 |
| 20260902100425 | 79 | 192 | 1.0 | 2.0 | 0.00 | 0.00 | 0.00 | 97 | 1013.0 |
| 20260902100325 | 79 | 246 | 1.0 | 2.0 | 0.00 | 0.00 | 0.00 | 97 | 1013.0 |
| 20260902100222 | 79 | 0 | 0.0 | 2.0 | 0.00 | 0.00 | 0.00 | 97 | 1013.0 |
| 20260902100119 | 79 | 206 | 0.0 | 2.0 | 0.00 | 0.00 | 0.00 | 97 | 1013.0 |
| 20260902100019 | 79 | 231 | 0.0 | 2.0 | 0.00 | 0.00 | 0.00 | 97 | 1012.9 |
| 20260902100003 | 79 | 336 | 0.0 | 2.0 | 0.00 | 0.00 | 0.00 | 97 | 1012.9 |
| 20260902095918 | 79 | 0 | 0.0 | 2.0 | 0.00 | 0.00 | 0.00 | 97 | 1012.9 |
| 20260902095813 | 79 | 304 | 0.0 | 2.0 | 0.00 | 0.00 | 0.00 | 97 | 1012.9 |
| 20260902095717 | 79 | 253 | 0.0 | 2.0 | 0.00 | 0.00 | 0.00 | 97 | 1012.9 |
| 20260902095713 | 79 | 256 | 0.0 | 2.0 | 0.00 | 0.00 | 0.00 | 97 | 1012.9 |
| 20260902095612 | 79 | 60 | 0.0 | 2.0 | 0.00 | 0.00 | 0.00 | 97 | 1012.9 |
| 20260902095603 | 79 | 308 | 0.0 | 2.0 | 0.00 | 0.00 | 0.00 | 97 | 1012.9 |
| 20260902095407 | 79 | 171 | 0.0 | 1.0 | 0.00 | 0.00 | 0.00 | 97 | 1012.9 |
| 20260902095306 | 79 | 294 | 0.0 | 2.0 | 0.00 | 0.00 | 0.00 | 97 | 1012.9 |
| 20260902095204 | 79 | 240 | 0.0 | 2.0 | 0.00 | 0.00 | 0.00 | 97 | 1012.9 |
| 20260902095100 | 79 | 0 | 0.0 | 2.0 | 0.00 | 0.00 | 0.00 | 97 | 1012.9 |
| 20260902095003 | 79 | 299 | 0.0 | 2.0 | 0.00 | 0.00 | 0.00 | 97 | 1012.9 |
| 20260902094957 | 80 | 299 | 0.0 | 2.0 | 0.00 | 0.00 | 0.00 | 97 | 1012.9 |
| 20260902094901 | 80 | 222 | 0.0 | 2.0 | 0.00 | 0.00 | 0.00 | 97 | 1012.9 |
| 20260902094800 | 80 | 286 | 0.0 | 2.0 | 0.00 | 0.00 | 0.00 | 96 | 1012.9 |
| 20260902094659 | 80 | 308 | 0.0 | 2.0 | 0.00 | 0.00 | 0.00 | 96 | 1012.9 |
| 20260902094559 | 80 | 266 | 1.0 | 2.0 | 0.00 | 0.00 | 0.00 | 97 | 1012.9 |
| 20260902094459 | 80 | 286 | 0.0 | 2.0 | 0.00 | 0.00 | 0.00 | 97 | 1012.9 |
| 20260902094359 | 80 | 251 | 0.0 | 2.0 | 0.00 | 0.00 | 0.00 | 96 | 1012.9 |
| 20260902094255 | 80 | 281 | 0.0 | 2.0 | 0.00 | 0.00 | 0.00 | 96 | 1012.9 |
| 20260902094155 | 80 | 292 | 0.0 | 2.0 | 0.00 | 0.00 | 0.00 | 96 | 1012.9 |
| 20260902094052 | 80 | 0 | 0.0 | 2.0 | 0.00 | 0.00 | 0.00 | 96 | 1012.9 |
| 20260902093957 | 80 | 33 | 0.0 | 2.0 | 0.00 | 0.00 | 0.00 | 96 | 1012.9 |
| 20260902093949 | 80 | 0 | 0.0 | 2.0 | 0.00 | 0.00 | 0.00 | 96 | 1012.9 |
| 20260902093849 | 80 | 184 | 0.0 | 2.0 | 0.00 | 0.00 | 0.00 | 96 | 1012.9 |
| 20260902093749 | 80 | 263 | 0.0 | 2.0 | 0.00 | 0.00 | 0.00 | 96 | 1012.9 |
| 20260902093648 | 80 | 301 | 1.0 | 2.0 | 0.00 | 0.00 | 0.00 | 96 | 1012.9 |
| 20260902093548 | 80 | 0 | 0.0 | 2.0 | 0.00 | 0.00 | 0.00 | 96 | 1012.9 |
| 20260902093458 | 80 | 0 | 0.0 | 2.0 | 0.00 | 0.00 | 0.00 | 96 | 1012.9 |
| 20260902093449 | 80 | 293 | 0.0 | 2.0 | 0.00 | 0.00 | 0.00 | 96 | 1012.9 |
| 20260902093350 | 80 | 267 | 0.0 | 2.0 | 0.00 | 0.00 | 0.00 | 96 | 1012.9 |
| 20260902093249 | 80 | 300 | 0.0 | 2.0 | 0.00 | 0.00 | 0.00 | 96 | 1012.9 |
| 20260902093146 | 80 | 27 | 0.0 | 2.0 | 0.00 | 0.00 | 0.00 | 96 | 1013.0 |
| 20260902093043 | 80 | 0 | 0.0 | 2.0 | 0.00 | 0.00 | 0.00 | 96 | 1013.0 |
| 20260902092958 | 80 | 0 | 0.0 | 2.0 | 0.00 | 0.00 | 0.00 | 96 | 1013.0 |
| 20260902092940 | 80 | 271 | 0.0 | 2.0 | 0.00 | 0.00 | 0.00 | 96 | 1013.0 |
| 20260902092838 | 80 | 271 | 0.0 | 2.0 | 0.00 | 0.00 | 0.00 | 96 | 1013.0 |
| 20260902092734 | 80 | 235 | 0.0 | 2.0 | 0.00 | 0.00 | 0.00 | 96 | 1013.0 |
| 20260902092635 | 80 | 354 | 0.0 | 2.0 | 0.00 | 0.00 | 0.00 | 96 | 1013.0 |
| 20260902092527 | 80 | 294 | 0.0 | 2.0 | 0.00 | 0.00 | 0.00 | 96 | 1013.0 |
| 20260902092457 | 80 | 0 | 0.0 | 2.0 | 0.00 | 0.00 | 0.00 | 96 | 1013.0 |
| 20260902092429 | 80 | 351 | 0.0 | 2.0 | 0.00 | 0.00 | 0.00 | 96 | 1013.0 |
| 20260902092328 | 80 | 282 | 0.0 | 2.0 | 0.00 | 0.00 | 0.00 | 96 | 1013.0 |
| 20260902092228 | 80 | 0 | 0.0 | 2.0 | 0.00 | 0.00 | 0.00 | 96 | 1013.0 |
| 20260902092128 | 80 | 265 | 0.0 | 2.0 | 0.00 | 0.00 | 0.00 | 96 | 1013.0 |
| 20260902092025 | 80 | 287 | 0.0 | 2.0 | 0.00 | 0.00 | 0.00 | 96 | 1013.0 |
| 20260902091958 | 80 | 259 | 0.0 | 2.0 | 0.00 | 0.00 | 0.00 | 96 | 1012.9 |
| 20260902091922 | 80 | 297 | 0.0 | 2.0 | 0.00 | 0.00 | 0.00 | 96 | 1012.9 |
| 20260902091822 | 80 | 257 | 0.0 | 1.0 | 0.00 | 0.00 | 0.00 | 96 | 1012.9 |
| 20260902091726 | 80 | 281 | 0.0 | 1.0 | 0.00 | 0.00 | 0.00 | 96 | 1012.9 |
| 20260902091722 | 80 | 0 | 0.0 | 1.0 | 0.00 | 0.00 | 0.00 | 96 | 1012.9 |
| 20260902091622 | 80 | 0 | 0.0 | 1.0 | 0.00 | 0.00 | 0.00 | 96 | 1012.9 |
| 20260902091604 | 80 | 349 | 0.0 | 1.0 | 0.00 | 0.00 | 0.00 | 96 | 1012.9 |
| 20260902091422 | 80 | 330 | 0.0 | 1.0 | 0.00 | 0.00 | 0.00 | 96 | 1012.9 |
| 20260902091323 | 80 | 275 | 0.0 | 1.0 | 0.00 | 0.00 | 0.00 | 96 | 1012.9 |
| 20260902091222 | 80 | 269 | 0.0 | 2.0 | 0.00 | 0.00 | 0.00 | 96 | 1012.9 |
| 20260902091120 | 80 | 222 | 0.0 | 2.0 | 0.00 | 0.00 | 0.00 | 95 | 1012.9 |
| 20260902091017 | 80 | 214 | 0.0 | 2.0 | 0.00 | 0.00 | 0.00 | 95 | 1012.9 |
| 20260902090958 | 80 | 0 | 0.0 | 2.0 | 0.00 | 0.00 | 0.00 | 95 | 1012.9 |
| 20260902090917 | 80 | 0 | 0.0 | 3.0 | 0.00 | 0.00 | 0.00 | 95 | 1012.9 |
| 20260902090810 | 80 | 0 | 0.0 | 3.0 | 0.00 | 0.00 | 0.00 | 95 | 1012.9 |
| 20260902090711 | 80 | 302 | 0.0 | 3.0 | 0.00 | 0.00 | 0.00 | 95 | 1012.9 |
| 20260902090610 | 80 | 274 | 0.0 | 3.0 | 0.00 | 0.00 | 0.00 | 95 | 1012.9 |
| 20260902090511 | 80 | 350 | 0.0 | 3.0 | 0.00 | 0.00 | 0.00 | 95 | 1012.9 |
| 20260902090458 | 80 | 223 | 0.0 | 3.0 | 0.00 | 0.00 | 0.00 | 95 | 1012.8 |
| 20260902090410 | 80 | 358 | 0.0 | 3.0 | 0.00 | 0.00 | 0.00 | 95 | 1012.8 |
| 20260902090310 | 80 | 0 | 0.0 | 3.0 | 0.00 | 0.00 | 0.00 | 95 | 1012.8 |
| 20260902090202 | 80 | 270 | 0.0 | 3.0 | 0.00 | 0.00 | 0.00 | 95 | 1012.8 |
| 20260902090101 | 80 | 0 | 0.0 | 3.0 | 0.00 | 0.00 | 0.00 | 95 | 1012.8 |
| 20260902090001 | 80 | 235 | 0.0 | 3.0 | 0.00 | 0.00 | 0.00 | 95 | 1012.8 |
| 20260902085956 | 80 | 210 | 0.0 | 3.0 | 0.00 | 0.00 | 0.00 | 95 | 1012.8 |
| 20260902085901 | 80 | 0 | 1.0 | 2.0 | 0.00 | 0.00 | 0.00 | 95 | 1012.8 |
| 20260902085802 | 80 | 0 | 1.0 | 2.0 | 0.00 | 0.00 | 0.00 | 95 | 1012.8 |
| 20260902085702 | 80 | 193 | 1.0 | 2.0 | 0.00 | 0.00 | 0.00 | 95 | 1012.8 |
| 20260902085600 | 80 | 48 | 1.0 | 2.0 | 0.00 | 0.00 | 0.00 | 95 | 1012.8 |
| 20260902085458 | 80 | 267 | 1.0 | 3.0 | 0.00 | 0.00 | 0.00 | 95 | 1012.8 |
| 20260902085451 | 80 | 262 | 1.0 | 3.0 | 0.00 | 0.00 | 0.00 | 95 | 1012.8 |
| 20260902085359 | 80 | 204 | 1.0 | 3.0 | 0.00 | 0.00 | 0.00 | 95 | 1012.8 |
| 20260902085256 | 80 | 279 | 1.0 | 3.0 | 0.00 | 0.00 | 0.00 | 95 | 1012.8 |
| 20260902085153 | 80 | 270 | 1.0 | 3.0 | 0.00 | 0.00 | 0.00 | 95 | 1012.8 |
| 20260902085050 | 80 | 265 | 1.0 | 3.0 | 0.00 | 0.00 | 0.00 | 95 | 1012.8 |
| 20260902084950 | 80 | 252 | 1.0 | 3.0 | 0.00 | 0.00 | 0.00 | 95 | 1012.9 |
| 20260902084847 | 80 | 290 | 0.0 | 3.0 | 0.00 | 0.00 | 0.00 | 95 | 1012.9 |
| 20260902084747 | 80 | 303 | 0.0 | 3.0 | 0.00 | 0.00 | 0.00 | 95 | 1012.9 |
| 20260902084647 | 80 | 3 | 0.0 | 3.0 | 0.00 | 0.00 | 0.00 | 95 | 1012.9 |
| 20260902084544 | 80 | 98 | 1.0 | 3.0 | 0.00 | 0.00 | 0.00 | 95 | 1012.9 |
| 20260902084448 | 80 | 229 | 1.0 | 3.0 | 0.00 | 0.00 | 0.00 | 95 | 1012.9 |
| 20260902084443 | 80 | 226 | 1.0 | 3.0 | 0.00 | 0.00 | 0.00 | 95 | 1012.9 |
| 20260902084343 | 80 | 298 | 1.0 | 2.0 | 0.00 | 0.00 | 0.00 | 95 | 1012.8 |
| 20260902084241 | 80 | 260 | 1.0 | 3.0 | 0.00 | 0.00 | 0.00 | 95 | 1012.8 |
| 20260902084137 | 80 | 0 | 1.0 | 3.0 | 0.00 | 0.00 | 0.00 | 95 | 1012.8 |
| 20260902084037 | 80 | 256 | 1.0 | 4.0 | 0.00 | 0.00 | 0.00 | 95 | 1012.8 |
| 20260902083948 | 80 | 300 | 1.0 | 4.0 | 0.00 | 0.00 | 0.00 | 95 | 1012.8 |
| 20260902083932 | 80 | 281 | 1.0 | 4.0 | 0.00 | 0.00 | 0.00 | 95 | 1012.8 |
| 20260902083832 | 80 | 0 | 1.0 | 4.0 | 0.00 | 0.00 | 0.00 | 95 | 1012.8 |
| 20260902083729 | 80 | 279 | 1.0 | 4.0 | 0.00 | 0.00 | 0.00 | 95 | 1012.8 |
| 20260902083629 | 80 | 255 | 1.0 | 4.0 | 0.00 | 0.00 | 0.00 | 95 | 1012.8 |
| 20260902083529 | 80 | 259 | 1.0 | 4.0 | 0.00 | 0.00 | 0.00 | 95 | 1012.8 |
| 20260902083429 | 80 | 0 | 1.0 | 4.0 | 0.00 | 0.00 | 0.00 | 95 | 1012.8 |
| 20260902083329 | 80 | 246 | 1.0 | 4.0 | 0.00 | 0.00 | 0.00 | 95 | 1012.9 |
| 20260902083226 | 80 | 283 | 1.0 | 4.0 | 0.00 | 0.00 | 0.00 | 94 | 1012.9 |
| 20260902083126 | 80 | 240 | 1.0 | 4.0 | 0.00 | 0.00 | 0.00 | 94 | 1012.9 |
| 20260902083026 | 80 | 263 | 1.0 | 3.0 | 0.00 | 0.00 | 0.00 | 94 | 1012.9 |
| 20260902082945 | 80 | 281 | 1.0 | 3.0 | 0.00 | 0.00 | 0.00 | 94 | 1012.9 |
| 20260902082926 | 80 | 270 | 1.0 | 3.0 | 0.00 | 0.00 | 0.00 | 94 | 1012.9 |
| 20260902082823 | 80 | 226 | 1.0 | 3.0 | 0.00 | 0.00 | 0.00 | 94 | 1012.9 |
| 20260902082720 | 80 | 267 | 1.0 | 3.0 | 0.00 | 0.00 | 0.00 | 94 | 1012.9 |
| 20260902082619 | 80 | 239 | 1.0 | 3.0 | 0.00 | 0.00 | 0.00 | 94 | 1012.9 |
| 20260902082517 | 80 | 252 | 1.0 | 3.0 | 0.00 | 0.00 | 0.00 | 94 | 1012.9 |
| 20260902082445 | 80 | 226 | 1.0 | 3.0 | 0.00 | 0.00 | 0.00 | 94 | 1013.0 |
| 20260902082440 | 80 | 257 | 1.0 | 3.0 | 0.00 | 0.00 | 0.00 | 95 | 1013.0 |
| 20260902082417 | 80 | 0 | 1.0 | 3.0 | 0.00 | 0.00 | 0.00 | 94 | 1013.0 |
| 20260902082318 | 80 | 247 | 1.0 | 3.0 | 0.00 | 0.00 | 0.00 | 94 | 1013.0 |
| 20260902082312 | 80 | 251 | 1.0 | 3.0 | 0.00 | 0.00 | 0.00 | 94 | 1013.0 |
| 20260902082118 | 80 | 259 | 1.0 | 3.0 | 0.00 | 0.00 | 0.00 | 94 | 1013.0 |
| 20260902082049 | 80 | 0 | 1.0 | 3.0 | 0.00 | 0.00 | 0.00 | 94 | 1013.0 |
| 20260902081918 | 80 | 287 | 1.0 | 3.0 | 0.00 | 0.00 | 0.00 | 95 | 1013.0 |
| 20260902081812 | 80 | 234 | 1.0 | 3.0 | 0.00 | 0.00 | 0.00 | 95 | 1013.0 |
| 20260902081712 | 80 | 284 | 1.0 | 3.0 | 0.00 | 0.00 | 0.00 | 95 | 1013.0 |
| 20260902081705 | 80 | 269 | 1.0 | 2.0 | 0.00 | 0.00 | 0.00 | 95 | 1013.0 |
| 20260902081611 | 80 | 168 | 1.0 | 2.0 | 0.00 | 0.00 | 0.00 | 95 | 1013.0 |
| 20260902081549 | 80 | 293 | 1.0 | 2.0 | 0.00 | 0.00 | 0.00 | 95 | 1013.0 |
| 20260902081408 | 80 | 296 | 1.0 | 2.0 | 0.00 | 0.00 | 0.00 | 95 | 1013.0 |
| 20260902081305 | 80 | 251 | 1.0 | 2.0 | 0.00 | 0.00 | 0.00 | 95 | 1013.0 |
| 20260902081205 | 80 | 8 | 1.0 | 2.0 | 0.00 | 0.00 | 0.00 | 95 | 1013.0 |
| 20260902081105 | 80 | 302 | 1.0 | 2.0 | 0.00 | 0.00 | 0.00 | 95 | 1013.0 |
| 20260902081005 | 80 | 249 | 1.0 | 2.0 | 0.00 | 0.00 | 0.00 | 95 | 1013.0 |
| 20260902080943 | 80 | 0 | 1.0 | 2.0 | 0.00 | 0.00 | 0.00 | 95 | 1013.0 |
| 20260902080905 | 80 | 336 | 1.0 | 2.0 | 0.00 | 0.00 | 0.00 | 95 | 1013.0 |
| 20260902080810 | 80 | 0 | 1.0 | 2.0 | 0.00 | 0.00 | 0.00 | 95 | 1013.0 |
| 20260902080705 | 80 | 276 | 1.0 | 2.0 | 0.00 | 0.00 | 0.00 | 95 | 1013.0 |
| 20260902080605 | 80 | 0 | 1.0 | 2.0 | 0.00 | 0.00 | 0.00 | 95 | 1013.0 |
| 20260902080500 | 80 | 227 | 1.0 | 3.0 | 0.00 | 0.00 | 0.00 | 95 | 1013.0 |
| 20260902080443 | 80 | 0 | 1.0 | 3.0 | 0.00 | 0.00 | 0.00 | 95 | 1013.0 |
| 20260902080400 | 80 | 157 | 1.0 | 3.0 | 0.00 | 0.00 | 0.00 | 95 | 1013.1 |
| 20260902080002 | 80 | 172 | 1.0 | 3.0 | 0.00 | 0.00 | 0.00 | 95 | 1013.1 |
| 20260902075945 | 80 | 329 | 1.0 | 3.0 | 0.00 | 0.00 | 0.00 | 95 | 1013.1 |
| 20260902075913 | 80 | 272 | 1.0 | 3.0 | 0.00 | 0.00 | 0.00 | 95 | 1013.1 |
| 20260902075753 | 80 | 218 | 1.0 | 3.0 | 0.00 | 0.00 | 0.00 | 95 | 1013.0 |
| 20260902075654 | 80 | 0 | 1.0 | 3.0 | 0.00 | 0.00 | 0.00 | 95 | 1013.1 |
| 20260902075551 | 80 | 281 | 1.0 | 3.0 | 0.00 | 0.00 | 0.00 | 95 | 1013.1 |
| 20260902075448 | 80 | 168 | 1.0 | 3.0 | 0.00 | 0.00 | 0.00 | 95 | 1013.1 |
| 20260902075440 | 80 | 226 | 1.0 | 3.0 | 0.00 | 0.00 | 0.00 | 95 | 1013.1 |
| 20260902075348 | 80 | 316 | 1.0 | 3.0 | 0.00 | 0.00 | 0.00 | 95 | 1013.1 |
| 20260902075236 | 80 | 315 | 1.0 | 3.0 | 0.00 | 0.00 | 0.00 | 95 | 1013.1 |
| 20260902075133 | 80 | 231 | 1.0 | 3.0 | 0.00 | 0.00 | 0.00 | 95 | 1013.1 |
| 20260902075032 | 80 | 190 | 1.0 | 2.0 | 0.00 | 0.00 | 0.00 | 95 | 1013.1 |
| 20260902074938 | 80 | 245 | 1.0 | 2.0 | 0.00 | 0.00 | 0.00 | 95 | 1013.1 |
| 20260902074933 | 80 | 241 | 1.0 | 2.0 | 0.00 | 0.00 | 0.00 | 95 | 1013.1 |
| 20260902074829 | 80 | 267 | 1.0 | 2.0 | 0.00 | 0.00 | 0.00 | 95 | 1013.1 |
| 20260902074729 | 80 | 280 | 1.0 | 2.0 | 0.00 | 0.00 | 0.00 | 95 | 1013.1 |
| 20260902074629 | 80 | 191 | 1.0 | 2.0 | 0.00 | 0.00 | 0.00 | 95 | 1013.1 |
| 20260902074526 | 80 | 239 | 1.0 | 2.0 | 0.00 | 0.00 | 0.00 | 95 | 1013.1 |
| 20260902074438 | 80 | 0 | 1.0 | 3.0 | 0.00 | 0.00 | 0.00 | 95 | 1013.0 |
| 20260902074424 | 80 | 182 | 1.0 | 3.0 | 0.00 | 0.00 | 0.00 | 95 | 1013.0 |
| 20260902074324 | 80 | 66 | 1.0 | 4.0 | 0.00 | 0.00 | 0.00 | 95 | 1013.1 |
| 20260902074224 | 80 | 260 | 1.0 | 4.0 | 0.00 | 0.00 | 0.00 | 95 | 1013.0 |
| 20260902074200 | 80 | 246 | 1.0 | 4.0 | 0.00 | 0.00 | 0.00 | 95 | 1013.0 |
| 20260902074124 | 80 | 331 | 1.0 | 4.0 | 0.00 | 0.00 | 0.00 | 95 | 1013.0 |
| 20260902074041 | 80 | 270 | 1.0 | 4.0 | 0.00 | 0.00 | 0.00 | 95 | 1013.0 |
| 20260902073922 | 80 | 294 | 1.0 | 4.0 | 0.00 | 0.00 | 0.00 | 95 | 1013.0 |
| 20260902073821 | 80 | 318 | 1.0 | 4.0 | 0.00 | 0.00 | 0.00 | 95 | 1013.0 |
| 20260902073718 | 80 | 270 | 1.0 | 4.0 | 0.00 | 0.00 | 0.00 | 95 | 1013.0 |
| 20260902073615 | 80 | 44 | 1.0 | 4.0 | 0.00 | 0.00 | 0.00 | 95 | 1013.0 |
| 20260902073515 | 80 | 308 | 1.0 | 4.0 | 0.00 | 0.00 | 0.00 | 95 | 1013.0 |
| 20260902073435 | 80 | 31 | 1.0 | 4.0 | 0.00 | 0.00 | 0.00 | 95 | 1013.0 |
| 20260902073410 | 80 | 225 | 1.0 | 4.0 | 0.00 | 0.00 | 0.00 | 95 | 1013.0 |
| 20260902073308 | 80 | 275 | 1.0 | 3.0 | 0.00 | 0.00 | 0.00 | 96 | 1013.0 |
| 20260902073208 | 79 | 235 | 1.0 | 3.0 | 0.00 | 0.00 | 0.00 | 96 | 1013.1 |
| 20260902073109 | 79 | 320 | 1.0 | 3.0 | 0.00 | 0.00 | 0.00 | 96 | 1013.1 |
| 20260902073010 | 79 | 198 | 1.0 | 3.0 | 0.00 | 0.00 | 0.00 | 96 | 1013.1 |
| 20260902072935 | 79 | 266 | 1.0 | 3.0 | 0.00 | 0.00 | 0.00 | 96 | 1013.1 |
| 20260902072910 | 79 | 243 | 1.0 | 3.0 | 0.00 | 0.00 | 0.00 | 96 | 1013.1 |
| 20260902072809 | 79 | 311 | 1.0 | 3.0 | 0.00 | 0.00 | 0.00 | 96 | 1013.1 |
| 20260902072709 | 79 | 178 | 1.0 | 3.0 | 0.00 | 0.00 | 0.00 | 96 | 1013.1 |
| 20260902072606 | 79 | 254 | 1.0 | 3.0 | 0.00 | 0.00 | 0.00 | 96 | 1013.1 |
| 20260902072506 | 79 | 216 | 1.0 | 2.0 | 0.00 | 0.00 | 0.00 | 96 | 1013.1 |
| 20260902072435 | 79 | 210 | 1.0 | 2.0 | 0.00 | 0.00 | 0.00 | 96 | 1013.1 |
| 20260902072407 | 79 | 98 | 1.0 | 2.0 | 0.00 | 0.00 | 0.00 | 96 | 1013.1 |
| 20260902072309 | 79 | 293 | 1.0 | 2.0 | 0.00 | 0.00 | 0.00 | 97 | 1013.2 |
| 20260902072207 | 79 | 327 | 1.0 | 2.0 | 0.00 | 0.00 | 0.00 | 97 | 1013.2 |
| 20260902072156 | 79 | 359 | 1.0 | 2.0 | 0.00 | 0.00 | 0.00 | 97 | 1013.2 |
| 20260902072106 | 79 | 137 | 1.0 | 2.0 | 0.00 | 0.00 | 0.00 | 97 | 1013.2 |
| 20260902072040 | 79 | 292 | 1.0 | 2.0 | 0.00 | 0.00 | 0.00 | 97 | 1013.2 |
| 20260902071906 | 79 | 0 | 1.0 | 2.0 | 0.00 | 0.00 | 0.00 | 97 | 1013.2 |
| 20260902071807 | 79 | 125 | 1.0 | 2.0 | 0.00 | 0.00 | 0.00 | 97 | 1013.2 |
| 20260902071707 | 79 | 157 | 1.0 | 3.0 | 0.00 | 0.00 | 0.00 | 97 | 1013.2 |
| 20260902071607 | 79 | 307 | 1.0 | 3.0 | 0.00 | 0.00 | 0.00 | 97 | 1013.2 |
| 20260902071507 | 79 | 0 | 1.0 | 3.0 | 0.00 | 0.00 | 0.00 | 97 | 1013.2 |
| 20260902071435 | 79 | 322 | 1.0 | 3.0 | 0.00 | 0.00 | 0.00 | 97 | 1013.2 |
| 20260902071405 | 79 | 296 | 1.0 | 3.0 | 0.00 | 0.00 | 0.00 | 97 | 1013.2 |
| 20260902071305 | 79 | 284 | 1.0 | 3.0 | 0.00 | 0.00 | 0.00 | 97 | 1013.2 |
| 20260902071206 | 79 | 202 | 1.0 | 3.0 | 0.00 | 0.00 | 0.00 | 97 | 1013.2 |
| 20260902071107 | 79 | 267 | 1.0 | 3.0 | 0.00 | 0.00 | 0.00 | 97 | 1013.2 |
| 20260902071006 | 79 | 16 | 1.0 | 3.0 | 0.00 | 0.00 | 0.00 | 97 | 1013.2 |
| 20260902070935 | 79 | 264 | 1.0 | 3.0 | 0.00 | 0.00 | 0.00 | 97 | 1013.2 |
| 20260902070906 | 79 | 315 | 1.0 | 3.0 | 0.00 | 0.00 | 0.00 | 97 | 1013.2 |
| 20260902070806 | 79 | 140 | 1.0 | 3.0 | 0.00 | 0.00 | 0.00 | 97 | 1013.2 |
| 20260902070703 | 79 | 230 | 1.0 | 3.0 | 0.00 | 0.00 | 0.00 | 97 | 1013.1 |
| 20260902070604 | 79 | 310 | 1.0 | 2.0 | 0.00 | 0.00 | 0.00 | 97 | 1013.1 |
| 20260902070504 | 79 | 262 | 0.0 | 2.0 | 0.00 | 0.00 | 0.00 | 97 | 1013.1 |
| 20260902070435 | 79 | 287 | 1.0 | 2.0 | 0.00 | 0.00 | 0.00 | 97 | 1013.1 |
| 20260902070408 | 79 | 0 | 1.0 | 2.0 | 0.00 | 0.00 | 0.00 | 97 | 1013.1 |
| 20260902070302 | 79 | 181 | 1.0 | 2.0 | 0.00 | 0.00 | 0.00 | 98 | 1013.1 |
| 20260902070206 | 78 | 244 | 1.0 | 2.0 | 0.00 | 0.00 | 0.00 | 97 | 1013.1 |
| 20260902065958 | 78 | 280 | 0.0 | 2.0 | 0.00 | 0.00 | 0.00 | 97 | 1013.1 |
| 20260902065935 | 78 | 310 | 0.0 | 2.0 | 0.00 | 0.00 | 0.00 | 97 | 1013.1 |
| 20260902065857 | 78 | 271 | 0.0 | 2.0 | 0.00 | 0.00 | 0.00 | 98 | 1013.1 |
| 20260902065757 | 78 | 291 | 0.0 | 2.0 | 0.00 | 0.00 | 0.00 | 98 | 1013.1 |
| 20260902065659 | 78 | 186 | 0.0 | 2.0 | 0.00 | 0.00 | 0.00 | 98 | 1013.0 |
| 20260902065655 | 78 | 339 | 0.0 | 2.0 | 0.00 | 0.00 | 0.00 | 98 | 1013.1 |
| 20260902065554 | 78 | 56 | 0.0 | 2.0 | 0.00 | 0.00 | 0.00 | 98 | 1013.0 |
| 20260902065541 | 78 | 209 | 0.0 | 2.0 | 0.00 | 0.00 | 0.00 | 98 | 1013.0 |
| 20260902065349 | 78 | 277 | 0.0 | 2.0 | 0.00 | 0.00 | 0.00 | 98 | 1013.0 |
| 20260902065243 | 78 | 292 | 0.0 | 2.0 | 0.00 | 0.00 | 0.00 | 98 | 1013.0 |
| 20260902065143 | 78 | 178 | 0.0 | 2.0 | 0.00 | 0.00 | 0.00 | 98 | 1013.0 |
| 20260902065039 | 78 | 0 | 0.0 | 2.0 | 0.00 | 0.00 | 0.00 | 98 | 1013.0 |
| 20260902064939 | 78 | 0 | 0.0 | 2.0 | 0.00 | 0.00 | 0.00 | 98 | 1013.0 |
| 20260902064932 | 78 | 306 | 0.0 | 2.0 | 0.00 | 0.00 | 0.00 | 98 | 1013.0 |
| 20260902064839 | 78 | 0 | 0.0 | 2.0 | 0.00 | 0.00 | 0.00 | 98 | 1013.0 |
| 20260902064737 | 78 | 269 | 0.0 | 2.0 | 0.00 | 0.00 | 0.00 | 98 | 1013.0 |
| 20260902064636 | 78 | 284 | 0.0 | 2.0 | 0.00 | 0.00 | 0.00 | 98 | 1013.1 |
| 20260902064536 | 78 | 43 | 0.0 | 2.0 | 0.00 | 0.00 | 0.00 | 98 | 1013.1 |
| 20260902064433 | 78 | 195 | 0.0 | 2.0 | 0.00 | 0.00 | 0.00 | 98 | 1013.1 |
| 20260902064333 | 78 | 0 | 0.0 | 2.0 | 0.00 | 0.00 | 0.00 | 98 | 1013.1 |
| 20260902064233 | 78 | 288 | 1.0 | 2.0 | 0.00 | 0.00 | 0.00 | 98 | 1013.1 |
| 20260902064152 | 78 | 257 | 0.0 | 2.0 | 0.00 | 0.00 | 0.00 | 98 | 1013.1 |
| 20260902064133 | 78 | 285 | 0.0 | 2.0 | 0.00 | 0.00 | 0.00 | 98 | 1013.1 |
| 20260902064038 | 78 | 299 | 0.0 | 2.0 | 0.00 | 0.00 | 0.00 | 98 | 1013.1 |
| 20260902063928 | 78 | 277 | 0.0 | 2.0 | 0.00 | 0.00 | 0.00 | 98 | 1013.1 |
| 20260902063828 | 78 | 275 | 0.0 | 2.0 | 0.00 | 0.00 | 0.00 | 98 | 1013.1 |
| 20260902063727 | 78 | 270 | 0.0 | 2.0 | 0.00 | 0.00 | 0.00 | 98 | 1013.1 |
| 20260902063627 | 78 | 266 | 0.0 | 2.0 | 0.00 | 0.00 | 0.00 | 98 | 1013.1 |
| 20260902063519 | 78 | 0 | 0.0 | 2.0 | 0.00 | 0.00 | 0.00 | 98 | 1013.1 |
| 20260902063429 | 78 | 248 | 0.0 | 2.0 | 0.00 | 0.00 | 0.00 | 98 | 1013.1 |
| 20260902063416 | 78 | 292 | 0.0 | 2.0 | 0.00 | 0.00 | 0.00 | 98 | 1013.1 |
| 20260902063313 | 78 | 333 | 0.0 | 2.0 | 0.00 | 0.00 | 0.00 | 98 | 1013.1 |
| 20260902063213 | 78 | 0 | 0.0 | 2.0 | 0.00 | 0.00 | 0.00 | 98 | 1013.2 |
| 20260902063151 | 78 | 296 | 0.0 | 2.0 | 0.00 | 0.00 | 0.00 | 98 | 1013.2 |
| 20260902063109 | 78 | 192 | 0.0 | 2.0 | 0.00 | 0.00 | 0.00 | 98 | 1013.2 |
| 20260902063032 | 78 | 285 | 0.0 | 2.0 | 0.00 | 0.00 | 0.00 | 98 | 1013.2 |
| 20260902062910 | 78 | 240 | 0.0 | 2.0 | 0.00 | 0.00 | 0.00 | 98 | 1013.2 |
| 20260902062809 | 78 | 258 | 0.0 | 2.0 | 0.00 | 0.00 | 0.00 | 98 | 1013.2 |
| 20260902062709 | 78 | 0 | 0.0 | 2.0 | 0.00 | 0.00 | 0.00 | 98 | 1013.2 |
| 20260902062607 | 78 | 304 | 0.0 | 2.0 | 0.00 | 0.00 | 0.00 | 98 | 1013.2 |
| 20260902062508 | 78 | 289 | 0.0 | 2.0 | 0.00 | 0.00 | 0.00 | 98 | 1013.2 |
| 20260902062427 | 78 | 305 | 0.0 | 2.0 | 0.00 | 0.00 | 0.00 | 98 | 1013.2 |
| 20260902062402 | 78 | 324 | 0.0 | 2.0 | 0.00 | 0.00 | 0.00 | 98 | 1013.2 |
| 20260902062305 | 78 | 266 | 0.0 | 2.0 | 0.00 | 0.00 | 0.00 | 98 | 1013.2 |
| 20260902062202 | 78 | 275 | 0.0 | 2.0 | 0.00 | 0.00 | 0.00 | 98 | 1013.2 |
| 20260902062150 | 78 | 257 | 0.0 | 2.0 | 0.00 | 0.00 | 0.00 | 98 | 1013.2 |
| 20260902062102 | 78 | 326 | 0.0 | 2.0 | 0.00 | 0.00 | 0.00 | 98 | 1013.2 |
| 20260902062033 | 78 | 281 | 0.0 | 2.0 | 0.00 | 0.00 | 0.00 | 98 | 1013.2 |
| 20260902061901 | 78 | 0 | 0.0 | 2.0 | 0.00 | 0.00 | 0.00 | 98 | 1013.2 |
| 20260902061752 | 78 | 290 | 0.0 | 2.0 | 0.00 | 0.00 | 0.00 | 98 | 1013.2 |
| 20260902061653 | 78 | 278 | 0.0 | 2.0 | 0.00 | 0.00 | 0.00 | 97 | 1013.2 |
| 20260902061649 | 78 | 286 | 0.0 | 2.0 | 0.00 | 0.00 | 0.00 | 97 | 1013.2 |
| 20260902061549 | 78 | 230 | 1.0 | 2.0 | 0.00 | 0.00 | 0.00 | 97 | 1013.2 |
| 20260902061529 | 78 | 274 | 0.0 | 2.0 | 0.00 | 0.00 | 0.00 | 97 | 1013.2 |
| 20260902061343 | 78 | 0 | 0.0 | 2.0 | 0.00 | 0.00 | 0.00 | 97 | 1013.1 |
| 20260902061240 | 78 | 242 | 0.0 | 2.0 | 0.00 | 0.00 | 0.00 | 97 | 1013.1 |
| 20260902061140 | 78 | 284 | 0.0 | 2.0 | 0.00 | 0.00 | 0.00 | 97 | 1013.1 |
| 20260902061040 | 78 | 0 | 0.0 | 2.0 | 0.00 | 0.00 | 0.00 | 97 | 1013.0 |
| 20260902060938 | 78 | 281 | 1.0 | 2.0 | 0.00 | 0.00 | 0.00 | 97 | 1013.0 |
| 20260902060917 | 78 | 218 | 1.0 | 2.0 | 0.00 | 0.00 | 0.00 | 97 | 1013.0 |
| 20260902060837 | 78 | 304 | 1.0 | 2.0 | 0.00 | 0.00 | 0.00 | 97 | 1013.0 |
| 20260902060731 | 78 | 37 | 1.0 | 2.0 | 0.00 | 0.00 | 0.00 | 97 | 1013.0 |
| 20260902060631 | 78 | 132 | 1.0 | 2.0 | 0.00 | 0.00 | 0.00 | 97 | 1013.0 |
| 20260902060531 | 78 | 214 | 1.0 | 2.0 | 0.00 | 0.00 | 0.00 | 97 | 1013.0 |
| 20260902060431 | 78 | 0 | 1.0 | 2.0 | 0.00 | 0.00 | 0.00 | 97 | 1013.0 |
| 20260902060414 | 78 | 241 | 1.0 | 2.0 | 0.00 | 0.00 | 0.00 | 97 | 1013.0 |
| 20260902060331 | 78 | 275 | 0.0 | 2.0 | 0.00 | 0.00 | 0.00 | 97 | 1013.0 |
| 20260902060231 | 78 | 0 | 0.0 | 2.0 | 0.00 | 0.00 | 0.00 | 97 | 1013.0 |
| 20260902060128 | 78 | 262 | 0.0 | 1.0 | 0.00 | 0.00 | 0.00 | 97 | 1013.0 |
| 20260902060025 | 78 | 252 | 0.0 | 1.0 | 0.00 | 0.00 | 0.00 | 97 | 1013.0 |
| 20260902055925 | 78 | 289 | 0.0 | 1.0 | 0.00 | 0.00 | 0.00 | 97 | 1013.0 |
| 20260902055914 | 78 | 298 | 0.0 | 1.0 | 0.00 | 0.00 | 0.00 | 97 | 1013.0 |
| 20260902055825 | 78 | 281 | 0.0 | 1.0 | 0.00 | 0.00 | 0.00 | 97 | 1013.0 |
| 20260902055725 | 78 | 268 | 0.0 | 1.0 | 0.00 | 0.00 | 0.00 | 97 | 1013.0 |
| 20260902055625 | 78 | 238 | 0.0 | 1.0 | 0.00 | 0.00 | 0.00 | 97 | 1013.0 |
| 20260902055525 | 78 | 254 | 0.0 | 1.0 | 0.00 | 0.00 | 0.00 | 97 | 1013.0 |
| 20260902055425 | 78 | 289 | 0.0 | 1.0 | 0.00 | 0.00 | 0.00 | 97 | 1013.0 |
| 20260902055414 | 78 | 295 | 0.0 | 1.0 | 0.00 | 0.00 | 0.00 | 97 | 1013.0 |
| 20260902055325 | 78 | 288 | 0.0 | 1.0 | 0.00 | 0.00 | 0.00 | 97 | 1013.1 |
| 20260902055222 | 78 | 288 | 0.0 | 1.0 | 0.00 | 0.00 | 0.00 | 97 | 1013.1 |
| 20260902055122 | 78 | 292 | 0.0 | 1.0 | 0.00 | 0.00 | 0.00 | 96 | 1013.1 |
| 20260902055022 | 78 | 295 | 0.0 | 1.0 | 0.00 | 0.00 | 0.00 | 96 | 1013.1 |
| 20260902054922 | 78 | 281 | 0.0 | 1.0 | 0.00 | 0.00 | 0.00 | 96 | 1013.1 |
| 20260902054916 | 78 | 24 | 0.0 | 1.0 | 0.00 | 0.00 | 0.00 | 96 | 1013.1 |
| 20260902054820 | 78 | 230 | 0.0 | 1.0 | 0.00 | 0.00 | 0.00 | 96 | 1013.1 |
| 20260902054719 | 78 | 356 | 0.0 | 1.0 | 0.00 | 0.00 | 0.00 | 96 | 1013.1 |
| 20260902054623 | 78 | 301 | 0.0 | 1.0 | 0.00 | 0.00 | 0.00 | 96 | 1013.1 |
| 20260902054516 | 78 | 0 | 0.0 | 1.0 | 0.00 | 0.00 | 0.00 | 96 | 1013.1 |
| 20260902054413 | 78 | 0 | 0.0 | 1.0 | 0.00 | 0.00 | 0.00 | 96 | 1013.1 |
| 20260902054307 | 78 | 295 | 0.0 | 1.0 | 0.00 | 0.00 | 0.00 | 96 | 1013.1 |
| 20260902054208 | 78 | 319 | 0.0 | 1.0 | 0.00 | 0.00 | 0.00 | 96 | 1013.1 |
| 20260902054107 | 78 | 0 | 0.0 | 1.0 | 0.00 | 0.00 | 0.00 | 96 | 1013.1 |
| 20260902054007 | 78 | 0 | 0.0 | 1.0 | 0.00 | 0.00 | 0.00 | 96 | 1013.1 |
| 20260902053907 | 78 | 0 | 0.0 | 1.0 | 0.00 | 0.00 | 0.00 | 96 | 1013.1 |
| 20260902053808 | 78 | 317 | 0.0 | 1.0 | 0.00 | 0.00 | 0.00 | 96 | 1013.1 |
| 20260902053707 | 78 | 0 | 0.0 | 1.0 | 0.00 | 0.00 | 0.00 | 96 | 1013.1 |
| 20260902053608 | 78 | 8 | 0.0 | 1.0 | 0.00 | 0.00 | 0.00 | 96 | 1013.1 |
| 20260902053507 | 78 | 28 | 0.0 | 1.0 | 0.00 | 0.00 | 0.00 | 96 | 1013.1 |
| 20260902053407 | 78 | 0 | 0.0 | 1.0 | 0.00 | 0.00 | 0.00 | 96 | 1013.1 |
| 20260902053304 | 78 | 6 | 0.0 | 1.0 | 0.00 | 0.00 | 0.00 | 96 | 1013.1 |
| 20260902053203 | 78 | 0 | 0.0 | 1.0 | 0.00 | 0.00 | 0.00 | 95 | 1013.1 |
| 20260902053058 | 78 | 0 | 0.0 | 1.0 | 0.00 | 0.00 | 0.00 | 95 | 1013.1 |
| 20260902052958 | 78 | 0 | 0.0 | 1.0 | 0.00 | 0.00 | 0.00 | 95 | 1013.2 |
| 20260902052903 | 78 | 0 | 0.0 | 1.0 | 0.00 | 0.00 | 0.00 | 95 | 1013.2 |
| 20260902052858 | 78 | 329 | 0.0 | 1.0 | 0.00 | 0.00 | 0.00 | 95 | 1013.2 |
| 20260902052759 | 78 | 320 | 0.0 | 1.0 | 0.00 | 0.00 | 0.00 | 95 | 1013.2 |
| 20260902052659 | 78 | 180 | 0.0 | 1.0 | 0.00 | 0.00 | 0.00 | 95 | 1013.2 |
| 20260902052559 | 78 | 0 | 0.0 | 1.0 | 0.00 | 0.00 | 0.00 | 95 | 1013.2 |
| 20260902052459 | 78 | 0 | 0.0 | 1.0 | 0.00 | 0.00 | 0.00 | 95 | 1013.2 |
| 20260902052403 | 78 | 0 | 0.0 | 1.0 | 0.00 | 0.00 | 0.00 | 95 | 1013.2 |
| 20260902052359 | 78 | 0 | 0.0 | 1.0 | 0.00 | 0.00 | 0.00 | 95 | 1013.2 |
| 20260902052249 | 78 | 0 | 0.0 | 1.0 | 0.00 | 0.00 | 0.00 | 95 | 1013.1 |
| 20260902052149 | 78 | 0 | 0.0 | 1.0 | 0.00 | 0.00 | 0.00 | 95 | 1013.1 |
| 20260902052049 | 78 | 341 | 0.0 | 1.0 | 0.00 | 0.00 | 0.00 | 95 | 1013.1 |
| 20260902051949 | 78 | 0 | 0.0 | 1.0 | 0.00 | 0.00 | 0.00 | 95 | 1013.2 |
| 20260902051900 | 79 | 352 | 0.0 | 1.0 | 0.00 | 0.00 | 0.00 | 95 | 1013.2 |
| 20260902051849 | 79 | 0 | 0.0 | 1.0 | 0.00 | 0.00 | 0.00 | 95 | 1013.2 |
| 20260902051746 | 79 | 83 | 0.0 | 1.0 | 0.00 | 0.00 | 0.00 | 95 | 1013.1 |
| 20260902051646 | 79 | 0 | 0.0 | 1.0 | 0.00 | 0.00 | 0.00 | 95 | 1013.1 |
| 20260902051541 | 79 | 349 | 0.0 | 1.0 | 0.00 | 0.00 | 0.00 | 95 | 1013.1 |
| 20260902051440 | 79 | 0 | 0.0 | 1.0 | 0.00 | 0.00 | 0.00 | 95 | 1013.1 |
| 20260902051400 | 79 | 199 | 0.0 | 1.0 | 0.00 | 0.00 | 0.00 | 95 | 1013.1 |
| 20260902051340 | 79 | 354 | 0.0 | 1.0 | 0.00 | 0.00 | 0.00 | 95 | 1013.1 |
| 20260902051238 | 79 | 62 | 0.0 | 1.0 | 0.00 | 0.00 | 0.00 | 95 | 1013.1 |
| 20260902051135 | 79 | 46 | 0.0 | 1.0 | 0.00 | 0.00 | 0.00 | 95 | 1013.1 |
| 20260902051035 | 79 | 330 | 0.0 | 1.0 | 0.00 | 0.00 | 0.00 | 95 | 1013.1 |
| 20260902050934 | 79 | 34 | 0.0 | 1.0 | 0.00 | 0.00 | 0.00 | 95 | 1013.1 |
| 20260902050901 | 79 | 35 | 0.0 | 1.0 | 0.00 | 0.00 | 0.00 | 95 | 1013.1 |
| 20260902050834 | 79 | 0 | 0.0 | 1.0 | 0.00 | 0.00 | 0.00 | 95 | 1013.1 |
| 20260902050732 | 79 | 0 | 0.0 | 1.0 | 0.00 | 0.00 | 0.00 | 95 | 1013.1 |
| 20260902050626 | 79 | 286 | 0.0 | 1.0 | 0.00 | 0.00 | 0.00 | 95 | 1013.2 |
| 20260902050526 | 79 | 266 | 0.0 | 1.0 | 0.00 | 0.00 | 0.00 | 95 | 1013.2 |
| 20260902050423 | 79 | 0 | 0.0 | 1.0 | 0.00 | 0.00 | 0.00 | 95 | 1013.2 |
| 20260902050400 | 79 | 268 | 0.0 | 1.0 | 0.00 | 0.00 | 0.00 | 95 | 1013.2 |
| 20260902050323 | 79 | 0 | 0.0 | 1.0 | 0.00 | 0.00 | 0.00 | 95 | 1013.2 |
| 20260902050223 | 79 | 55 | 0.0 | 1.0 | 0.00 | 0.00 | 0.00 | 95 | 1013.2 |
| 20260902050123 | 79 | 0 | 0.0 | 1.0 | 0.00 | 0.00 | 0.00 | 95 | 1013.2 |
| 20260902050019 | 79 | 0 | 0.0 | 1.0 | 0.00 | 0.00 | 0.00 | 95 | 1013.2 |
| 20260902045917 | 79 | 0 | 0.0 | 1.0 | 0.00 | 0.00 | 0.00 | 95 | 1013.2 |
| 20260902045900 | 79 | 0 | 0.0 | 1.0 | 0.00 | 0.00 | 0.00 | 94 | 1013.1 |
| 20260902045814 | 79 | 0 | 0.0 | 1.0 | 0.00 | 0.00 | 0.00 | 94 | 1013.1 |
| 20260902045713 | 79 | 0 | 0.0 | 1.0 | 0.00 | 0.00 | 0.00 | 94 | 1013.1 |
| 20260902045622 | 79 | 280 | 0.0 | 2.0 | 0.00 | 0.00 | 0.00 | 94 | 1013.2 |
| 20260902045613 | 79 | 0 | 0.0 | 1.0 | 0.00 | 0.00 | 0.00 | 94 | 1013.1 |
| 20260902045514 | 79 | 261 | 0.0 | 2.0 | 0.00 | 0.00 | 0.00 | 94 | 1013.1 |
| 20260902045507 | 79 | 10 | 0.0 | 2.0 | 0.00 | 0.00 | 0.00 | 94 | 1013.2 |
| 20260902045311 | 79 | 256 | 0.0 | 2.0 | 0.00 | 0.00 | 0.00 | 94 | 1013.2 |
| 20260902045211 | 79 | 278 | 0.0 | 2.0 | 0.00 | 0.00 | 0.00 | 94 | 1013.2 |
| 20260902045111 | 79 | 255 | 0.0 | 2.0 | 0.00 | 0.00 | 0.00 | 94 | 1013.2 |
| 20260902045011 | 79 | 290 | 0.0 | 2.0 | 0.00 | 0.00 | 0.00 | 94 | 1013.2 |
| 20260902044911 | 79 | 5 | 0.0 | 2.0 | 0.00 | 0.00 | 0.00 | 94 | 1013.2 |
| 20260902044857 | 79 | 0 | 0.0 | 2.0 | 0.00 | 0.00 | 0.00 | 94 | 1013.2 |
| 20260902044811 | 79 | 0 | 0.0 | 2.0 | 0.00 | 0.00 | 0.00 | 94 | 1013.2 |
| 20260902044711 | 79 | 201 | 0.0 | 2.0 | 0.00 | 0.00 | 0.00 | 94 | 1013.2 |
| 20260902044624 | 79 | 0 | 0.0 | 1.0 | 0.00 | 0.00 | 0.00 | 94 | 1013.2 |
| 20260902044611 | 79 | 288 | 0.0 | 2.0 | 0.00 | 0.00 | 0.00 | 94 | 1013.2 |
| 20260902044511 | 79 | 358 | 0.0 | 1.0 | 0.00 | 0.00 | 0.00 | 94 | 1013.2 |
| 20260902044503 | 79 | 281 | 0.0 | 1.0 | 0.00 | 0.00 | 0.00 | 94 | 1013.2 |
| 20260902044312 | 79 | 294 | 0.0 | 1.0 | 0.00 | 0.00 | 0.00 | 94 | 1013.2 |
| 20260902044211 | 79 | 0 | 0.0 | 1.0 | 0.00 | 0.00 | 0.00 | 94 | 1013.1 |
| 20260902044112 | 79 | 272 | 0.0 | 1.0 | 0.00 | 0.00 | 0.00 | 94 | 1013.1 |
| 20260902044012 | 79 | 286 | 0.0 | 1.0 | 0.00 | 0.00 | 0.00 | 94 | 1013.1 |
| 20260902043911 | 79 | 213 | 0.0 | 1.0 | 0.00 | 0.00 | 0.00 | 95 | 1013.2 |
| 20260902043859 | 79 | 199 | 0.0 | 1.0 | 0.00 | 0.00 | 0.00 | 95 | 1013.2 |
| 20260902043811 | 79 | 0 | 0.0 | 1.0 | 0.00 | 0.00 | 0.00 | 95 | 1013.2 |
| 20260902043706 | 78 | 0 | 0.0 | 1.0 | 0.00 | 0.00 | 0.00 | 95 | 1013.2 |
| 20260902043605 | 78 | 0 | 0.0 | 1.0 | 0.00 | 0.00 | 0.00 | 95 | 1013.2 |
| 20260902043456 | 78 | 40 | 0.0 | 1.0 | 0.00 | 0.00 | 0.00 | 95 | 1013.2 |
| 20260902043401 | 78 | 140 | 0.0 | 1.0 | 0.00 | 0.00 | 0.00 | 95 | 1013.2 |
| 20260902043357 | 78 | 223 | 0.0 | 1.0 | 0.00 | 0.00 | 0.00 | 95 | 1013.2 |
| 20260902043257 | 78 | 239 | 0.0 | 1.0 | 0.00 | 0.00 | 0.00 | 95 | 1013.2 |
| 20260902043156 | 78 | 0 | 0.0 | 1.0 | 0.00 | 0.00 | 0.00 | 95 | 1013.2 |
| 20260902043057 | 78 | 301 | 0.0 | 1.0 | 0.00 | 0.00 | 0.00 | 95 | 1013.2 |
| 20260902042954 | 78 | 63 | 0.0 | 1.0 | 0.00 | 0.00 | 0.00 | 95 | 1013.3 |
| 20260902042854 | 78 | 0 | 0.0 | 1.0 | 0.00 | 0.00 | 0.00 | 95 | 1013.3 |
| 20260902042754 | 78 | 0 | 0.0 | 1.0 | 0.00 | 0.00 | 0.00 | 95 | 1013.3 |
| 20260902042654 | 78 | 0 | 0.0 | 1.0 | 0.00 | 0.00 | 0.00 | 95 | 1013.3 |
| 20260902042552 | 78 | 0 | 0.0 | 1.0 | 0.00 | 0.00 | 0.00 | 95 | 1013.3 |
| 20260902042448 | 78 | 303 | 0.0 | 1.0 | 0.00 | 0.00 | 0.00 | 95 | 1013.3 |
| 20260902042352 | 78 | 255 | 0.0 | 1.0 | 0.00 | 0.00 | 0.00 | 95 | 1013.2 |
| 20260902042345 | 78 | 285 | 0.0 | 1.0 | 0.00 | 0.00 | 0.00 | 95 | 1013.2 |
| 20260902042242 | 78 | 297 | 0.0 | 1.0 | 0.00 | 0.00 | 0.00 | 95 | 1013.2 |
| 20260902042142 | 78 | 201 | 0.0 | 1.0 | 0.00 | 0.00 | 0.00 | 95 | 1013.2 |
| 20260902042042 | 78 | 311 | 0.0 | 1.0 | 0.00 | 0.00 | 0.00 | 95 | 1013.2 |
| 20260902041942 | 78 | 0 | 0.0 | 1.0 | 0.00 | 0.00 | 0.00 | 95 | 1013.2 |
| 20260902041852 | 78 | 310 | 0.0 | 1.0 | 0.00 | 0.00 | 0.00 | 95 | 1013.2 |
| 20260902041842 | 78 | 293 | 0.0 | 1.0 | 0.00 | 0.00 | 0.00 | 95 | 1013.2 |
| 20260902041742 | 78 | 0 | 0.0 | 1.0 | 0.00 | 0.00 | 0.00 | 95 | 1013.2 |
| 20260902041642 | 78 | 283 | 0.0 | 1.0 | 0.00 | 0.00 | 0.00 | 95 | 1013.2 |
| 20260902041539 | 78 | 268 | 0.0 | 1.0 | 0.00 | 0.00 | 0.00 | 95 | 1013.2 |
| 20260902041439 | 78 | 293 | 0.0 | 1.0 | 0.00 | 0.00 | 0.00 | 95 | 1013.2 |
| 20260902041353 | 78 | 280 | 0.0 | 1.0 | 0.00 | 0.00 | 0.00 | 95 | 1013.2 |
| 20260902041336 | 78 | 0 | 0.0 | 1.0 | 0.00 | 0.00 | 0.00 | 95 | 1013.2 |
| 20260902041226 | 78 | 300 | 0.0 | 1.0 | 0.00 | 0.00 | 0.00 | 95 | 1013.2 |
| 20260902041120 | 78 | 263 | 0.0 | 1.0 | 0.00 | 0.00 | 0.00 | 95 | 1013.2 |
| 20260902041021 | 78 | 0 | 0.0 | 1.0 | 0.00 | 0.00 | 0.00 | 94 | 1013.2 |
| 20260902040921 | 78 | 296 | 0.0 | 1.0 | 0.00 | 0.00 | 0.00 | 94 | 1013.2 |
| 20260902040849 | 78 | 0 | 0.0 | 1.0 | 0.00 | 0.00 | 0.00 | 94 | 1013.3 |
| 20260902040820 | 78 | 7 | 0.0 | 1.0 | 0.00 | 0.00 | 0.00 | 94 | 1013.3 |
| 20260902040720 | 78 | 0 | 0.0 | 1.0 | 0.00 | 0.00 | 0.00 | 94 | 1013.3 |
| 20260902040620 | 78 | 293 | 0.0 | 1.0 | 0.00 | 0.00 | 0.00 | 94 | 1013.3 |
| 20260902040518 | 78 | 309 | 0.0 | 1.0 | 0.00 | 0.00 | 0.00 | 94 | 1013.3 |
| 20260902040418 | 78 | 191 | 0.0 | 1.0 | 0.00 | 0.00 | 0.00 | 94 | 1013.3 |
| 20260902040344 | 78 | 0 | 0.0 | 1.0 | 0.00 | 0.00 | 0.00 | 94 | 1013.3 |
| 20260902040318 | 78 | 293 | 0.0 | 1.0 | 0.00 | 0.00 | 0.00 | 94 | 1013.3 |
| 20260902040212 | 78 | 0 | 0.0 | 1.0 | 0.00 | 0.00 | 0.00 | 94 | 1013.3 |
| 20260902040109 | 78 | 237 | 0.0 | 1.0 | 0.00 | 0.00 | 0.00 | 94 | 1013.2 |
| 20260902040008 | 78 | 314 | 0.0 | 2.0 | 0.00 | 0.00 | 0.00 | 94 | 1013.2 |
| 20260902035906 | 78 | 295 | 0.0 | 2.0 | 0.00 | 0.00 | 0.00 | 94 | 1013.2 |
| 20260902035832 | 78 | 291 | 0.0 | 2.0 | 0.00 | 0.00 | 0.00 | 94 | 1013.2 |
| 20260902035803 | 78 | 302 | 0.0 | 2.0 | 0.00 | 0.00 | 0.00 | 94 | 1013.2 |
| 20260902035703 | 78 | 0 | 0.0 | 2.0 | 0.00 | 0.00 | 0.00 | 94 | 1013.2 |
| 20260902035601 | 78 | 296 | 0.0 | 2.0 | 0.00 | 0.00 | 0.00 | 94 | 1013.2 |
| 20260902035500 | 78 | 0 | 0.0 | 2.0 | 0.00 | 0.00 | 0.00 | 94 | 1013.2 |
| 20260902035357 | 78 | 274 | 0.0 | 2.0 | 0.00 | 0.00 | 0.00 | 94 | 1013.2 |
| 20260902035331 | 78 | 273 | 0.0 | 2.0 | 0.00 | 0.00 | 0.00 | 94 | 1013.2 |
| 20260902035257 | 78 | 317 | 0.0 | 2.0 | 0.00 | 0.00 | 0.00 | 94 | 1013.2 |
| 20260902035157 | 78 | 304 | 0.0 | 2.0 | 0.00 | 0.00 | 0.00 | 93 | 1013.2 |
| 20260902035050 | 78 | 318 | 0.0 | 2.0 | 0.00 | 0.00 | 0.00 | 93 | 1013.2 |
| 20260902034952 | 78 | 321 | 0.0 | 1.0 | 0.00 | 0.00 | 0.00 | 93 | 1013.2 |
| 20260902034851 | 78 | 350 | 0.0 | 1.0 | 0.00 | 0.00 | 0.00 | 93 | 1013.2 |
| 20260902034829 | 78 | 287 | 0.0 | 1.0 | 0.00 | 0.00 | 0.00 | 93 | 1013.2 |
| 20260902034752 | 78 | 64 | 0.0 | 1.0 | 0.00 | 0.00 | 0.00 | 93 | 1013.2 |
| 20260902034651 | 78 | 0 | 0.0 | 1.0 | 0.00 | 0.00 | 0.00 | 93 | 1013.2 |
| 20260902034551 | 78 | 342 | 0.0 | 1.0 | 0.00 | 0.00 | 0.00 | 93 | 1013.2 |
| 20260902034451 | 78 | 0 | 0.0 | 1.0 | 0.00 | 0.00 | 0.00 | 93 | 1013.3 |
| 20260902034352 | 78 | 295 | 0.0 | 1.0 | 0.00 | 0.00 | 0.00 | 93 | 1013.3 |
| 20260902034329 | 78 | 307 | 0.0 | 1.0 | 0.00 | 0.00 | 0.00 | 93 | 1013.3 |
| 20260902034248 | 78 | 344 | 0.0 | 1.0 | 0.00 | 0.00 | 0.00 | 93 | 1013.3 |
| 20260902034145 | 78 | 225 | 0.0 | 1.0 | 0.00 | 0.00 | 0.00 | 93 | 1013.3 |
| 20260902034054 | 78 | 0 | 0.0 | 1.0 | 0.00 | 0.00 | 0.00 | 93 | 1013.3 |
| 20260902034045 | 78 | 321 | 0.0 | 1.0 | 0.00 | 0.00 | 0.00 | 93 | 1013.3 |
| 20260902033945 | 78 | 0 | 0.0 | 1.0 | 0.00 | 0.00 | 0.00 | 93 | 1013.3 |
| 20260902033934 | 78 | 292 | 0.0 | 1.0 | 0.00 | 0.00 | 0.00 | 93 | 1013.3 |
| 20260902033745 | 78 | 0 | 0.0 | 1.0 | 0.00 | 0.00 | 0.00 | 93 | 1013.3 |
| 20260902033645 | 78 | 318 | 0.0 | 1.0 | 0.00 | 0.00 | 0.00 | 93 | 1013.3 |
| 20260902033545 | 78 | 0 | 0.0 | 1.0 | 0.00 | 0.00 | 0.00 | 93 | 1013.3 |
| 20260902033445 | 78 | 315 | 0.0 | 1.0 | 0.00 | 0.00 | 0.00 | 93 | 1013.2 |
| 20260902033342 | 78 | 355 | 0.0 | 1.0 | 0.00 | 0.00 | 0.00 | 92 | 1013.2 |
| 20260902033329 | 78 | 348 | 0.0 | 1.0 | 0.00 | 0.00 | 0.00 | 92 | 1013.2 |
| 20260902033242 | 78 | 0 | 0.0 | 1.0 | 0.00 | 0.00 | 0.00 | 92 | 1013.2 |
| 20260902033143 | 78 | 332 | 0.0 | 2.0 | 0.00 | 0.00 | 0.00 | 92 | 1013.2 |
| 20260902033043 | 78 | 114 | 0.0 | 2.0 | 0.00 | 0.00 | 0.00 | 92 | 1013.2 |
| 20260902032936 | 78 | 0 | 0.0 | 2.0 | 0.00 | 0.00 | 0.00 | 92 | 1013.1 |
| 20260902032836 | 78 | 16 | 0.0 | 2.0 | 0.00 | 0.00 | 0.00 | 92 | 1013.1 |
| 20260902032828 | 78 | 0 | 0.0 | 2.0 | 0.00 | 0.00 | 0.00 | 92 | 1013.1 |
| 20260902032736 | 78 | 325 | 0.0 | 2.0 | 0.00 | 0.00 | 0.00 | 92 | 1013.1 |
| 20260902032633 | 78 | 314 | 0.0 | 2.0 | 0.00 | 0.00 | 0.00 | 92 | 1013.1 |
| 20260902032550 | 79 | 0 | 0.0 | 2.0 | 0.00 | 0.00 | 0.00 | 92 | 1013.1 |
| 20260902032533 | 78 | 23 | 0.0 | 2.0 | 0.00 | 0.00 | 0.00 | 92 | 1013.1 |
| 20260902032440 | 79 | 0 | 0.0 | 2.0 | 0.00 | 0.00 | 0.00 | 92 | 1013.1 |
| 20260902032434 | 79 | 0 | 0.0 | 2.0 | 0.00 | 0.00 | 0.00 | 92 | 1013.1 |
| 20260902032231 | 79 | 0 | 0.0 | 2.0 | 0.00 | 0.00 | 0.00 | 92 | 1013.0 |
| 20260902032130 | 79 | 285 | 0.0 | 2.0 | 0.00 | 0.00 | 0.00 | 92 | 1013.0 |
| 20260902032030 | 79 | 345 | 0.0 | 2.0 | 0.00 | 0.00 | 0.00 | 92 | 1013.0 |
| 20260902031930 | 79 | 0 | 0.0 | 2.0 | 0.00 | 0.00 | 0.00 | 92 | 1013.0 |
| 20260902031832 | 79 | 344 | 0.0 | 2.0 | 0.00 | 0.00 | 0.00 | 92 | 1013.0 |
| 20260902031827 | 79 | 23 | 0.0 | 2.0 | 0.00 | 0.00 | 0.00 | 92 | 1013.0 |
| 20260902031731 | 79 | 347 | 0.0 | 2.0 | 0.00 | 0.00 | 0.00 | 92 | 1013.0 |
| 20260902031631 | 79 | 309 | 0.0 | 2.0 | 0.00 | 0.00 | 0.00 | 92 | 1012.9 |
| 20260902031530 | 79 | 265 | 0.0 | 1.0 | 0.00 | 0.00 | 0.00 | 92 | 1012.9 |
| 20260902031428 | 79 | 182 | 0.0 | 1.0 | 0.00 | 0.00 | 0.00 | 92 | 1012.9 |
| 20260902031328 | 79 | 0 | 0.0 | 1.0 | 0.00 | 0.00 | 0.00 | 92 | 1012.9 |
| 20260902031228 | 79 | 278 | 0.0 | 1.0 | 0.00 | 0.00 | 0.00 | 92 | 1012.9 |
| 20260902031125 | 79 | 296 | 0.0 | 1.0 | 0.00 | 0.00 | 0.00 | 92 | 1012.8 |
| 20260902031024 | 79 | 304 | 0.0 | 1.0 | 0.00 | 0.00 | 0.00 | 91 | 1012.8 |
| 20260902030918 | 79 | 310 | 0.0 | 1.0 | 0.00 | 0.00 | 0.00 | 91 | 1012.8 |
| 20260902030826 | 79 | 0 | 0.0 | 1.0 | 0.00 | 0.00 | 0.00 | 91 | 1012.8 |
| 20260902030818 | 79 | 325 | 0.0 | 1.0 | 0.00 | 0.00 | 0.00 | 91 | 1012.8 |
| 20260902030718 | 79 | 230 | 0.0 | 1.0 | 0.00 | 0.00 | 0.00 | 91 | 1012.8 |
| 20260902030618 | 79 | 0 | 0.0 | 1.0 | 0.00 | 0.00 | 0.00 | 91 | 1012.8 |
| 20260902030518 | 79 | 327 | 0.0 | 1.0 | 0.00 | 0.00 | 0.00 | 91 | 1012.8 |
| 20260902030416 | 79 | 309 | 0.0 | 1.0 | 0.00 | 0.00 | 0.00 | 91 | 1012.7 |
| 20260902030323 | 79 | 0 | 0.0 | 1.0 | 0.00 | 0.00 | 0.00 | 91 | 1012.7 |
| 20260902030313 | 79 | 298 | 0.0 | 1.0 | 0.00 | 0.00 | 0.00 | 91 | 1012.7 |
| 20260902030213 | 79 | 0 | 0.0 | 2.0 | 0.00 | 0.00 | 0.00 | 91 | 1012.7 |
| 20260902030113 | 79 | 0 | 0.0 | 2.0 | 0.00 | 0.00 | 0.00 | 91 | 1012.7 |
| 20260902030012 | 79 | 0 | 0.0 | 2.0 | 0.00 | 0.00 | 0.00 | 91 | 1012.7 |
| 20260902025910 | 79 | 345 | 0.0 | 2.0 | 0.00 | 0.00 | 0.00 | 90 | 1012.7 |
| 20260902025839 | 79 | 306 | 0.0 | 2.0 | 0.00 | 0.00 | 0.00 | 90 | 1012.7 |
| 20260902025826 | 79 | 280 | 0.0 | 2.0 | 0.00 | 0.00 | 0.00 | 90 | 1012.7 |
| 20260902025704 | 79 | 251 | 0.0 | 2.0 | 0.00 | 0.00 | 0.00 | 90 | 1012.7 |
| 20260902025600 | 79 | 254 | 0.0 | 2.0 | 0.00 | 0.00 | 0.00 | 90 | 1012.7 |
| 20260902025500 | 79 | 352 | 0.0 | 2.0 | 0.00 | 0.00 | 0.00 | 90 | 1012.7 |
| 20260902025400 | 79 | 0 | 0.0 | 2.0 | 0.00 | 0.00 | 0.00 | 90 | 1012.7 |
| 20260902025312 | 79 | 18 | 0.0 | 2.0 | 0.00 | 0.00 | 0.00 | 90 | 1012.7 |
| 20260902025255 | 79 | 333 | 0.0 | 2.0 | 0.00 | 0.00 | 0.00 | 90 | 1012.6 |
| 20260902025152 | 80 | 0 | 0.0 | 2.0 | 0.00 | 0.00 | 0.00 | 90 | 1012.6 |
| 20260902025052 | 80 | 297 | 0.0 | 2.0 | 0.00 | 0.00 | 0.00 | 90 | 1012.6 |
| 20260902025033 | 80 | 217 | 0.0 | 2.0 | 0.00 | 0.00 | 0.00 | 89 | 1012.5 |
| 20260902024949 | 80 | 293 | 0.0 | 2.0 | 0.00 | 0.00 | 0.00 | 90 | 1012.6 |
| 20260902024917 | 80 | 302 | 0.0 | 2.0 | 0.00 | 0.00 | 0.00 | 89 | 1012.5 |
| 20260902024746 | 80 | 0 | 0.0 | 2.0 | 0.00 | 0.00 | 0.00 | 89 | 1012.5 |
| 20260902024643 | 80 | 318 | 0.0 | 2.0 | 0.00 | 0.00 | 0.00 | 89 | 1012.4 |
| 20260902024543 | 80 | 354 | 0.0 | 2.0 | 0.00 | 0.00 | 0.00 | 89 | 1012.4 |
| 20260902024443 | 80 | 25 | 0.0 | 2.0 | 0.00 | 0.00 | 0.00 | 89 | 1012.4 |
| 20260902024340 | 80 | 258 | 0.0 | 2.0 | 0.00 | 0.00 | 0.00 | 89 | 1012.4 |
| 20260902024309 | 80 | 327 | 0.0 | 2.0 | 0.00 | 0.00 | 0.00 | 89 | 1012.4 |
| 20260902024238 | 80 | 26 | 0.0 | 2.0 | 0.00 | 0.00 | 0.00 | 89 | 1012.4 |
| 20260902024137 | 80 | 286 | 0.0 | 2.0 | 0.00 | 0.00 | 0.00 | 89 | 1012.4 |
| 20260902024040 | 80 | 288 | 0.0 | 1.0 | 0.00 | 0.00 | 0.00 | 89 | 1012.4 |
| 20260902024034 | 80 | 356 | 0.0 | 1.0 | 0.00 | 0.00 | 0.00 | 89 | 1012.4 |
| 20260902023938 | 80 | 329 | 0.0 | 1.0 | 0.00 | 0.00 | 0.00 | 89 | 1012.4 |
| 20260902023915 | 80 | 291 | 0.0 | 1.0 | 0.00 | 0.00 | 0.00 | 89 | 1012.4 |
| 20260902023734 | 80 | 334 | 0.0 | 1.0 | 0.00 | 0.00 | 0.00 | 89 | 1012.3 |
| 20260902023628 | 80 | 299 | 0.0 | 1.0 | 0.00 | 0.00 | 0.00 | 89 | 1012.3 |
| 20260902023534 | 80 | 7 | 0.0 | 2.0 | 0.00 | 0.00 | 0.00 | 89 | 1012.3 |
| 20260902023529 | 80 | 288 | 0.0 | 2.0 | 0.00 | 0.00 | 0.00 | 89 | 1012.3 |
| 20260902023429 | 80 | 17 | 0.0 | 2.0 | 0.00 | 0.00 | 0.00 | 89 | 1012.3 |
| 20260902023414 | 80 | 25 | 0.0 | 2.0 | 0.00 | 0.00 | 0.00 | 89 | 1012.3 |
| 20260902023228 | 80 | 343 | 0.0 | 2.0 | 0.00 | 0.00 | 0.00 | 89 | 1012.2 |
| 20260902023123 | 80 | 306 | 0.0 | 2.0 | 0.00 | 0.00 | 0.00 | 89 | 1012.2 |
| 20260902023022 | 80 | 0 | 0.0 | 2.0 | 0.00 | 0.00 | 0.00 | 88 | 1012.2 |
| 20260902022919 | 80 | 283 | 0.0 | 2.0 | 0.00 | 0.00 | 0.00 | 88 | 1012.2 |
| 20260902022819 | 80 | 326 | 0.0 | 2.0 | 0.00 | 0.00 | 0.00 | 88 | 1012.2 |
| 20260902022809 | 80 | 325 | 0.0 | 2.0 | 0.00 | 0.00 | 0.00 | 88 | 1012.2 |
| 20260902022719 | 80 | 0 | 0.0 | 2.0 | 0.00 | 0.00 | 0.00 | 88 | 1012.2 |
| 20260902022617 | 80 | 292 | 0.0 | 2.0 | 0.00 | 0.00 | 0.00 | 88 | 1012.2 |
| 20260902022518 | 80 | 288 | 0.0 | 2.0 | 0.00 | 0.00 | 0.00 | 88 | 1012.2 |
| 20260902022416 | 80 | 0 | 0.0 | 2.0 | 0.00 | 0.00 | 0.00 | 88 | 1012.2 |
| 20260902022309 | 80 | 316 | 0.0 | 2.0 | 0.00 | 0.00 | 0.00 | 88 | 1012.2 |
| 20260902022216 | 80 | 0 | 0.0 | 2.0 | 0.00 | 0.00 | 0.00 | 88 | 1012.2 |
| 20260902022116 | 80 | 0 | 0.0 | 2.0 | 0.00 | 0.00 | 0.00 | 88 | 1012.2 |
| 20260902022016 | 80 | 91 | 0.0 | 2.0 | 0.00 | 0.00 | 0.00 | 88 | 1012.2 |
| 20260902021914 | 80 | 0 | 0.0 | 1.0 | 0.00 | 0.00 | 0.00 | 87 | 1012.3 |
| 20260902021805 | 80 | 0 | 0.0 | 1.0 | 0.00 | 0.00 | 0.00 | 87 | 1012.3 |
| 20260902021714 | 80 | 225 | 0.0 | 1.0 | 0.00 | 0.00 | 0.00 | 87 | 1012.3 |
| 20260902021613 | 80 | 0 | 0.0 | 1.0 | 0.00 | 0.00 | 0.00 | 87 | 1012.3 |
| 20260902021515 | 80 | 0 | 0.0 | 1.0 | 0.00 | 0.00 | 0.00 | 87 | 1012.2 |
| 20260902021401 | 80 | 0 | 0.0 | 1.0 | 0.00 | 0.00 | 0.00 | 87 | 1012.2 |
| 20260902021304 | 80 | 223 | 0.0 | 1.0 | 0.00 | 0.00 | 0.00 | 87 | 1012.2 |
| 20260902021259 | 80 | 223 | 0.0 | 1.0 | 0.00 | 0.00 | 0.00 | 87 | 1012.2 |
| 20260902021158 | 80 | 183 | 0.0 | 1.0 | 0.00 | 0.00 | 0.00 | 87 | 1012.2 |
| 20260902021058 | 81 | 0 | 0.0 | 1.0 | 0.00 | 0.00 | 0.00 | 87 | 1012.2 |
| 20260902020955 | 81 | 289 | 0.0 | 1.0 | 0.00 | 0.00 | 0.00 | 87 | 1012.2 |
| 20260902020852 | 81 | 29 | 0.0 | 1.0 | 0.00 | 0.00 | 0.00 | 87 | 1012.2 |
| 20260902020803 | 81 | 301 | 0.0 | 1.0 | 0.00 | 0.00 | 0.00 | 87 | 1012.1 |
| 20260902020750 | 81 | 313 | 0.0 | 1.0 | 0.00 | 0.00 | 0.00 | 87 | 1012.1 |
| 20260902020650 | 81 | 320 | 0.0 | 2.0 | 0.00 | 0.00 | 0.00 | 87 | 1012.1 |
| 20260902020546 | 81 | 9 | 0.0 | 2.0 | 0.00 | 0.00 | 0.00 | 86 | 1012.1 |
| 20260902020446 | 81 | 0 | 0.0 | 2.0 | 0.00 | 0.00 | 0.00 | 86 | 1012.1 |
| 20260902020346 | 81 | 0 | 0.0 | 2.0 | 0.00 | 0.00 | 0.00 | 86 | 1012.0 |
| 20260902020303 | 81 | 339 | 0.0 | 2.0 | 0.00 | 0.00 | 0.00 | 86 | 1012.0 |
| 20260902020244 | 81 | 292 | 0.0 | 2.0 | 0.00 | 0.00 | 0.00 | 86 | 1012.0 |
| 20260902020141 | 81 | 277 | 0.0 | 2.0 | 0.00 | 0.00 | 0.00 | 86 | 1012.0 |
| 20260902020038 | 81 | 342 | 0.0 | 2.0 | 0.00 | 0.00 | 0.00 | 86 | 1011.9 |
| 20260902020013 | 81 | 9 | 0.0 | 2.0 | 0.00 | 0.00 | 0.00 | 86 | 1011.9 |
| 20260902015934 | 81 | 341 | 0.0 | 2.0 | 0.00 | 0.00 | 0.00 | 86 | 1011.9 |
| 20260902015900 | 81 | 295 | 0.0 | 2.0 | 0.00 | 0.00 | 0.00 | 86 | 1011.9 |
| 20260902015734 | 81 | 0 | 0.0 | 2.0 | 0.00 | 0.00 | 0.00 | 86 | 1011.9 |
| 20260902015632 | 81 | 46 | 0.0 | 2.0 | 0.00 | 0.00 | 0.00 | 86 | 1011.9 |
| 20260902015529 | 81 | 5 | 0.0 | 2.0 | 0.00 | 0.00 | 0.00 | 86 | 1011.9 |
| 20260902015428 | 81 | 11 | 0.0 | 2.0 | 0.00 | 0.00 | 0.00 | 86 | 1011.9 |
| 20260902015325 | 81 | 0 | 0.0 | 2.0 | 0.00 | 0.00 | 0.00 | 86 | 1011.9 |
| 20260902015251 | 81 | 325 | 0.0 | 2.0 | 0.00 | 0.00 | 0.00 | 86 | 1011.9 |
| 20260902015225 | 81 | 61 | 0.0 | 2.0 | 0.00 | 0.00 | 0.00 | 86 | 1011.9 |
| 20260902015123 | 81 | 30 | 0.0 | 2.0 | 0.00 | 0.00 | 0.00 | 86 | 1011.8 |
| 20260902015022 | 81 | 258 | 0.0 | 2.0 | 0.00 | 0.00 | 0.00 | 86 | 1011.8 |
| 20260902014922 | 81 | 0 | 0.0 | 2.0 | 0.00 | 0.00 | 0.00 | 86 | 1011.8 |
| 20260902014820 | 81 | 4 | 0.0 | 2.0 | 0.00 | 0.00 | 0.00 | 86 | 1011.8 |
| 20260902014751 | 81 | 0 | 0.0 | 2.0 | 0.00 | 0.00 | 0.00 | 86 | 1011.8 |
| 20260902014720 | 81 | 342 | 0.0 | 2.0 | 0.00 | 0.00 | 0.00 | 86 | 1011.8 |
| 20260902014617 | 81 | 313 | 0.0 | 2.0 | 0.00 | 0.00 | 0.00 | 86 | 1011.8 |
| 20260902014517 | 81 | 217 | 0.0 | 2.0 | 0.00 | 0.00 | 0.00 | 86 | 1011.8 |
| 20260902014416 | 81 | 302 | 0.0 | 2.0 | 0.00 | 0.00 | 0.00 | 86 | 1011.8 |
| 20260902014314 | 81 | 285 | 0.0 | 2.0 | 0.00 | 0.00 | 0.00 | 86 | 1011.7 |
| 20260902014248 | 81 | 297 | 0.0 | 2.0 | 0.00 | 0.00 | 0.00 | 86 | 1011.7 |
| 20260902014214 | 81 | 300 | 0.0 | 2.0 | 0.00 | 0.00 | 0.00 | 86 | 1011.7 |
| 20260902014114 | 81 | 281 | 0.0 | 2.0 | 0.00 | 0.00 | 0.00 | 86 | 1011.7 |
| 20260902014011 | 81 | 233 | 0.0 | 1.0 | 0.00 | 0.00 | 0.00 | 85 | 1011.7 |
| 20260902013908 | 81 | 0 | 0.0 | 1.0 | 0.00 | 0.00 | 0.00 | 85 | 1011.6 |
| 20260902013805 | 81 | 298 | 0.0 | 1.0 | 0.00 | 0.00 | 0.00 | 85 | 1011.6 |
| 20260902013749 | 81 | 305 | 0.0 | 1.0 | 0.00 | 0.00 | 0.00 | 85 | 1011.6 |
| 20260902013705 | 81 | 307 | 0.0 | 1.0 | 0.00 | 0.00 | 0.00 | 85 | 1011.6 |
| 20260902013602 | 81 | 268 | 0.0 | 1.0 | 0.00 | 0.00 | 0.00 | 85 | 1011.6 |
| 20260902013501 | 81 | 0 | 0.0 | 2.0 | 0.00 | 0.00 | 0.00 | 84 | 1011.6 |
| 20260902013401 | 81 | 0 | 0.0 | 2.0 | 0.00 | 0.00 | 0.00 | 84 | 1011.6 |
| 20260902013256 | 81 | 296 | 0.0 | 2.0 | 0.00 | 0.00 | 0.00 | 84 | 1011.6 |
| 20260902013248 | 81 | 0 | 0.0 | 2.0 | 0.00 | 0.00 | 0.00 | 84 | 1011.6 |
| 20260902013153 | 82 | 325 | 0.0 | 2.0 | 0.00 | 0.00 | 0.00 | 84 | 1011.6 |
| 20260902013050 | 82 | 211 | 0.0 | 2.0 | 0.00 | 0.00 | 0.00 | 84 | 1011.6 |
| 20260902012950 | 82 | 241 | 0.0 | 2.0 | 0.00 | 0.00 | 0.00 | 84 | 1011.6 |
| 20260902012850 | 82 | 0 | 0.0 | 2.0 | 0.00 | 0.00 | 0.00 | 83 | 1011.6 |
| 20260902012750 | 82 | 213 | 0.0 | 2.0 | 0.00 | 0.00 | 0.00 | 83 | 1011.6 |
| 20260902012647 | 82 | 0 | 0.0 | 2.0 | 0.00 | 0.00 | 0.00 | 83 | 1011.6 |
| 20260902012543 | 82 | 248 | 0.0 | 2.0 | 0.00 | 0.00 | 0.00 | 83 | 1011.6 |
| 20260902012444 | 82 | 313 | 0.0 | 2.0 | 0.00 | 0.00 | 0.00 | 83 | 1011.6 |
| 20260902012344 | 82 | 308 | 0.0 | 1.0 | 0.00 | 0.00 | 0.00 | 83 | 1011.6 |
| 20260902012244 | 82 | 11 | 0.0 | 1.0 | 0.00 | 0.00 | 0.00 | 83 | 1011.6 |
| 20260902012138 | 82 | 66 | 0.0 | 1.0 | 0.00 | 0.00 | 0.00 | 83 | 1011.6 |
| 20260902012038 | 82 | 37 | 0.0 | 1.0 | 0.00 | 0.00 | 0.00 | 82 | 1011.6 |
| 20260902012004 | 82 | 334 | 0.0 | 2.0 | 0.00 | 0.00 | 0.00 | 82 | 1011.5 |
| 20260902011935 | 82 | 0 | 0.0 | 1.0 | 0.00 | 0.00 | 0.00 | 82 | 1011.6 |
| 20260902011851 | 82 | 53 | 0.0 | 2.0 | 0.00 | 0.00 | 0.00 | 82 | 1011.6 |
| 20260902011736 | 82 | 27 | 0.0 | 2.0 | 0.00 | 0.00 | 0.00 | 82 | 1011.5 |
| 20260902011635 | 82 | 10 | 0.0 | 2.0 | 0.00 | 0.00 | 0.00 | 82 | 1011.5 |
| 20260902011514 | 82 | 342 | 0.0 | 2.0 | 0.00 | 0.00 | 0.00 | 82 | 1011.6 |
| 20260902011402 | 82 | 10 | 0.0 | 2.0 | 0.00 | 0.00 | 0.00 | 82 | 1011.6 |
| 20260902011246 | 82 | 0 | 0.0 | 2.0 | 0.00 | 0.00 | 0.00 | 82 | 1011.6 |
| 20260902011153 | 82 | 242 | 0.0 | 2.0 | 0.00 | 0.00 | 0.00 | 81 | 1011.6 |
| 20260902011053 | 82 | 10 | 0.0 | 2.0 | 0.00 | 0.00 | 0.00 | 81 | 1011.6 |
| 20260902010953 | 82 | 0 | 0.0 | 2.0 | 0.00 | 0.00 | 0.00 | 81 | 1011.6 |
| 20260902010853 | 82 | 302 | 0.0 | 2.0 | 0.00 | 0.00 | 0.00 | 81 | 1011.6 |
| 20260902010754 | 82 | 280 | 0.0 | 1.0 | 0.00 | 0.00 | 0.00 | 81 | 1011.6 |
| 20260902010735 | 82 | 309 | 0.0 | 1.0 | 0.00 | 0.00 | 0.00 | 81 | 1011.6 |
| 20260902010650 | 83 | 0 | 0.0 | 1.0 | 0.00 | 0.00 | 0.00 | 81 | 1011.6 |
| 20260902010551 | 83 | 0 | 0.0 | 1.0 | 0.00 | 0.00 | 0.00 | 81 | 1011.6 |
| 20260902010456 | 83 | 0 | 0.0 | 1.0 | 0.00 | 0.00 | 0.00 | 80 | 1011.6 |
| 20260902010452 | 83 | 337 | 0.0 | 1.0 | 0.00 | 0.00 | 0.00 | 80 | 1011.6 |
| 20260902010351 | 83 | 234 | 0.0 | 1.0 | 0.00 | 0.00 | 0.00 | 80 | 1011.6 |
| 20260902010340 | 83 | 166 | 0.0 | 1.0 | 0.00 | 0.00 | 0.00 | 80 | 1011.6 |
| 20260902010147 | 83 | 249 | 0.0 | 1.0 | 0.00 | 0.00 | 0.00 | 80 | 1011.6 |
| 20260902010044 | 83 | 50 | 0.0 | 1.0 | 0.00 | 0.00 | 0.00 | 80 | 1011.7 |
| 20260902005944 | 83 | 347 | 0.0 | 1.0 | 0.00 | 0.00 | 0.00 | 80 | 1011.7 |
| 20260902005841 | 83 | 320 | 0.0 | 1.0 | 0.00 | 0.00 | 0.00 | 80 | 1011.7 |
| 20260902005740 | 83 | 289 | 0.0 | 1.0 | 0.00 | 0.00 | 0.00 | 80 | 1011.7 |
| 20260902005735 | 83 | 0 | 0.0 | 1.0 | 0.00 | 0.00 | 0.00 | 80 | 1011.7 |
| 20260902005638 | 83 | 0 | 0.0 | 1.0 | 0.00 | 0.00 | 0.00 | 79 | 1011.7 |
| 20260902005538 | 83 | 299 | 0.0 | 1.0 | 0.00 | 0.00 | 0.00 | 79 | 1011.7 |
| 20260902005458 | 83 | 314 | 0.0 | 1.0 | 0.00 | 0.00 | 0.00 | 78 | 1011.7 |
| 20260902005439 | 83 | 267 | 0.0 | 1.0 | 0.00 | 0.00 | 0.00 | 79 | 1011.7 |
| 20260902005346 | 83 | 19 | 0.0 | 1.0 | 0.00 | 0.00 | 0.00 | 78 | 1011.7 |
| 20260902005340 | 83 | 314 | 0.0 | 1.0 | 0.00 | 0.00 | 0.00 | 78 | 1011.7 |
| 20260902005132 | 83 | 302 | 0.0 | 1.0 | 0.00 | 0.00 | 0.00 | 78 | 1011.7 |
| 20260902005033 | 83 | 336 | 0.0 | 1.0 | 0.00 | 0.00 | 0.00 | 77 | 1011.7 |
| 20260902004930 | 83 | 257 | 0.0 | 1.0 | 0.00 | 0.00 | 0.00 | 77 | 1011.7 |
| 20260902004824 | 83 | 357 | 0.0 | 1.0 | 0.00 | 0.00 | 0.00 | 77 | 1011.7 |
| 20260902004731 | 83 | 31 | 0.0 | 1.0 | 0.00 | 0.00 | 0.00 | 77 | 1011.7 |
| 20260902004724 | 83 | 39 | 0.0 | 1.0 | 0.00 | 0.00 | 0.00 | 77 | 1011.7 |
| 20260902004621 | 84 | 355 | 0.0 | 1.0 | 0.00 | 0.00 | 0.00 | 77 | 1011.7 |
| 20260902004518 | 84 | 318 | 0.0 | 1.0 | 0.00 | 0.00 | 0.00 | 77 | 1011.7 |
| 20260902004418 | 84 | 227 | 0.0 | 2.0 | 0.00 | 0.00 | 0.00 | 77 | 1011.7 |
| 20260902004318 | 84 | 82 | 0.0 | 2.0 | 0.00 | 0.00 | 0.00 | 77 | 1011.8 |
| 20260902004232 | 84 | 0 | 0.0 | 3.0 | 0.00 | 0.00 | 0.00 | 77 | 1011.8 |
| 20260902004215 | 84 | 341 | 0.0 | 3.0 | 0.00 | 0.00 | 0.00 | 77 | 1011.8 |
| 20260902004112 | 84 | 24 | 1.0 | 3.0 | 0.00 | 0.00 | 0.00 | 77 | 1011.8 |
| 20260902004011 | 84 | 0 | 1.0 | 3.0 | 0.00 | 0.00 | 0.00 | 77 | 1011.8 |
| 20260902003908 | 84 | 0 | 1.0 | 3.0 | 0.00 | 0.00 | 0.00 | 77 | 1011.9 |
| 20260902003806 | 84 | 276 | 1.0 | 3.0 | 0.00 | 0.00 | 0.00 | 77 | 1011.9 |
| 20260902003728 | 84 | 339 | 1.0 | 3.0 | 0.00 | 0.00 | 0.00 | 77 | 1011.9 |
| 20260902003712 | 84 | 348 | 2.0 | 5.0 | 0.00 | 0.00 | 0.00 | 78 | 1012.0 |
| 20260902003706 | 84 | 348 | 1.0 | 3.0 | 0.00 | 0.00 | 0.00 | 77 | 1011.9 |
| 20260902003603 | 84 | 24 | 1.0 | 3.0 | 0.00 | 0.00 | 0.00 | 77 | 1011.9 |
| 20260902003552 | 84 | 0 | 1.0 | 3.0 | 0.00 | 0.00 | 0.00 | 78 | 1012.0 |
| 20260902003357 | 84 | 5 | 1.0 | 5.0 | 0.00 | 0.00 | 0.00 | 77 | 1012.0 |
| 20260902003331 | 84 | 0 | 1.0 | 5.0 | 0.00 | 0.00 | 0.00 | 78 | 1012.0 |
| 20260902003154 | 84 | 0 | 2.0 | 5.0 | 0.00 | 0.00 | 0.00 | 78 | 1012.0 |
| 20260902003048 | 84 | 338 | 2.0 | 5.0 | 0.00 | 0.00 | 0.00 | 77 | 1012.0 |
| 20260902002946 | 84 | 342 | 2.0 | 5.0 | 0.00 | 0.00 | 0.00 | 77 | 1012.0 |
| 20260902002836 | 84 | 348 | 2.0 | 5.0 | 0.00 | 0.00 | 0.00 | 77 | 1012.0 |
| 20260902002736 | 84 | 61 | 2.0 | 5.0 | 0.00 | 0.00 | 0.00 | 77 | 1012.0 |
| 20260902002725 | 84 | 3 | 2.0 | 5.0 | 0.00 | 0.00 | 0.00 | 77 | 1012.0 |
| 20260902002636 | 84 | 349 | 2.0 | 5.0 | 0.00 | 0.00 | 0.00 | 77 | 1012.0 |
| 20260902002536 | 84 | 35 | 2.0 | 5.0 | 0.00 | 0.00 | 0.00 | 77 | 1012.0 |
| 20260902002438 | 85 | 31 | 2.0 | 5.0 | 0.00 | 0.00 | 0.00 | 77 | 1012.0 |
| 20260902002337 | 85 | 38 | 2.0 | 5.0 | 0.00 | 0.00 | 0.00 | 77 | 1012.0 |
| 20260902002233 | 85 | 40 | 2.0 | 5.0 | 0.00 | 0.00 | 0.00 | 77 | 1012.0 |
| 20260902002223 | 85 | 37 | 2.0 | 5.0 | 0.00 | 0.00 | 0.00 | 77 | 1012.0 |
| 20260902002134 | 85 | 32 | 2.0 | 5.0 | 0.00 | 0.00 | 0.00 | 78 | 1012.0 |
| 20260902002024 | 85 | 332 | 2.0 | 5.0 | 0.00 | 0.00 | 0.00 | 77 | 1012.0 |
| 20260902001924 | 85 | 39 | 2.0 | 5.0 | 0.00 | 0.00 | 0.00 | 77 | 1012.0 |
| 20260902001825 | 85 | 23 | 2.0 | 5.0 | 0.00 | 0.00 | 0.00 | 77 | 1012.0 |
| 20260902001721 | 85 | 0 | 2.0 | 5.0 | 0.00 | 0.00 | 0.00 | 76 | 1011.9 |
| 20260902001714 | 85 | 344 | 2.0 | 5.0 | 0.00 | 0.00 | 0.00 | 76 | 1011.9 |
| 20260902001622 | 85 | 36 | 2.0 | 5.0 | 0.00 | 0.00 | 0.00 | 76 | 1011.9 |
| 20260902001521 | 85 | 44 | 2.0 | 5.0 | 0.00 | 0.00 | 0.00 | 76 | 1011.9 |
| 20260902001421 | 85 | 13 | 2.0 | 5.0 | 0.00 | 0.00 | 0.00 | 76 | 1011.9 |
| 20260902001321 | 85 | 35 | 1.0 | 4.0 | 0.00 | 0.00 | 0.00 | 76 | 1011.9 |
| 20260902001218 | 85 | 6 | 1.0 | 4.0 | 0.00 | 0.00 | 0.00 | 76 | 1011.9 |
| 20260902001211 | 85 | 24 | 1.0 | 4.0 | 0.00 | 0.00 | 0.00 | 76 | 1011.9 |
| 20260902001118 | 86 | 18 | 1.0 | 2.0 | 0.00 | 0.00 | 0.00 | 75 | 1011.8 |
| 20260902001018 | 86 | 23 | 1.0 | 2.0 | 0.00 | 0.00 | 0.00 | 75 | 1011.8 |
| 20260902000919 | 86 | 25 | 1.0 | 2.0 | 0.00 | 0.00 | 0.00 | 75 | 1011.8 |
| 20260902000819 | 86 | 41 | 1.0 | 2.0 | 0.00 | 0.00 | 0.00 | 75 | 1011.8 |
| 20260902000711 | 86 | 0 | 1.0 | 2.0 | 0.00 | 0.00 | 0.00 | 75 | 1011.8 |
| 20260902000616 | 86 | 355 | 1.0 | 2.0 | 0.00 | 0.00 | 0.00 | 75 | 1011.8 |
| 20260902000516 | 86 | 18 | 1.0 | 2.0 | 0.00 | 0.00 | 0.00 | 74 | 1011.8 |
| 20260902000415 | 86 | 43 | 1.0 | 2.0 | 0.00 | 0.00 | 0.00 | 74 | 1011.7 |
| 20260902000315 | 86 | 316 | 1.0 | 2.0 | 0.00 | 0.00 | 0.00 | 74 | 1011.7 |
| 20260902000215 | 86 | 354 | 1.0 | 2.0 | 0.00 | 0.00 | 0.00 | 74 | 1011.7 |
| 20260902000208 | 86 | 344 | 1.0 | 2.0 | 0.00 | 0.00 | 0.00 | 74 | 1011.7 |
| 20260902000115 | 86 | 344 | 1.0 | 2.0 | 0.00 | 0.00 | 0.00 | 74 | 1011.7 |
| 20260902000015 | 86 | 359 | 1.0 | 3.0 | 0.00 | 0.00 | 0.00 | 73 | 1011.7 |
| 20260901235915 | 86 | 321 | 1.0 | 3.0 | 0.00 | 0.00 | 0.00 | 73 | 1011.7 |
| 20260901235816 | 86 | 269 | 1.0 | 3.0 | 0.00 | 0.00 | 0.00 | 73 | 1011.7 |
| 20260901235716 | 86 | 14 | 1.0 | 3.0 | 0.00 | 0.00 | 0.00 | 72 | 1011.7 |
| 20260901235709 | 86 | 0 | 1.0 | 3.0 | 0.00 | 0.00 | 0.00 | 72 | 1011.7 |
| 20260901235616 | 86 | 359 | 1.0 | 3.0 | 0.00 | 0.00 | 0.00 | 72 | 1011.7 |
| 20260901235513 | 86 | 12 | 1.0 | 3.0 | 0.00 | 0.00 | 0.00 | 72 | 1011.6 |
| 20260901235413 | 86 | 8 | 1.0 | 4.0 | 0.00 | 0.00 | 0.00 | 72 | 1011.6 |
| 20260901235313 | 86 | 333 | 2.0 | 4.0 | 0.00 | 0.00 | 0.00 | 72 | 1011.6 |
| 20260901235213 | 87 | 48 | 2.0 | 4.0 | 0.00 | 0.00 | 0.00 | 72 | 1011.6 |
| 20260901235206 | 87 | 334 | 2.0 | 4.0 | 0.00 | 0.00 | 0.00 | 71 | 1011.7 |
| 20260901235113 | 87 | 359 | 2.0 | 4.0 | 0.00 | 0.00 | 0.00 | 71 | 1011.7 |
| 20260901235010 | 87 | 1 | 2.0 | 4.0 | 0.00 | 0.00 | 0.00 | 71 | 1011.7 |
| 20260901234925 | 87 | 339 | 2.0 | 4.0 | 0.00 | 0.00 | 0.00 | 71 | 1011.7 |
| 20260901234910 | 87 | 42 | 2.0 | 4.0 | 0.00 | 0.00 | 0.00 | 71 | 1011.7 |
| 20260901234813 | 87 | 1 | 2.0 | 4.0 | 0.00 | 0.00 | 0.00 | 71 | 1011.7 |
| 20260901234703 | 87 | 236 | 2.0 | 4.0 | 0.00 | 0.00 | 0.00 | 71 | 1011.7 |
| 20260901234603 | 87 | 344 | 2.0 | 4.0 | 0.00 | 0.00 | 0.00 | 70 | 1011.7 |
| 20260901234504 | 87 | 14 | 2.0 | 4.0 | 0.00 | 0.00 | 0.00 | 70 | 1011.7 |
| 20260901234401 | 87 | 30 | 1.0 | 4.0 | 0.00 | 0.00 | 0.00 | 70 | 1011.7 |
| 20260901234258 | 87 | 26 | 1.0 | 4.0 | 0.00 | 0.00 | 0.00 | 69 | 1011.7 |
| 20260901234207 | 88 | 322 | 1.0 | 4.0 | 0.00 | 0.00 | 0.00 | 68 | 1011.7 |
| 20260901234154 | 88 | 355 | 1.0 | 4.0 | 0.00 | 0.00 | 0.00 | 68 | 1011.7 |
| 20260901234055 | 88 | 341 | 1.0 | 4.0 | 0.00 | 0.00 | 0.00 | 68 | 1011.7 |
| 20260901233955 | 88 | 37 | 1.0 | 4.0 | 0.00 | 0.00 | 0.00 | 68 | 1011.7 |
| 20260901233925 | 88 | 320 | 1.0 | 4.0 | 0.00 | 0.00 | 0.00 | 67 | 1011.7 |
| 20260901233846 | 88 | 196 | 1.0 | 4.0 | 0.00 | 0.00 | 0.00 | 68 | 1011.7 |
| 20260901233811 | 88 | 353 | 1.0 | 4.0 | 0.00 | 0.00 | 0.00 | 68 | 1011.7 |
| 20260901233646 | 88 | 277 | 1.0 | 4.0 | 0.00 | 0.00 | 0.00 | 67 | 1011.7 |
| 20260901233540 | 88 | 347 | 1.0 | 4.0 | 0.00 | 0.00 | 0.00 | 67 | 1011.8 |
| 20260901233440 | 88 | 8 | 1.0 | 4.0 | 0.00 | 0.00 | 0.00 | 67 | 1011.8 |
| 20260901233340 | 88 | 2 | 1.0 | 4.0 | 0.00 | 0.00 | 0.00 | 67 | 1011.8 |
| 20260901233240 | 88 | 13 | 1.0 | 4.0 | 0.00 | 0.00 | 0.00 | 67 | 1011.8 |
| 20260901233206 | 88 | 7 | 1.0 | 3.0 | 0.00 | 0.00 | 0.00 | 67 | 1011.8 |
| 20260901233148 | 88 | 352 | 2.0 | 6.0 | 0.00 | 0.00 | 0.00 | 66 | 1011.8 |
| 20260901233140 | 88 | 261 | 1.0 | 3.0 | 0.00 | 0.00 | 0.00 | 67 | 1011.8 |
| 20260901233040 | 88 | 346 | 1.0 | 3.0 | 0.00 | 0.00 | 0.00 | 66 | 1011.8 |
| 20260901233035 | 88 | 337 | 1.0 | 3.0 | 0.00 | 0.00 | 0.00 | 66 | 1011.8 |
| 20260901232839 | 88 | 330 | 2.0 | 6.0 | 0.00 | 0.00 | 0.00 | 66 | 1011.8 |
| 20260901232812 | 88 | 350 | 2.0 | 6.0 | 0.00 | 0.00 | 0.00 | 66 | 1011.8 |
| 20260901232640 | 88 | 316 | 2.0 | 6.0 | 0.00 | 0.00 | 0.00 | 66 | 1011.8 |
| 20260901232540 | 88 | 344 | 2.0 | 6.0 | 0.00 | 0.00 | 0.00 | 67 | 1011.8 |
| 20260901232440 | 88 | 346 | 2.0 | 6.0 | 0.00 | 0.00 | 0.00 | 67 | 1011.8 |
| 20260901232337 | 88 | 11 | 2.0 | 6.0 | 0.00 | 0.00 | 0.00 | 67 | 1011.8 |
| 20260901232234 | 88 | 337 | 2.0 | 6.0 | 0.00 | 0.00 | 0.00 | 67 | 1011.8 |
| 20260901232206 | 89 | 73 | 2.0 | 6.0 | 0.00 | 0.00 | 0.00 | 65 | 1011.8 |
| 20260901232134 | 89 | 342 | 2.0 | 6.0 | 0.00 | 0.00 | 0.00 | 65 | 1011.8 |
| 20260901232034 | 89 | 279 | 2.0 | 6.0 | 0.00 | 0.00 | 0.00 | 65 | 1011.8 |
| 20260901231934 | 89 | 15 | 2.0 | 6.0 | 0.00 | 0.00 | 0.00 | 65 | 1011.8 |
| 20260901231834 | 89 | 325 | 2.0 | 6.0 | 0.00 | 0.00 | 0.00 | 66 | 1011.8 |
| 20260901231731 | 89 | 48 | 2.0 | 6.0 | 0.00 | 0.00 | 0.00 | 66 | 1011.9 |
| 20260901231706 | 89 | 322 | 2.0 | 6.0 | 0.00 | 0.00 | 0.00 | 66 | 1011.8 |
| 20260901231628 | 89 | 349 | 2.0 | 6.0 | 0.00 | 0.00 | 0.00 | 66 | 1011.8 |
| 20260901231525 | 89 | 216 | 2.0 | 6.0 | 0.00 | 0.00 | 0.00 | 66 | 1011.9 |
| 20260901231425 | 89 | 30 | 2.0 | 6.0 | 0.00 | 0.00 | 0.00 | 66 | 1011.9 |
| 20260901231325 | 89 | 14 | 2.0 | 6.0 | 0.00 | 0.00 | 0.00 | 65 | 1011.9 |
| 20260901231225 | 89 | 244 | 2.0 | 5.0 | 0.00 | 0.00 | 0.00 | 65 | 1011.9 |
| 20260901231206 | 89 | 345 | 2.0 | 6.0 | 0.00 | 0.00 | 0.00 | 65 | 1011.9 |
| 20260901231125 | 89 | 334 | 2.0 | 6.0 | 0.00 | 0.00 | 0.00 | 65 | 1011.9 |
| 20260901231025 | 89 | 21 | 2.0 | 6.0 | 0.00 | 0.00 | 0.00 | 65 | 1011.9 |
| 20260901230929 | 89 | 45 | 2.0 | 8.0 | 0.00 | 0.00 | 0.00 | 65 | 1011.9 |
| 20260901230925 | 89 | 336 | 2.0 | 7.0 | 0.00 | 0.00 | 0.00 | 65 | 1011.9 |
| 20260901230826 | 89 | 339 | 2.0 | 8.0 | 0.00 | 0.00 | 0.00 | 65 | 1011.9 |
| 20260901230811 | 89 | 256 | 2.0 | 8.0 | 0.00 | 0.00 | 0.00 | 65 | 1011.9 |
| 20260901230622 | 89 | 118 | 2.0 | 8.0 | 0.00 | 0.00 | 0.00 | 65 | 1011.9 |
| 20260901230522 | 89 | 64 | 2.0 | 8.0 | 0.00 | 0.00 | 0.00 | 66 | 1011.9 |
| 20260901230419 | 89 | 358 | 2.0 | 8.0 | 0.00 | 0.00 | 0.00 | 66 | 1011.9 |
| 20260901230319 | 89 | 261 | 2.0 | 8.0 | 0.00 | 0.00 | 0.00 | 65 | 1011.9 |
| 20260901230219 | 89 | 315 | 2.0 | 8.0 | 0.00 | 0.00 | 0.00 | 65 | 1011.9 |
| 20260901230206 | 89 | 346 | 2.0 | 8.0 | 0.00 | 0.00 | 0.00 | 65 | 1011.9 |
| 20260901230119 | 89 | 233 | 2.0 | 8.0 | 0.00 | 0.00 | 0.00 | 65 | 1011.9 |
| 20260901230019 | 89 | 335 | 2.0 | 8.0 | 0.00 | 0.00 | 0.00 | 65 | 1011.9 |
| 20260901225920 | 89 | 2 | 2.0 | 8.0 | 0.00 | 0.00 | 0.00 | 65 | 1011.8 |
| 20260901225820 | 89 | 337 | 2.0 | 6.0 | 0.00 | 0.00 | 0.00 | 65 | 1011.8 |
| 20260901225713 | 89 | 340 | 2.0 | 6.0 | 0.00 | 0.00 | 0.00 | 65 | 1011.8 |
| 20260901225704 | 89 | 22 | 2.0 | 6.0 | 0.00 | 0.00 | 0.00 | 65 | 1011.8 |
| 20260901225613 | 89 | 335 | 2.0 | 6.0 | 0.00 | 0.00 | 0.00 | 65 | 1011.8 |
| 20260901225508 | 89 | 314 | 1.0 | 6.0 | 0.00 | 0.00 | 0.00 | 65 | 1011.8 |
| 20260901225431 | 89 | 310 | 1.0 | 4.0 | 0.00 | 0.00 | 0.00 | 65 | 1011.8 |
| 20260901225404 | 89 | 333 | 1.0 | 6.0 | 0.00 | 0.00 | 0.00 | 65 | 1011.8 |
| 20260901225314 | 89 | 351 | 1.0 | 6.0 | 0.00 | 0.00 | 0.00 | 65 | 1011.8 |
| 20260901225308 | 89 | 310 | 1.0 | 4.0 | 0.00 | 0.00 | 0.00 | 65 | 1011.8 |
| 20260901225102 | 89 | 12 | 1.0 | 2.0 | 0.00 | 0.00 | 0.00 | 65 | 1011.8 |
| 20260901225001 | 89 | 327 | 1.0 | 2.0 | 0.00 | 0.00 | 0.00 | 65 | 1011.8 |
| 20260901224902 | 89 | 47 | 1.0 | 2.0 | 0.00 | 0.00 | 0.00 | 65 | 1011.8 |
| 20260901224802 | 89 | 348 | 1.0 | 2.0 | 0.00 | 0.00 | 0.00 | 65 | 1011.8 |
| 20260901224706 | 89 | 283 | 1.0 | 2.0 | 0.00 | 0.00 | 0.00 | 65 | 1011.8 |
| 20260901224702 | 89 | 263 | 1.0 | 2.0 | 0.00 | 0.00 | 0.00 | 65 | 1011.8 |
| 20260901224601 | 89 | 340 | 1.0 | 2.0 | 0.00 | 0.00 | 0.00 | 65 | 1011.8 |
| 20260901224501 | 89 | 287 | 1.0 | 3.0 | 0.00 | 0.00 | 0.00 | 65 | 1011.8 |
| 20260901224402 | 89 | 299 | 1.0 | 3.0 | 0.00 | 0.00 | 0.00 | 65 | 1011.8 |
| 20260901224302 | 89 | 358 | 1.0 | 3.0 | 0.00 | 0.00 | 0.00 | 66 | 1011.8 |
| 20260901224204 | 89 | 275 | 1.0 | 3.0 | 0.00 | 0.00 | 0.00 | 66 | 1011.8 |
| 20260901224159 | 89 | 301 | 1.0 | 3.0 | 0.00 | 0.00 | 0.00 | 66 | 1011.8 |
| 20260901224058 | 89 | 351 | 1.0 | 3.0 | 0.00 | 0.00 | 0.00 | 66 | 1011.8 |
| 20260901223959 | 89 | 340 | 1.0 | 3.0 | 0.00 | 0.00 | 0.00 | 66 | 1011.8 |
| 20260901223855 | 89 | 351 | 1.0 | 3.0 | 0.00 | 0.00 | 0.00 | 66 | 1011.8 |
| 20260901223747 | 89 | 337 | 1.0 | 3.0 | 0.00 | 0.00 | 0.00 | 66 | 1011.8 |
| 20260901223700 | 89 | 359 | 1.0 | 3.0 | 0.00 | 0.00 | 0.00 | 66 | 1011.8 |
| 20260901223644 | 89 | 333 | 1.0 | 3.0 | 0.00 | 0.00 | 0.00 | 66 | 1011.8 |
| 20260901223543 | 89 | 43 | 1.0 | 3.0 | 0.00 | 0.00 | 0.00 | 66 | 1011.8 |
| 20260901223443 | 89 | 30 | 1.0 | 2.0 | 0.00 | 0.00 | 0.00 | 66 | 1011.8 |
| 20260901223341 | 89 | 29 | 1.0 | 2.0 | 0.00 | 0.00 | 0.00 | 66 | 1011.8 |
| 20260901223240 | 89 | 279 | 1.0 | 2.0 | 0.00 | 0.00 | 0.00 | 66 | 1011.8 |
| 20260901223159 | 89 | 0 | 1.0 | 2.0 | 0.00 | 0.00 | 0.00 | 66 | 1011.8 |
| 20260901223141 | 89 | 118 | 1.0 | 2.0 | 0.00 | 0.00 | 0.00 | 66 | 1011.8 |
| 20260901223037 | 89 | 263 | 1.0 | 2.0 | 0.00 | 0.00 | 0.00 | 66 | 1011.8 |
| 20260901222935 | 89 | 261 | 1.0 | 2.0 | 0.00 | 0.00 | 0.00 | 66 | 1011.8 |
| 20260901222835 | 89 | 7 | 1.0 | 2.0 | 0.00 | 0.00 | 0.00 | 66 | 1011.9 |
| 20260901222734 | 89 | 343 | 1.0 | 2.0 | 0.00 | 0.00 | 0.00 | 66 | 1011.9 |
| 20260901222658 | 89 | 348 | 1.0 | 2.0 | 0.00 | 0.00 | 0.00 | 66 | 1011.9 |
| 20260901222634 | 89 | 264 | 1.0 | 2.0 | 0.00 | 0.00 | 0.00 | 66 | 1011.9 |
| 20260901222535 | 89 | 344 | 1.0 | 3.0 | 0.00 | 0.00 | 0.00 | 66 | 1011.9 |
| 20260901222435 | 89 | 350 | 1.0 | 3.0 | 0.00 | 0.00 | 0.00 | 65 | 1011.9 |
| 20260901222422 | 89 | 284 | 1.0 | 4.0 | 0.00 | 0.00 | 0.00 | 65 | 1011.9 |
| 20260901222332 | 89 | 351 | 1.0 | 3.0 | 0.00 | 0.00 | 0.00 | 66 | 1011.9 |
| 20260901222306 | 89 | 0 | 1.0 | 3.0 | 0.00 | 0.00 | 0.00 | 65 | 1011.9 |
| 20260901222126 | 89 | 231 | 1.0 | 4.0 | 0.00 | 0.00 | 0.00 | 65 | 1011.9 |
| 20260901222023 | 89 | 345 | 1.0 | 4.0 | 0.00 | 0.00 | 0.00 | 65 | 1011.9 |
| 20260901221923 | 89 | 42 | 1.0 | 4.0 | 0.00 | 0.00 | 0.00 | 65 | 1011.9 |
| 20260901221823 | 89 | 32 | 1.0 | 4.0 | 0.00 | 0.00 | 0.00 | 65 | 1011.9 |
| 20260901221723 | 89 | 9 | 1.0 | 4.0 | 0.00 | 0.00 | 0.00 | 65 | 1011.9 |
| 20260901221657 | 89 | 309 | 1.0 | 4.0 | 0.00 | 0.00 | 0.00 | 65 | 1011.9 |
| 20260901221620 | 89 | 272 | 1.0 | 5.0 | 0.00 | 0.00 | 0.00 | 65 | 1011.9 |
| 20260901221520 | 88 | 230 | 1.0 | 5.0 | 0.00 | 0.00 | 0.00 | 65 | 1011.9 |
| 20260901221420 | 88 | 40 | 1.0 | 5.0 | 0.00 | 0.00 | 0.00 | 65 | 1011.9 |
| 20260901221317 | 88 | 344 | 1.0 | 5.0 | 0.00 | 0.00 | 0.00 | 65 | 1011.9 |
| 20260901221214 | 88 | 188 | 1.0 | 5.0 | 0.00 | 0.00 | 0.00 | 65 | 1011.9 |
| 20260901221158 | 88 | 219 | 1.0 | 5.0 | 0.00 | 0.00 | 0.00 | 66 | 1011.9 |
| 20260901221114 | 88 | 99 | 1.0 | 5.0 | 0.00 | 0.00 | 0.00 | 66 | 1011.9 |
| 20260901221014 | 88 | 304 | 1.0 | 5.0 | 0.00 | 0.00 | 0.00 | 66 | 1011.9 |
| 20260901220915 | 88 | 337 | 1.0 | 5.0 | 0.00 | 0.00 | 0.00 | 66 | 1011.9 |
| 20260901220812 | 88 | 19 | 2.0 | 5.0 | 0.00 | 0.00 | 0.00 | 66 | 1011.9 |
| 20260901220712 | 88 | 341 | 2.0 | 5.0 | 0.00 | 0.00 | 0.00 | 66 | 1012.0 |
| 20260901220659 | 88 | 245 | 2.0 | 5.0 | 0.00 | 0.00 | 0.00 | 66 | 1012.0 |
| 20260901220602 | 88 | 18 | 2.0 | 5.0 | 0.00 | 0.00 | 0.00 | 66 | 1012.0 |
| 20260901220459 | 88 | 303 | 2.0 | 5.0 | 0.00 | 0.00 | 0.00 | 66 | 1012.0 |
| 20260901220354 | 88 | 347 | 2.0 | 5.0 | 0.00 | 0.00 | 0.00 | 67 | 1012.0 |
| 20260901220254 | 88 | 204 | 2.0 | 5.0 | 0.00 | 0.00 | 0.00 | 66 | 1012.0 |
| 20260901220154 | 88 | 13 | 2.0 | 5.0 | 0.00 | 0.00 | 0.00 | 66 | 1012.1 |
| 20260901220054 | 88 | 320 | 2.0 | 5.0 | 0.00 | 0.00 | 0.00 | 66 | 1012.1 |
| 20260901215953 | 88 | 345 | 2.0 | 5.0 | 0.00 | 0.00 | 0.00 | 67 | 1012.1 |
| 20260901215916 | 88 | 272 | 2.0 | 5.0 | 0.00 | 0.00 | 0.00 | 67 | 1012.1 |
| 20260901215853 | 88 | 22 | 2.0 | 5.0 | 0.00 | 0.00 | 0.00 | 67 | 1012.1 |
| 20260901215804 | 88 | 21 | 1.0 | 5.0 | 0.00 | 0.00 | 0.00 | 67 | 1012.1 |
| 20260901215758 | 88 | 272 | 2.0 | 5.0 | 0.00 | 0.00 | 0.00 | 67 | 1012.1 |
| 20260901215553 | 88 | 344 | 2.0 | 5.0 | 0.00 | 0.00 | 0.00 | 67 | 1012.1 |
| 20260901215459 | 88 | 31 | 2.0 | 5.0 | 0.00 | 0.00 | 0.00 | 66 | 1012.1 |
| 20260901215353 | 88 | 14 | 2.0 | 5.0 | 0.00 | 0.00 | 0.00 | 66 | 1012.1 |
| 20260901215253 | 88 | 10 | 2.0 | 4.0 | 0.00 | 0.00 | 0.00 | 67 | 1012.2 |
| 20260901215154 | 88 | 328 | 1.0 | 4.0 | 0.00 | 0.00 | 0.00 | 67 | 1012.2 |
| 20260901215051 | 88 | 347 | 2.0 | 4.0 | 0.00 | 0.00 | 0.00 | 67 | 1012.2 |
| 20260901214948 | 88 | 352 | 2.0 | 4.0 | 0.00 | 0.00 | 0.00 | 67 | 1012.2 |
| 20260901214848 | 88 | 91 | 2.0 | 4.0 | 0.00 | 0.00 | 0.00 | 66 | 1012.2 |
| 20260901214745 | 88 | 332 | 2.0 | 4.0 | 0.00 | 0.00 | 0.00 | 67 | 1012.2 |
| 20260901214650 | 88 | 331 | 2.0 | 7.0 | 0.00 | 0.00 | 0.00 | 68 | 1012.3 |
| 20260901214645 | 88 | 255 | 2.0 | 7.0 | 0.00 | 0.00 | 0.00 | 68 | 1012.3 |
| 20260901214545 | 88 | 339 | 2.0 | 7.0 | 0.00 | 0.00 | 0.00 | 67 | 1012.3 |
| 20260901214445 | 88 | 335 | 2.0 | 7.0 | 0.00 | 0.00 | 0.00 | 68 | 1012.3 |
| 20260901214345 | 88 | 352 | 2.0 | 7.0 | 0.00 | 0.00 | 0.00 | 68 | 1012.3 |
| 20260901214242 | 88 | 329 | 2.0 | 7.0 | 0.00 | 0.00 | 0.00 | 68 | 1012.3 |
| 20260901214150 | 88 | 63 | 2.0 | 7.0 | 0.00 | 0.00 | 0.00 | 67 | 1012.3 |
| 20260901214136 | 88 | 299 | 2.0 | 7.0 | 0.00 | 0.00 | 0.00 | 67 | 1012.3 |
| 20260901214036 | 88 | 359 | 2.0 | 7.0 | 0.00 | 0.00 | 0.00 | 67 | 1012.3 |
| 20260901213933 | 88 | 330 | 2.0 | 7.0 | 0.00 | 0.00 | 0.00 | 67 | 1012.3 |
| 20260901213830 | 88 | 269 | 2.0 | 7.0 | 0.00 | 0.00 | 0.00 | 67 | 1012.4 |
| 20260901213730 | 88 | 331 | 2.0 | 7.0 | 0.00 | 0.00 | 0.00 | 67 | 1012.4 |
| 20260901213647 | 88 | 8 | 2.0 | 5.0 | 0.00 | 0.00 | 0.00 | 67 | 1012.4 |
| 20260901213527 | 89 | 331 | 1.0 | 3.0 | 0.00 | 0.00 | 0.00 | 66 | 1012.4 |
| 20260901213427 | 89 | 333 | 1.0 | 3.0 | 0.00 | 0.00 | 0.00 | 66 | 1012.4 |
| 20260901213324 | 89 | 359 | 1.0 | 3.0 | 0.00 | 0.00 | 0.00 | 66 | 1012.4 |
| 20260901213218 | 89 | 324 | 1.0 | 3.0 | 0.00 | 0.00 | 0.00 | 66 | 1012.4 |
| 20260901213143 | 89 | 316 | 1.0 | 3.0 | 0.00 | 0.00 | 0.00 | 66 | 1012.4 |
| 20260901213118 | 89 | 314 | 1.0 | 3.0 | 0.00 | 0.00 | 0.00 | 66 | 1012.4 |
| 20260901213018 | 89 | 3 | 1.0 | 3.0 | 0.00 | 0.00 | 0.00 | 66 | 1012.4 |
| 20260901212915 | 89 | 331 | 1.0 | 3.0 | 0.00 | 0.00 | 0.00 | 66 | 1012.4 |
| 20260901212815 | 89 | 318 | 1.0 | 3.0 | 0.00 | 0.00 | 0.00 | 66 | 1012.4 |
| 20260901212712 | 89 | 277 | 1.0 | 3.0 | 0.00 | 0.00 | 0.00 | 68 | 1012.4 |
| 20260901212644 | 89 | 298 | 1.0 | 3.0 | 0.00 | 0.00 | 0.00 | 68 | 1012.4 |
| 20260901212612 | 89 | 209 | 1.0 | 3.0 | 0.00 | 0.00 | 0.00 | 68 | 1012.4 |
| 20260901212513 | 89 | 5 | 1.0 | 3.0 | 0.00 | 0.00 | 0.00 | 67 | 1012.4 |
| 20260901212410 | 89 | 18 | 1.0 | 3.0 | 0.00 | 0.00 | 0.00 | 67 | 1012.4 |
| 20260901212309 | 89 | 231 | 1.0 | 4.0 | 0.00 | 0.00 | 0.00 | 66 | 1012.4 |
| 20260901212200 | 89 | 331 | 1.0 | 4.0 | 0.00 | 0.00 | 0.00 | 66 | 1012.4 |
| 20260901212137 | 89 | 259 | 1.0 | 4.0 | 0.00 | 0.00 | 0.00 | 66 | 1012.4 |
| 20260901212100 | 89 | 335 | 1.0 | 4.0 | 0.00 | 0.00 | 0.00 | 66 | 1012.4 |
| 20260901212000 | 89 | 324 | 1.0 | 4.0 | 0.00 | 0.00 | 0.00 | 66 | 1012.4 |
| 20260901211900 | 89 | 331 | 1.0 | 4.0 | 0.00 | 0.00 | 0.00 | 65 | 1012.4 |
| 20260901211800 | 89 | 43 | 1.0 | 4.0 | 0.00 | 0.00 | 0.00 | 64 | 1012.3 |
| 20260901211700 | 89 | 333 | 1.0 | 4.0 | 0.00 | 0.00 | 0.00 | 64 | 1012.3 |
| 20260901211638 | 89 | 348 | 1.0 | 4.0 | 0.00 | 0.00 | 0.00 | 64 | 1012.3 |
| 20260901211600 | 89 | 350 | 1.0 | 4.0 | 0.00 | 0.00 | 0.00 | 64 | 1012.3 |
| 20260901211500 | 89 | 340 | 1.0 | 4.0 | 0.00 | 0.00 | 0.00 | 64 | 1012.3 |
| 20260901211400 | 89 | 293 | 1.0 | 3.0 | 0.00 | 0.00 | 0.00 | 65 | 1012.4 |
| 20260901211257 | 89 | 0 | 1.0 | 2.0 | 0.00 | 0.00 | 0.00 | 64 | 1012.3 |
| 20260901211157 | 89 | 326 | 1.0 | 2.0 | 0.00 | 0.00 | 0.00 | 64 | 1012.3 |
| 20260901211135 | 89 | 341 | 1.0 | 2.0 | 0.00 | 0.00 | 0.00 | 64 | 1012.3 |
| 20260901211054 | 89 | 334 | 1.0 | 2.0 | 0.00 | 0.00 | 0.00 | 64 | 1012.3 |
| 20260901210951 | 89 | 20 | 1.0 | 2.0 | 0.00 | 0.00 | 0.00 | 64 | 1012.3 |
| 20260901210848 | 89 | 337 | 1.0 | 2.0 | 0.00 | 0.00 | 0.00 | 64 | 1012.3 |
| 20260901210748 | 89 | 285 | 1.0 | 2.0 | 0.00 | 0.00 | 0.00 | 64 | 1012.3 |
| 20260901210648 | 89 | 341 | 1.0 | 2.0 | 0.00 | 0.00 | 0.00 | 64 | 1012.3 |
| 20260901210628 | 89 | 338 | 1.0 | 2.0 | 0.00 | 0.00 | 0.00 | 64 | 1012.3 |
| 20260901210548 | 89 | 353 | 1.0 | 2.0 | 0.00 | 0.00 | 0.00 | 64 | 1012.4 |
| 20260901210448 | 89 | 346 | 1.0 | 3.0 | 0.00 | 0.00 | 0.00 | 64 | 1012.4 |
| 20260901210343 | 89 | 343 | 1.0 | 3.0 | 0.00 | 0.00 | 0.00 | 65 | 1012.4 |
| 20260901210233 | 89 | 359 | 1.0 | 3.0 | 0.00 | 0.00 | 0.00 | 65 | 1012.4 |
| 20260901210127 | 89 | 324 | 1.0 | 3.0 | 0.00 | 0.00 | 0.00 | 65 | 1012.4 |
| 20260901210027 | 89 | 332 | 1.0 | 3.0 | 0.00 | 0.00 | 0.00 | 65 | 1012.4 |
| 20260901205927 | 89 | 359 | 1.0 | 4.0 | 0.00 | 0.00 | 0.00 | 65 | 1012.4 |
| 20260901205827 | 89 | 355 | 1.0 | 4.0 | 0.00 | 0.00 | 0.00 | 65 | 1012.3 |
| 20260901205727 | 89 | 124 | 1.0 | 4.0 | 0.00 | 0.00 | 0.00 | 65 | 1012.3 |
| 20260901205621 | 89 | 355 | 2.0 | 4.0 | 0.00 | 0.00 | 0.00 | 65 | 1012.3 |
| 20260901205521 | 89 | 350 | 2.0 | 4.0 | 0.00 | 0.00 | 0.00 | 65 | 1012.3 |
| 20260901205413 | 89 | 23 | 1.0 | 4.0 | 0.00 | 0.00 | 0.00 | 64 | 1012.3 |
| 20260901205312 | 89 | 32 | 2.0 | 4.0 | 0.00 | 0.00 | 0.00 | 64 | 1012.3 |
| 20260901205212 | 89 | 302 | 2.0 | 6.0 | 0.00 | 0.01 | 0.00 | 64 | 1012.3 |
| 20260901205120 | 89 | 357 | 2.0 | 6.0 | 0.00 | 0.01 | 0.00 | 64 | 1012.3 |
| 20260901205112 | 89 | 6 | 2.0 | 6.0 | 0.00 | 0.01 | 0.00 | 64 | 1012.3 |
| 20260901205011 | 89 | 11 | 2.0 | 6.0 | 0.00 | 0.01 | 0.00 | 64 | 1012.3 |
| 20260901204911 | 89 | 337 | 1.0 | 6.0 | 0.00 | 0.01 | 0.00 | 64 | 1012.3 |
| 20260901204811 | 89 | 349 | 1.0 | 6.0 | 0.00 | 0.01 | 0.00 | 64 | 1012.3 |
| 20260901204711 | 89 | 6 | 1.0 | 6.0 | 0.00 | 0.01 | 0.00 | 64 | 1012.3 |
| 20260901204621 | 89 | 350 | 1.0 | 6.0 | 0.00 | 0.01 | 0.00 | 64 | 1012.3 |
| 20260901204609 | 89 | 315 | 1.0 | 6.0 | 0.00 | 0.01 | 0.00 | 64 | 1012.3 |
| 20260901204509 | 89 | 62 | 1.0 | 6.0 | 0.00 | 0.01 | 0.00 | 63 | 1012.3 |
| 20260901204409 | 89 | 58 | 1.0 | 6.0 | 0.00 | 0.01 | 0.00 | 63 | 1012.3 |
| 20260901204309 | 89 | 345 | 1.0 | 6.0 | 0.00 | 0.01 | 0.00 | 65 | 1012.3 |
| 20260901204210 | 89 | 326 | 1.0 | 5.0 | 0.00 | 0.01 | 0.00 | 65 | 1012.3 |
| 20260901204117 | 89 | 5 | 1.0 | 5.0 | 0.00 | 0.01 | 0.00 | 65 | 1012.3 |
| 20260901204110 | 89 | 23 | 1.0 | 5.0 | 0.00 | 0.01 | 0.00 | 65 | 1012.3 |
| 20260901204007 | 88 | 279 | 1.0 | 5.0 | 0.00 | 0.01 | 0.00 | 67 | 1012.4 |
| 20260901203907 | 88 | 294 | 1.0 | 5.0 | 0.00 | 0.01 | 0.00 | 67 | 1012.4 |
| 20260901203757 | 88 | 233 | 1.0 | 5.0 | 0.00 | 0.01 | 0.00 | 67 | 1012.4 |
| 20260901203654 | 88 | 355 | 1.0 | 5.0 | 0.00 | 0.01 | 0.00 | 67 | 1012.4 |
| 20260901203618 | 88 | 345 | 1.0 | 5.0 | 0.00 | 0.01 | 0.00 | 67 | 1012.4 |
| 20260901203551 | 88 | 358 | 1.0 | 5.0 | 0.00 | 0.01 | 0.00 | 67 | 1012.4 |
| 20260901203449 | 88 | 334 | 1.0 | 5.0 | 0.00 | 0.01 | 0.00 | 67 | 1012.4 |
| 20260901203349 | 88 | 16 | 1.0 | 5.0 | 0.00 | 0.01 | 0.00 | 67 | 1012.4 |
| 20260901203249 | 88 | 81 | 1.0 | 5.0 | 0.00 | 0.01 | 0.00 | 67 | 1012.4 |
| 20260901203143 | 88 | 325 | 1.0 | 5.0 | 0.00 | 0.01 | 0.00 | 67 | 1012.4 |
| 20260901203114 | 88 | 354 | 1.0 | 5.0 | 0.00 | 0.01 | 0.00 | 67 | 1012.4 |
| 20260901203037 | 88 | 8 | 1.0 | 5.0 | 0.00 | 0.01 | 0.00 | 68 | 1012.4 |
| 20260901202933 | 88 | 310 | 1.0 | 5.0 | 0.00 | 0.01 | 0.00 | 69 | 1012.5 |
| 20260901202834 | 88 | 21 | 1.0 | 5.0 | 0.00 | 0.01 | 0.00 | 69 | 1012.5 |
| 20260901202728 | 88 | 343 | 1.0 | 5.0 | 0.00 | 0.01 | 0.00 | 69 | 1012.5 |
| 20260901202627 | 88 | 7 | 1.0 | 5.0 | 0.00 | 0.01 | 0.00 | 69 | 1012.5 |
| 20260901202614 | 88 | 350 | 1.0 | 5.0 | 0.00 | 0.01 | 0.00 | 69 | 1012.5 |
| 20260901202525 | 88 | 16 | 1.0 | 5.0 | 0.00 | 0.01 | 0.00 | 69 | 1012.5 |
| 20260901202419 | 88 | 318 | 1.0 | 3.0 | 0.00 | 0.01 | 0.00 | 70 | 1012.5 |
| 20260901202316 | 88 | 37 | 1.0 | 3.0 | 0.00 | 0.01 | 0.00 | 70 | 1012.6 |
| 20260901202213 | 88 | 45 | 1.0 | 3.0 | 0.00 | 0.01 | 0.00 | 71 | 1012.6 |
| 20260901202113 | 88 | 3 | 1.0 | 3.0 | 0.00 | 0.01 | 0.00 | 70 | 1012.6 |
| 20260901202013 | 88 | 27 | 1.0 | 3.0 | 0.00 | 0.01 | 0.00 | 70 | 1012.6 |
| 20260901201913 | 88 | 254 | 1.0 | 3.0 | 0.00 | 0.01 | 0.00 | 70 | 1012.6 |
| 20260901201813 | 88 | 0 | 1.0 | 4.0 | 0.00 | 0.01 | 0.00 | 71 | 1012.6 |
| 20260901201711 | 87 | 0 | 1.0 | 4.0 | 0.00 | 0.01 | 0.00 | 72 | 1012.7 |
| 20260901201614 | 87 | 320 | 2.0 | 7.0 | 0.00 | 0.01 | 0.00 | 72 | 1012.7 |
| 20260901201610 | 87 | 334 | 2.0 | 7.0 | 0.00 | 0.01 | 0.00 | 72 | 1012.7 |
| 20260901201507 | 87 | 273 | 2.0 | 7.0 | 0.00 | 0.01 | 0.00 | 71 | 1012.7 |
| 20260901201407 | 87 | 353 | 2.0 | 7.0 | 0.00 | 0.01 | 0.00 | 72 | 1012.7 |
| 20260901201308 | 87 | 346 | 2.0 | 7.0 | 0.00 | 0.01 | 0.00 | 73 | 1012.7 |
| 20260901201204 | 87 | 15 | 2.0 | 7.0 | 0.00 | 0.01 | 0.00 | 73 | 1012.7 |
| 20260901201111 | 87 | 185 | 2.0 | 7.0 | 0.00 | 0.01 | 0.00 | 72 | 1012.8 |
| 20260901201104 | 87 | 100 | 2.0 | 7.0 | 0.00 | 0.01 | 0.00 | 72 | 1012.8 |
| 20260901201004 | 87 | 13 | 2.0 | 7.0 | 0.00 | 0.01 | 0.00 | 72 | 1012.8 |
| 20260901200858 | 87 | 348 | 2.0 | 7.0 | 0.00 | 0.01 | 0.00 | 71 | 1012.8 |
| 20260901200758 | 87 | 4 | 2.0 | 7.0 | 0.00 | 0.01 | 0.00 | 71 | 1012.8 |
| 20260901200659 | 87 | 19 | 1.0 | 5.0 | 0.00 | 0.01 | 0.00 | 71 | 1012.8 |
| 20260901200609 | 87 | 277 | 1.0 | 3.0 | 0.00 | 0.01 | 0.00 | 71 | 1012.8 |
| 20260901200555 | 87 | 319 | 1.0 | 3.0 | 0.00 | 0.01 | 0.00 | 71 | 1012.8 |
| 20260901200455 | 87 | 339 | 1.0 | 3.0 | 0.00 | 0.01 | 0.00 | 71 | 1012.8 |
| 20260901200355 | 87 | 334 | 1.0 | 3.0 | 0.00 | 0.01 | 0.00 | 71 | 1012.8 |
| 20260901200255 | 87 | 258 | 1.0 | 3.0 | 0.00 | 0.01 | 0.00 | 71 | 1012.8 |
| 20260901200156 | 87 | 223 | 1.0 | 3.0 | 0.00 | 0.01 | 0.00 | 72 | 1012.9 |
| 20260901200108 | 87 | 10 | 1.0 | 3.0 | 0.00 | 0.01 | 0.00 | 71 | 1012.9 |
| 20260901200049 | 87 | 214 | 1.0 | 3.0 | 0.00 | 0.01 | 0.00 | 71 | 1012.9 |
| 20260901195946 | 87 | 346 | 1.0 | 3.0 | 0.00 | 0.01 | 0.00 | 71 | 1012.9 |
| 20260901195847 | 87 | 359 | 1.0 | 3.0 | 0.00 | 0.01 | 0.00 | 71 | 1013.0 |
| 20260901195751 | 87 | 315 | 1.0 | 3.0 | 0.00 | 0.01 | 0.00 | 71 | 1013.0 |
| 20260901195644 | 87 | 37 | 1.0 | 4.0 | 0.00 | 0.01 | 0.00 | 72 | 1013.0 |
| 20260901195609 | 87 | 321 | 1.0 | 5.0 | 0.00 | 0.01 | 0.00 | 72 | 1013.0 |
| 20260901195543 | 87 | 306 | 1.0 | 5.0 | 0.00 | 0.01 | 0.00 | 72 | 1013.0 |
| 20260901195438 | 87 | 0 | 1.0 | 5.0 | 0.00 | 0.01 | 0.00 | 71 | 1013.0 |
| 20260901195338 | 87 | 321 | 1.0 | 5.0 | 0.00 | 0.01 | 0.00 | 71 | 1013.1 |
| 20260901195238 | 87 | 2 | 2.0 | 5.0 | 0.00 | 0.01 | 0.00 | 71 | 1013.1 |
| 20260901195137 | 87 | 9 | 2.0 | 6.0 | 0.00 | 0.01 | 0.00 | 71 | 1013.1 |
| 20260901195109 | 87 | 17 | 2.0 | 6.0 | 0.00 | 0.01 | 0.00 | 71 | 1013.1 |
| 20260901195032 | 87 | 330 | 2.0 | 6.0 | 0.00 | 0.01 | 0.00 | 71 | 1013.1 |
| 20260901194931 | 87 | 315 | 2.0 | 6.0 | 0.00 | 0.01 | 0.00 | 71 | 1013.1 |
| 20260901194828 | 87 | 310 | 2.0 | 6.0 | 0.00 | 0.01 | 0.00 | 71 | 1013.1 |
| 20260901194728 | 87 | 18 | 2.0 | 6.0 | 0.00 | 0.01 | 0.00 | 71 | 1013.1 |
| 20260901194625 | 87 | 341 | 2.0 | 6.0 | 0.00 | 0.01 | 0.00 | 70 | 1013.1 |
| 20260901194609 | 87 | 22 | 2.0 | 6.0 | 0.00 | 0.01 | 0.00 | 70 | 1013.1 |
| 20260901194525 | 87 | 0 | 2.0 | 6.0 | 0.00 | 0.01 | 0.00 | 70 | 1013.1 |
| 20260901194425 | 87 | 346 | 2.0 | 6.0 | 0.00 | 0.01 | 0.00 | 70 | 1013.1 |
| 20260901194325 | 87 | 302 | 2.0 | 6.0 | 0.00 | 0.01 | 0.00 | 70 | 1013.1 |
| 20260901194225 | 87 | 341 | 2.0 | 6.0 | 0.00 | 0.01 | 0.00 | 70 | 1013.1 |
| 20260901194125 | 87 | 323 | 1.0 | 4.0 | 0.00 | 0.01 | 0.00 | 69 | 1013.1 |
| 20260901194109 | 87 | 331 | 1.0 | 4.0 | 0.00 | 0.01 | 0.00 | 69 | 1013.1 |
| 20260901194026 | 87 | 357 | 2.0 | 4.0 | 0.00 | 0.01 | 0.00 | 69 | 1013.1 |
| 20260901193926 | 87 | 313 | 2.0 | 4.0 | 0.00 | 0.01 | 0.00 | 69 | 1013.2 |
| 20260901193830 | 88 | 10 | 2.0 | 4.0 | 0.00 | 0.01 | 0.00 | 69 | 1013.3 |
| 20260901193826 | 87 | 331 | 2.0 | 4.0 | 0.00 | 0.01 | 0.00 | 70 | 1013.2 |
| 20260901193725 | 87 | 342 | 2.0 | 4.0 | 0.00 | 0.01 | 0.00 | 69 | 1013.2 |
| 20260901193714 | 87 | 338 | 2.0 | 4.0 | 0.00 | 0.01 | 0.00 | 68 | 1013.2 |
| 20260901193523 | 88 | 36 | 1.0 | 4.0 | 0.00 | 0.01 | 0.00 | 69 | 1013.3 |
| 20260901193420 | 88 | 1 | 1.0 | 4.0 | 0.00 | 0.01 | 0.00 | 69 | 1013.3 |
| 20260901193314 | 88 | 322 | 1.0 | 4.0 | 0.00 | 0.01 | 0.00 | 69 | 1013.3 |
| 20260901193212 | 88 | 323 | 1.0 | 3.0 | 0.00 | 0.01 | 0.00 | 68 | 1013.3 |
| 20260901193109 | 88 | 25 | 1.0 | 3.0 | 0.00 | 0.01 | 0.00 | 69 | 1013.3 |
| 20260901193012 | 88 | 32 | 1.0 | 2.0 | 0.00 | 0.01 | 0.00 | 68 | 1013.3 |
| 20260901192912 | 88 | 14 | 1.0 | 3.0 | 0.00 | 0.01 | 0.00 | 69 | 1013.3 |
| 20260901192811 | 88 | 345 | 1.0 | 7.0 | 0.00 | 0.01 | 0.00 | 69 | 1013.3 |
| 20260901192710 | 87 | 358 | 1.0 | 7.0 | 0.00 | 0.01 | 0.00 | 70 | 1013.4 |
| 20260901192610 | 87 | 291 | 1.0 | 7.0 | 0.00 | 0.01 | 0.00 | 70 | 1013.4 |
| 20260901192505 | 87 | 357 | 1.0 | 7.0 | 0.00 | 0.01 | 0.00 | 70 | 1013.4 |
| 20260901192402 | 87 | 161 | 1.0 | 7.0 | 0.00 | 0.01 | 0.00 | 70 | 1013.4 |
| 20260901192325 | 87 | 15 | 2.0 | 7.0 | 0.00 | 0.01 | 0.00 | 69 | 1013.4 |
| 20260901192259 | 87 | 4 | 1.0 | 7.0 | 0.00 | 0.01 | 0.00 | 70 | 1013.4 |
| 20260901192206 | 87 | 109 | 2.0 | 7.0 | 0.00 | 0.01 | 0.00 | 70 | 1013.4 |
| 20260901192056 | 87 | 1 | 2.0 | 7.0 | 0.00 | 0.01 | 0.00 | 69 | 1013.4 |
| 20260901191953 | 87 | 46 | 2.0 | 7.0 | 0.00 | 0.01 | 0.00 | 69 | 1013.4 |
| 20260901191853 | 87 | 6 | 2.0 | 7.0 | 0.00 | 0.01 | 0.00 | 69 | 1013.4 |